<?xml version="1.0" encoding="UTF-8" standalone="no" ?>
<gpx xmlns="http://www.topografix.com/GPX/1/1" xmlns:xsi="http://www.w3.org/2001/XMLSchema-instance" xsi:schemaLocation="http://www.topografix.com/GPX/1/1 http://www.topografix.com/GPX/1/1/gpx.xsd" version="1.1" creator="VisuGPX - https://www.visugpx.com">
  <metadata>
    <name>Randonnée à Saint Sylvestre(47) du 09 septembre 2012</name>
    <desc><![CDATA[Randonnée à Saint Sylvestre(47) du 09 septembre 2012]]></desc>
  </metadata>
  <trk>
    <name><![CDATA[Randonnée à Saint Sylvestre(47) du 09 septembre 2012_1]]></name>
    <trkseg>
      <trkpt lat="44.40307" lon="0.81516">
        <ele>65</ele>
        <time>2012-09-09T05:45:36Z</time>
      </trkpt>
      <trkpt lat="44.40283" lon="0.81538">
        <ele>63</ele>
        <time>2012-09-09T05:45:53Z</time>
      </trkpt>
      <trkpt lat="44.40271" lon="0.81549">
        <ele>62</ele>
        <time>2012-09-09T05:45:59Z</time>
      </trkpt>
      <trkpt lat="44.40261" lon="0.81554">
        <ele>61</ele>
        <time>2012-09-09T05:46:04Z</time>
      </trkpt>
      <trkpt lat="44.40258" lon="0.81556">
        <ele>59</ele>
        <time>2012-09-09T05:46:30Z</time>
      </trkpt>
      <trkpt lat="44.40256" lon="0.81557">
        <ele>57</ele>
        <time>2012-09-09T05:46:42Z</time>
      </trkpt>
      <trkpt lat="44.4025" lon="0.8156">
        <ele>57</ele>
        <time>2012-09-09T05:46:48Z</time>
      </trkpt>
      <trkpt lat="44.40247" lon="0.81566">
        <ele>57</ele>
        <time>2012-09-09T05:46:54Z</time>
      </trkpt>
      <trkpt lat="44.40247" lon="0.81571">
        <ele>57</ele>
        <time>2012-09-09T05:47:00Z</time>
      </trkpt>
      <trkpt lat="44.40247" lon="0.81574">
        <ele>54</ele>
        <time>2012-09-09T05:47:16Z</time>
      </trkpt>
      <trkpt lat="44.40248" lon="0.81574">
        <ele>51</ele>
        <time>2012-09-09T05:47:43Z</time>
      </trkpt>
      <trkpt lat="44.40248" lon="0.81575">
        <ele>51</ele>
        <time>2012-09-09T05:48:05Z</time>
      </trkpt>
      <trkpt lat="44.40247" lon="0.81576">
        <ele>51</ele>
        <time>2012-09-09T05:49:27Z</time>
      </trkpt>
      <trkpt lat="44.40247" lon="0.81577">
        <ele>50</ele>
        <time>2012-09-09T05:49:43Z</time>
      </trkpt>
      <trkpt lat="44.40246" lon="0.81579">
        <ele>50</ele>
        <time>2012-09-09T05:50:01Z</time>
      </trkpt>
      <trkpt lat="44.40245" lon="0.81581">
        <ele>49</ele>
        <time>2012-09-09T05:50:18Z</time>
      </trkpt>
      <trkpt lat="44.40248" lon="0.81589">
        <ele>49</ele>
        <time>2012-09-09T05:50:24Z</time>
      </trkpt>
      <trkpt lat="44.40251" lon="0.81598">
        <ele>48</ele>
        <time>2012-09-09T05:50:29Z</time>
      </trkpt>
      <trkpt lat="44.40255" lon="0.81609">
        <ele>47</ele>
        <time>2012-09-09T05:50:35Z</time>
      </trkpt>
      <trkpt lat="44.40257" lon="0.81616">
        <ele>47</ele>
        <time>2012-09-09T05:50:40Z</time>
      </trkpt>
      <trkpt lat="44.4026" lon="0.81625">
        <ele>47</ele>
        <time>2012-09-09T05:50:46Z</time>
      </trkpt>
      <trkpt lat="44.40262" lon="0.8163">
        <ele>47</ele>
        <time>2012-09-09T05:50:52Z</time>
      </trkpt>
      <trkpt lat="44.40265" lon="0.81636">
        <ele>47</ele>
        <time>2012-09-09T05:51:06Z</time>
      </trkpt>
      <trkpt lat="44.40267" lon="0.81643">
        <ele>47</ele>
        <time>2012-09-09T05:51:11Z</time>
      </trkpt>
      <trkpt lat="44.40269" lon="0.81656">
        <ele>47</ele>
        <time>2012-09-09T05:51:16Z</time>
      </trkpt>
      <trkpt lat="44.40271" lon="0.81668">
        <ele>47</ele>
        <time>2012-09-09T05:51:21Z</time>
      </trkpt>
      <trkpt lat="44.40274" lon="0.81678">
        <ele>47</ele>
        <time>2012-09-09T05:51:27Z</time>
      </trkpt>
      <trkpt lat="44.40279" lon="0.81681">
        <ele>47</ele>
        <time>2012-09-09T05:51:32Z</time>
      </trkpt>
      <trkpt lat="44.40289" lon="0.81675">
        <ele>47</ele>
        <time>2012-09-09T05:51:38Z</time>
      </trkpt>
      <trkpt lat="44.403" lon="0.8167">
        <ele>47</ele>
        <time>2012-09-09T05:51:43Z</time>
      </trkpt>
      <trkpt lat="44.40312" lon="0.81663">
        <ele>47</ele>
        <time>2012-09-09T05:51:48Z</time>
      </trkpt>
      <trkpt lat="44.40328" lon="0.81656">
        <ele>47</ele>
        <time>2012-09-09T05:51:54Z</time>
      </trkpt>
      <trkpt lat="44.40345" lon="0.81646">
        <ele>47</ele>
        <time>2012-09-09T05:52:00Z</time>
      </trkpt>
      <trkpt lat="44.40359" lon="0.81637">
        <ele>47</ele>
        <time>2012-09-09T05:52:05Z</time>
      </trkpt>
      <trkpt lat="44.40374" lon="0.81626">
        <ele>47</ele>
        <time>2012-09-09T05:52:10Z</time>
      </trkpt>
      <trkpt lat="44.40391" lon="0.81613">
        <ele>47</ele>
        <time>2012-09-09T05:52:15Z</time>
      </trkpt>
      <trkpt lat="44.40408" lon="0.816">
        <ele>47</ele>
        <time>2012-09-09T05:52:20Z</time>
      </trkpt>
      <trkpt lat="44.40425" lon="0.81587">
        <ele>47</ele>
        <time>2012-09-09T05:52:25Z</time>
      </trkpt>
      <trkpt lat="44.40443" lon="0.81574">
        <ele>48</ele>
        <time>2012-09-09T05:52:30Z</time>
      </trkpt>
      <trkpt lat="44.4046" lon="0.81562">
        <ele>48</ele>
        <time>2012-09-09T05:52:35Z</time>
      </trkpt>
      <trkpt lat="44.40476" lon="0.8155">
        <ele>49</ele>
        <time>2012-09-09T05:52:40Z</time>
      </trkpt>
      <trkpt lat="44.40493" lon="0.81533">
        <ele>50</ele>
        <time>2012-09-09T05:52:45Z</time>
      </trkpt>
      <trkpt lat="44.40508" lon="0.81518">
        <ele>50</ele>
        <time>2012-09-09T05:52:50Z</time>
      </trkpt>
      <trkpt lat="44.40525" lon="0.81503">
        <ele>50</ele>
        <time>2012-09-09T05:52:55Z</time>
      </trkpt>
      <trkpt lat="44.40542" lon="0.81488">
        <ele>50</ele>
        <time>2012-09-09T05:53:00Z</time>
      </trkpt>
      <trkpt lat="44.40558" lon="0.81471">
        <ele>50</ele>
        <time>2012-09-09T05:53:05Z</time>
      </trkpt>
      <trkpt lat="44.40574" lon="0.81455">
        <ele>50</ele>
        <time>2012-09-09T05:53:10Z</time>
      </trkpt>
      <trkpt lat="44.40592" lon="0.81438">
        <ele>50</ele>
        <time>2012-09-09T05:53:15Z</time>
      </trkpt>
      <trkpt lat="44.40608" lon="0.81419">
        <ele>51</ele>
        <time>2012-09-09T05:53:20Z</time>
      </trkpt>
      <trkpt lat="44.40623" lon="0.81403">
        <ele>55</ele>
        <time>2012-09-09T05:53:25Z</time>
      </trkpt>
      <trkpt lat="44.40643" lon="0.81379">
        <ele>59</ele>
        <time>2012-09-09T05:53:31Z</time>
      </trkpt>
      <trkpt lat="44.4066" lon="0.81367">
        <ele>64</ele>
        <time>2012-09-09T05:53:37Z</time>
      </trkpt>
      <trkpt lat="44.40673" lon="0.81358">
        <ele>64</ele>
        <time>2012-09-09T05:53:42Z</time>
      </trkpt>
      <trkpt lat="44.40692" lon="0.81346">
        <ele>64</ele>
        <time>2012-09-09T05:53:47Z</time>
      </trkpt>
      <trkpt lat="44.4071" lon="0.81335">
        <ele>64</ele>
        <time>2012-09-09T05:53:52Z</time>
      </trkpt>
      <trkpt lat="44.40734" lon="0.81317">
        <ele>64</ele>
        <time>2012-09-09T05:53:57Z</time>
      </trkpt>
      <trkpt lat="44.40758" lon="0.81299">
        <ele>63</ele>
        <time>2012-09-09T05:54:02Z</time>
      </trkpt>
      <trkpt lat="44.40785" lon="0.8128">
        <ele>63</ele>
        <time>2012-09-09T05:54:08Z</time>
      </trkpt>
      <trkpt lat="44.40808" lon="0.81265">
        <ele>63</ele>
        <time>2012-09-09T05:54:13Z</time>
      </trkpt>
      <trkpt lat="44.40832" lon="0.8125">
        <ele>63</ele>
        <time>2012-09-09T05:54:18Z</time>
      </trkpt>
      <trkpt lat="44.40854" lon="0.81237">
        <ele>63</ele>
        <time>2012-09-09T05:54:23Z</time>
      </trkpt>
      <trkpt lat="44.40875" lon="0.81222">
        <ele>63</ele>
        <time>2012-09-09T05:54:28Z</time>
      </trkpt>
      <trkpt lat="44.40895" lon="0.81206">
        <ele>63</ele>
        <time>2012-09-09T05:54:33Z</time>
      </trkpt>
      <trkpt lat="44.40917" lon="0.81191">
        <ele>63</ele>
        <time>2012-09-09T05:54:38Z</time>
      </trkpt>
      <trkpt lat="44.40941" lon="0.81175">
        <ele>63</ele>
        <time>2012-09-09T05:54:43Z</time>
      </trkpt>
      <trkpt lat="44.40964" lon="0.8116">
        <ele>63</ele>
        <time>2012-09-09T05:54:48Z</time>
      </trkpt>
      <trkpt lat="44.40984" lon="0.81147">
        <ele>63</ele>
        <time>2012-09-09T05:54:53Z</time>
      </trkpt>
      <trkpt lat="44.41002" lon="0.81135">
        <ele>63</ele>
        <time>2012-09-09T05:54:58Z</time>
      </trkpt>
      <trkpt lat="44.41019" lon="0.81125">
        <ele>63</ele>
        <time>2012-09-09T05:55:03Z</time>
      </trkpt>
      <trkpt lat="44.41032" lon="0.81116">
        <ele>63</ele>
        <time>2012-09-09T05:55:08Z</time>
      </trkpt>
      <trkpt lat="44.41037" lon="0.81107">
        <ele>63</ele>
        <time>2012-09-09T05:55:13Z</time>
      </trkpt>
      <trkpt lat="44.41022" lon="0.81104">
        <ele>63</ele>
        <time>2012-09-09T05:55:18Z</time>
      </trkpt>
      <trkpt lat="44.41002" lon="0.81102">
        <ele>63</ele>
        <time>2012-09-09T05:55:23Z</time>
      </trkpt>
      <trkpt lat="44.40979" lon="0.811">
        <ele>63</ele>
        <time>2012-09-09T05:55:28Z</time>
      </trkpt>
      <trkpt lat="44.40952" lon="0.81096">
        <ele>63</ele>
        <time>2012-09-09T05:55:33Z</time>
      </trkpt>
      <trkpt lat="44.40923" lon="0.81094">
        <ele>63</ele>
        <time>2012-09-09T05:55:38Z</time>
      </trkpt>
      <trkpt lat="44.40894" lon="0.81095">
        <ele>63</ele>
        <time>2012-09-09T05:55:43Z</time>
      </trkpt>
      <trkpt lat="44.40877" lon="0.8109">
        <ele>63</ele>
        <time>2012-09-09T05:55:48Z</time>
      </trkpt>
      <trkpt lat="44.40891" lon="0.81082">
        <ele>63</ele>
        <time>2012-09-09T05:55:53Z</time>
      </trkpt>
      <trkpt lat="44.40916" lon="0.81083">
        <ele>63</ele>
        <time>2012-09-09T05:55:58Z</time>
      </trkpt>
      <trkpt lat="44.40939" lon="0.81081">
        <ele>64</ele>
        <time>2012-09-09T05:56:03Z</time>
      </trkpt>
      <trkpt lat="44.40943" lon="0.81052">
        <ele>64</ele>
        <time>2012-09-09T05:56:08Z</time>
      </trkpt>
      <trkpt lat="44.40942" lon="0.81019">
        <ele>64</ele>
        <time>2012-09-09T05:56:13Z</time>
      </trkpt>
      <trkpt lat="44.40942" lon="0.80989">
        <ele>64</ele>
        <time>2012-09-09T05:56:18Z</time>
      </trkpt>
      <trkpt lat="44.40941" lon="0.80961">
        <ele>64</ele>
        <time>2012-09-09T05:56:23Z</time>
      </trkpt>
      <trkpt lat="44.40939" lon="0.80932">
        <ele>65</ele>
        <time>2012-09-09T05:56:28Z</time>
      </trkpt>
      <trkpt lat="44.40937" lon="0.80904">
        <ele>65</ele>
        <time>2012-09-09T05:56:33Z</time>
      </trkpt>
      <trkpt lat="44.40935" lon="0.80872">
        <ele>65</ele>
        <time>2012-09-09T05:56:38Z</time>
      </trkpt>
      <trkpt lat="44.40933" lon="0.80839">
        <ele>66</ele>
        <time>2012-09-09T05:56:43Z</time>
      </trkpt>
      <trkpt lat="44.40932" lon="0.80804">
        <ele>66</ele>
        <time>2012-09-09T05:56:48Z</time>
      </trkpt>
      <trkpt lat="44.40929" lon="0.80774">
        <ele>66</ele>
        <time>2012-09-09T05:56:53Z</time>
      </trkpt>
      <trkpt lat="44.40906" lon="0.80769">
        <ele>66</ele>
        <time>2012-09-09T05:56:58Z</time>
      </trkpt>
      <trkpt lat="44.40882" lon="0.80756">
        <ele>66</ele>
        <time>2012-09-09T05:57:03Z</time>
      </trkpt>
      <trkpt lat="44.4088" lon="0.80727">
        <ele>66</ele>
        <time>2012-09-09T05:57:08Z</time>
      </trkpt>
      <trkpt lat="44.40894" lon="0.80747">
        <ele>66</ele>
        <time>2012-09-09T05:57:13Z</time>
      </trkpt>
      <trkpt lat="44.40914" lon="0.80751">
        <ele>66</ele>
        <time>2012-09-09T05:57:18Z</time>
      </trkpt>
      <trkpt lat="44.40937" lon="0.80741">
        <ele>66</ele>
        <time>2012-09-09T05:57:23Z</time>
      </trkpt>
      <trkpt lat="44.4096" lon="0.80731">
        <ele>66</ele>
        <time>2012-09-09T05:57:28Z</time>
      </trkpt>
      <trkpt lat="44.40982" lon="0.80722">
        <ele>67</ele>
        <time>2012-09-09T05:57:33Z</time>
      </trkpt>
      <trkpt lat="44.41004" lon="0.80713">
        <ele>68</ele>
        <time>2012-09-09T05:57:38Z</time>
      </trkpt>
      <trkpt lat="44.41027" lon="0.80705">
        <ele>68</ele>
        <time>2012-09-09T05:57:43Z</time>
      </trkpt>
      <trkpt lat="44.41049" lon="0.80696">
        <ele>68</ele>
        <time>2012-09-09T05:57:48Z</time>
      </trkpt>
      <trkpt lat="44.41073" lon="0.80686">
        <ele>68</ele>
        <time>2012-09-09T05:57:53Z</time>
      </trkpt>
      <trkpt lat="44.41095" lon="0.80676">
        <ele>68</ele>
        <time>2012-09-09T05:57:58Z</time>
      </trkpt>
      <trkpt lat="44.41117" lon="0.80664">
        <ele>68</ele>
        <time>2012-09-09T05:58:03Z</time>
      </trkpt>
      <trkpt lat="44.41139" lon="0.80658">
        <ele>69</ele>
        <time>2012-09-09T05:58:08Z</time>
      </trkpt>
      <trkpt lat="44.41161" lon="0.80664">
        <ele>70</ele>
        <time>2012-09-09T05:58:13Z</time>
      </trkpt>
      <trkpt lat="44.41173" lon="0.8068">
        <ele>72</ele>
        <time>2012-09-09T05:58:18Z</time>
      </trkpt>
      <trkpt lat="44.41177" lon="0.80713">
        <ele>72</ele>
        <time>2012-09-09T05:58:23Z</time>
      </trkpt>
      <trkpt lat="44.41179" lon="0.80749">
        <ele>72</ele>
        <time>2012-09-09T05:58:28Z</time>
      </trkpt>
      <trkpt lat="44.4118" lon="0.80788">
        <ele>73</ele>
        <time>2012-09-09T05:58:33Z</time>
      </trkpt>
      <trkpt lat="44.41179" lon="0.80832">
        <ele>73</ele>
        <time>2012-09-09T05:58:38Z</time>
      </trkpt>
      <trkpt lat="44.41176" lon="0.80874">
        <ele>73</ele>
        <time>2012-09-09T05:58:43Z</time>
      </trkpt>
      <trkpt lat="44.41173" lon="0.80911">
        <ele>73</ele>
        <time>2012-09-09T05:58:48Z</time>
      </trkpt>
      <trkpt lat="44.41172" lon="0.80942">
        <ele>73</ele>
        <time>2012-09-09T05:58:53Z</time>
      </trkpt>
      <trkpt lat="44.41188" lon="0.8094">
        <ele>73</ele>
        <time>2012-09-09T05:58:58Z</time>
      </trkpt>
      <trkpt lat="44.41206" lon="0.80931">
        <ele>73</ele>
        <time>2012-09-09T05:59:03Z</time>
      </trkpt>
      <trkpt lat="44.41224" lon="0.80922">
        <ele>73</ele>
        <time>2012-09-09T05:59:08Z</time>
      </trkpt>
      <trkpt lat="44.41241" lon="0.80915">
        <ele>73</ele>
        <time>2012-09-09T05:59:13Z</time>
      </trkpt>
      <trkpt lat="44.4126" lon="0.80906">
        <ele>75</ele>
        <time>2012-09-09T05:59:18Z</time>
      </trkpt>
      <trkpt lat="44.41277" lon="0.80895">
        <ele>77</ele>
        <time>2012-09-09T05:59:23Z</time>
      </trkpt>
      <trkpt lat="44.41293" lon="0.80879">
        <ele>78</ele>
        <time>2012-09-09T05:59:28Z</time>
      </trkpt>
      <trkpt lat="44.41311" lon="0.80859">
        <ele>79</ele>
        <time>2012-09-09T05:59:33Z</time>
      </trkpt>
      <trkpt lat="44.41331" lon="0.80838">
        <ele>80</ele>
        <time>2012-09-09T05:59:38Z</time>
      </trkpt>
      <trkpt lat="44.4135" lon="0.80818">
        <ele>80</ele>
        <time>2012-09-09T05:59:43Z</time>
      </trkpt>
      <trkpt lat="44.41369" lon="0.808">
        <ele>80</ele>
        <time>2012-09-09T05:59:48Z</time>
      </trkpt>
      <trkpt lat="44.41388" lon="0.80781">
        <ele>80</ele>
        <time>2012-09-09T05:59:53Z</time>
      </trkpt>
      <trkpt lat="44.41409" lon="0.80763">
        <ele>80</ele>
        <time>2012-09-09T05:59:58Z</time>
      </trkpt>
      <trkpt lat="44.41431" lon="0.80745">
        <ele>80</ele>
        <time>2012-09-09T06:00:03Z</time>
      </trkpt>
      <trkpt lat="44.41451" lon="0.80727">
        <ele>80</ele>
        <time>2012-09-09T06:00:08Z</time>
      </trkpt>
      <trkpt lat="44.4147" lon="0.80709">
        <ele>80</ele>
        <time>2012-09-09T06:00:13Z</time>
      </trkpt>
      <trkpt lat="44.41488" lon="0.80691">
        <ele>81</ele>
        <time>2012-09-09T06:00:18Z</time>
      </trkpt>
      <trkpt lat="44.41506" lon="0.80674">
        <ele>82</ele>
        <time>2012-09-09T06:00:23Z</time>
      </trkpt>
      <trkpt lat="44.41523" lon="0.80657">
        <ele>83</ele>
        <time>2012-09-09T06:00:28Z</time>
      </trkpt>
      <trkpt lat="44.4154" lon="0.80641">
        <ele>84</ele>
        <time>2012-09-09T06:00:33Z</time>
      </trkpt>
      <trkpt lat="44.41557" lon="0.80625">
        <ele>84</ele>
        <time>2012-09-09T06:00:38Z</time>
      </trkpt>
      <trkpt lat="44.41573" lon="0.80608">
        <ele>86</ele>
        <time>2012-09-09T06:00:43Z</time>
      </trkpt>
      <trkpt lat="44.41587" lon="0.80591">
        <ele>88</ele>
        <time>2012-09-09T06:00:48Z</time>
      </trkpt>
      <trkpt lat="44.41602" lon="0.80574">
        <ele>89</ele>
        <time>2012-09-09T06:00:53Z</time>
      </trkpt>
      <trkpt lat="44.41616" lon="0.80559">
        <ele>89</ele>
        <time>2012-09-09T06:00:58Z</time>
      </trkpt>
      <trkpt lat="44.41631" lon="0.80544">
        <ele>89</ele>
        <time>2012-09-09T06:01:03Z</time>
      </trkpt>
      <trkpt lat="44.41646" lon="0.80525">
        <ele>89</ele>
        <time>2012-09-09T06:01:08Z</time>
      </trkpt>
      <trkpt lat="44.41659" lon="0.80507">
        <ele>90</ele>
        <time>2012-09-09T06:01:13Z</time>
      </trkpt>
      <trkpt lat="44.41672" lon="0.8049">
        <ele>92</ele>
        <time>2012-09-09T06:01:18Z</time>
      </trkpt>
      <trkpt lat="44.41686" lon="0.80474">
        <ele>92</ele>
        <time>2012-09-09T06:01:23Z</time>
      </trkpt>
      <trkpt lat="44.41699" lon="0.80457">
        <ele>92</ele>
        <time>2012-09-09T06:01:28Z</time>
      </trkpt>
      <trkpt lat="44.41711" lon="0.8044">
        <ele>93</ele>
        <time>2012-09-09T06:01:33Z</time>
      </trkpt>
      <trkpt lat="44.41725" lon="0.80423">
        <ele>94</ele>
        <time>2012-09-09T06:01:38Z</time>
      </trkpt>
      <trkpt lat="44.4174" lon="0.80407">
        <ele>95</ele>
        <time>2012-09-09T06:01:43Z</time>
      </trkpt>
      <trkpt lat="44.41757" lon="0.80397">
        <ele>96</ele>
        <time>2012-09-09T06:01:48Z</time>
      </trkpt>
      <trkpt lat="44.41775" lon="0.80388">
        <ele>97</ele>
        <time>2012-09-09T06:01:53Z</time>
      </trkpt>
      <trkpt lat="44.4179" lon="0.80379">
        <ele>97</ele>
        <time>2012-09-09T06:01:58Z</time>
      </trkpt>
      <trkpt lat="44.41805" lon="0.80371">
        <ele>97</ele>
        <time>2012-09-09T06:02:03Z</time>
      </trkpt>
      <trkpt lat="44.41819" lon="0.80365">
        <ele>97</ele>
        <time>2012-09-09T06:02:08Z</time>
      </trkpt>
      <trkpt lat="44.41835" lon="0.80361">
        <ele>99</ele>
        <time>2012-09-09T06:02:13Z</time>
      </trkpt>
      <trkpt lat="44.41848" lon="0.80352">
        <ele>100</ele>
        <time>2012-09-09T06:02:18Z</time>
      </trkpt>
      <trkpt lat="44.41861" lon="0.80346">
        <ele>102</ele>
        <time>2012-09-09T06:02:23Z</time>
      </trkpt>
      <trkpt lat="44.41875" lon="0.8034">
        <ele>103</ele>
        <time>2012-09-09T06:02:28Z</time>
      </trkpt>
      <trkpt lat="44.41887" lon="0.80323">
        <ele>104</ele>
        <time>2012-09-09T06:02:33Z</time>
      </trkpt>
      <trkpt lat="44.41902" lon="0.80309">
        <ele>105</ele>
        <time>2012-09-09T06:02:38Z</time>
      </trkpt>
      <trkpt lat="44.41917" lon="0.80296">
        <ele>106</ele>
        <time>2012-09-09T06:02:43Z</time>
      </trkpt>
      <trkpt lat="44.41932" lon="0.80282">
        <ele>107</ele>
        <time>2012-09-09T06:02:48Z</time>
      </trkpt>
      <trkpt lat="44.41945" lon="0.80266">
        <ele>107</ele>
        <time>2012-09-09T06:02:53Z</time>
      </trkpt>
      <trkpt lat="44.4196" lon="0.80251">
        <ele>107</ele>
        <time>2012-09-09T06:02:58Z</time>
      </trkpt>
      <trkpt lat="44.41961" lon="0.80229">
        <ele>108</ele>
        <time>2012-09-09T06:03:03Z</time>
      </trkpt>
      <trkpt lat="44.41955" lon="0.80205">
        <ele>108</ele>
        <time>2012-09-09T06:03:08Z</time>
      </trkpt>
      <trkpt lat="44.41947" lon="0.80182">
        <ele>109</ele>
        <time>2012-09-09T06:03:13Z</time>
      </trkpt>
      <trkpt lat="44.41933" lon="0.80166">
        <ele>111</ele>
        <time>2012-09-09T06:03:18Z</time>
      </trkpt>
      <trkpt lat="44.41916" lon="0.80157">
        <ele>111</ele>
        <time>2012-09-09T06:03:23Z</time>
      </trkpt>
      <trkpt lat="44.41896" lon="0.80143">
        <ele>111</ele>
        <time>2012-09-09T06:03:28Z</time>
      </trkpt>
      <trkpt lat="44.41881" lon="0.80113">
        <ele>111</ele>
        <time>2012-09-09T06:03:33Z</time>
      </trkpt>
      <trkpt lat="44.41864" lon="0.80078">
        <ele>111</ele>
        <time>2012-09-09T06:03:38Z</time>
      </trkpt>
      <trkpt lat="44.41837" lon="0.80048">
        <ele>109</ele>
        <time>2012-09-09T06:03:43Z</time>
      </trkpt>
      <trkpt lat="44.41811" lon="0.80019">
        <ele>106</ele>
        <time>2012-09-09T06:03:48Z</time>
      </trkpt>
      <trkpt lat="44.41796" lon="0.79974">
        <ele>105</ele>
        <time>2012-09-09T06:03:53Z</time>
      </trkpt>
      <trkpt lat="44.41782" lon="0.79929">
        <ele>105</ele>
        <time>2012-09-09T06:03:58Z</time>
      </trkpt>
      <trkpt lat="44.4177" lon="0.79883">
        <ele>105</ele>
        <time>2012-09-09T06:04:03Z</time>
      </trkpt>
      <trkpt lat="44.41764" lon="0.79837">
        <ele>105</ele>
        <time>2012-09-09T06:04:08Z</time>
      </trkpt>
      <trkpt lat="44.41763" lon="0.7979">
        <ele>106</ele>
        <time>2012-09-09T06:04:13Z</time>
      </trkpt>
      <trkpt lat="44.41764" lon="0.79741">
        <ele>107</ele>
        <time>2012-09-09T06:04:18Z</time>
      </trkpt>
      <trkpt lat="44.41764" lon="0.79693">
        <ele>107</ele>
        <time>2012-09-09T06:04:23Z</time>
      </trkpt>
      <trkpt lat="44.41764" lon="0.79648">
        <ele>107</ele>
        <time>2012-09-09T06:04:28Z</time>
      </trkpt>
      <trkpt lat="44.41763" lon="0.79606">
        <ele>107</ele>
        <time>2012-09-09T06:04:33Z</time>
      </trkpt>
      <trkpt lat="44.4176" lon="0.79568">
        <ele>109</ele>
        <time>2012-09-09T06:04:38Z</time>
      </trkpt>
      <trkpt lat="44.41755" lon="0.79534">
        <ele>111</ele>
        <time>2012-09-09T06:04:43Z</time>
      </trkpt>
      <trkpt lat="44.41747" lon="0.79489">
        <ele>111</ele>
        <time>2012-09-09T06:04:48Z</time>
      </trkpt>
      <trkpt lat="44.41734" lon="0.79437">
        <ele>111</ele>
        <time>2012-09-09T06:04:53Z</time>
      </trkpt>
      <trkpt lat="44.41719" lon="0.79371">
        <ele>107</ele>
        <time>2012-09-09T06:04:58Z</time>
      </trkpt>
      <trkpt lat="44.41711" lon="0.7931">
        <ele>102</ele>
        <time>2012-09-09T06:05:03Z</time>
      </trkpt>
      <trkpt lat="44.41715" lon="0.79248">
        <ele>97</ele>
        <time>2012-09-09T06:05:08Z</time>
      </trkpt>
      <trkpt lat="44.41708" lon="0.79179">
        <ele>92</ele>
        <time>2012-09-09T06:05:13Z</time>
      </trkpt>
      <trkpt lat="44.417" lon="0.79109">
        <ele>88</ele>
        <time>2012-09-09T06:05:18Z</time>
      </trkpt>
      <trkpt lat="44.41692" lon="0.79062">
        <ele>83</ele>
        <time>2012-09-09T06:05:23Z</time>
      </trkpt>
      <trkpt lat="44.41681" lon="0.79036">
        <ele>78</ele>
        <time>2012-09-09T06:05:28Z</time>
      </trkpt>
      <trkpt lat="44.41656" lon="0.78998">
        <ele>75</ele>
        <time>2012-09-09T06:05:33Z</time>
      </trkpt>
      <trkpt lat="44.4163" lon="0.78955">
        <ele>73</ele>
        <time>2012-09-09T06:05:38Z</time>
      </trkpt>
      <trkpt lat="44.41598" lon="0.78902">
        <ele>70</ele>
        <time>2012-09-09T06:05:44Z</time>
      </trkpt>
      <trkpt lat="44.41558" lon="0.78875">
        <ele>69</ele>
        <time>2012-09-09T06:05:49Z</time>
      </trkpt>
      <trkpt lat="44.4152" lon="0.78851">
        <ele>68</ele>
        <time>2012-09-09T06:05:54Z</time>
      </trkpt>
      <trkpt lat="44.41512" lon="0.78821">
        <ele>68</ele>
        <time>2012-09-09T06:05:59Z</time>
      </trkpt>
      <trkpt lat="44.4152" lon="0.78773">
        <ele>68</ele>
        <time>2012-09-09T06:06:04Z</time>
      </trkpt>
      <trkpt lat="44.41525" lon="0.78723">
        <ele>68</ele>
        <time>2012-09-09T06:06:09Z</time>
      </trkpt>
      <trkpt lat="44.41526" lon="0.78677">
        <ele>68</ele>
        <time>2012-09-09T06:06:14Z</time>
      </trkpt>
      <trkpt lat="44.41519" lon="0.78633">
        <ele>68</ele>
        <time>2012-09-09T06:06:19Z</time>
      </trkpt>
      <trkpt lat="44.41526" lon="0.78586">
        <ele>68</ele>
        <time>2012-09-09T06:06:24Z</time>
      </trkpt>
      <trkpt lat="44.41534" lon="0.78545">
        <ele>68</ele>
        <time>2012-09-09T06:06:29Z</time>
      </trkpt>
      <trkpt lat="44.4154" lon="0.78508">
        <ele>68</ele>
        <time>2012-09-09T06:06:34Z</time>
      </trkpt>
      <trkpt lat="44.41546" lon="0.78468">
        <ele>68</ele>
        <time>2012-09-09T06:06:39Z</time>
      </trkpt>
      <trkpt lat="44.41557" lon="0.78425">
        <ele>68</ele>
        <time>2012-09-09T06:06:44Z</time>
      </trkpt>
      <trkpt lat="44.4157" lon="0.78386">
        <ele>68</ele>
        <time>2012-09-09T06:06:49Z</time>
      </trkpt>
      <trkpt lat="44.41584" lon="0.78349">
        <ele>69</ele>
        <time>2012-09-09T06:06:54Z</time>
      </trkpt>
      <trkpt lat="44.41597" lon="0.78313">
        <ele>69</ele>
        <time>2012-09-09T06:06:59Z</time>
      </trkpt>
      <trkpt lat="44.41605" lon="0.78275">
        <ele>70</ele>
        <time>2012-09-09T06:07:04Z</time>
      </trkpt>
      <trkpt lat="44.41612" lon="0.78231">
        <ele>70</ele>
        <time>2012-09-09T06:07:09Z</time>
      </trkpt>
      <trkpt lat="44.41625" lon="0.78203">
        <ele>71</ele>
        <time>2012-09-09T06:07:14Z</time>
      </trkpt>
      <trkpt lat="44.41654" lon="0.78197">
        <ele>71</ele>
        <time>2012-09-09T06:07:19Z</time>
      </trkpt>
      <trkpt lat="44.41685" lon="0.78191">
        <ele>72</ele>
        <time>2012-09-09T06:07:24Z</time>
      </trkpt>
      <trkpt lat="44.41715" lon="0.78186">
        <ele>72</ele>
        <time>2012-09-09T06:07:29Z</time>
      </trkpt>
      <trkpt lat="44.41742" lon="0.78181">
        <ele>73</ele>
        <time>2012-09-09T06:07:34Z</time>
      </trkpt>
      <trkpt lat="44.41766" lon="0.78177">
        <ele>74</ele>
        <time>2012-09-09T06:07:39Z</time>
      </trkpt>
      <trkpt lat="44.41791" lon="0.78173">
        <ele>75</ele>
        <time>2012-09-09T06:07:44Z</time>
      </trkpt>
      <trkpt lat="44.41816" lon="0.78167">
        <ele>77</ele>
        <time>2012-09-09T06:07:49Z</time>
      </trkpt>
      <trkpt lat="44.41841" lon="0.78161">
        <ele>79</ele>
        <time>2012-09-09T06:07:54Z</time>
      </trkpt>
      <trkpt lat="44.41865" lon="0.78157">
        <ele>80</ele>
        <time>2012-09-09T06:07:59Z</time>
      </trkpt>
      <trkpt lat="44.4189" lon="0.78154">
        <ele>81</ele>
        <time>2012-09-09T06:08:04Z</time>
      </trkpt>
      <trkpt lat="44.41914" lon="0.78152">
        <ele>83</ele>
        <time>2012-09-09T06:08:09Z</time>
      </trkpt>
      <trkpt lat="44.41938" lon="0.78152">
        <ele>84</ele>
        <time>2012-09-09T06:08:14Z</time>
      </trkpt>
      <trkpt lat="44.41962" lon="0.78154">
        <ele>85</ele>
        <time>2012-09-09T06:08:19Z</time>
      </trkpt>
      <trkpt lat="44.41986" lon="0.78153">
        <ele>87</ele>
        <time>2012-09-09T06:08:24Z</time>
      </trkpt>
      <trkpt lat="44.4201" lon="0.7815">
        <ele>87</ele>
        <time>2012-09-09T06:08:29Z</time>
      </trkpt>
      <trkpt lat="44.42034" lon="0.78147">
        <ele>88</ele>
        <time>2012-09-09T06:08:34Z</time>
      </trkpt>
      <trkpt lat="44.42058" lon="0.78142">
        <ele>88</ele>
        <time>2012-09-09T06:08:39Z</time>
      </trkpt>
      <trkpt lat="44.42081" lon="0.78136">
        <ele>89</ele>
        <time>2012-09-09T06:08:44Z</time>
      </trkpt>
      <trkpt lat="44.42105" lon="0.78129">
        <ele>89</ele>
        <time>2012-09-09T06:08:49Z</time>
      </trkpt>
      <trkpt lat="44.4213" lon="0.78122">
        <ele>89</ele>
        <time>2012-09-09T06:08:54Z</time>
      </trkpt>
      <trkpt lat="44.42155" lon="0.78117">
        <ele>89</ele>
        <time>2012-09-09T06:08:59Z</time>
      </trkpt>
      <trkpt lat="44.42184" lon="0.78106">
        <ele>89</ele>
        <time>2012-09-09T06:09:04Z</time>
      </trkpt>
      <trkpt lat="44.42211" lon="0.78084">
        <ele>89</ele>
        <time>2012-09-09T06:09:09Z</time>
      </trkpt>
      <trkpt lat="44.4224" lon="0.78055">
        <ele>89</ele>
        <time>2012-09-09T06:09:14Z</time>
      </trkpt>
      <trkpt lat="44.42273" lon="0.78044">
        <ele>89</ele>
        <time>2012-09-09T06:09:19Z</time>
      </trkpt>
      <trkpt lat="44.423" lon="0.78049">
        <ele>89</ele>
        <time>2012-09-09T06:09:24Z</time>
      </trkpt>
      <trkpt lat="44.42322" lon="0.78036">
        <ele>89</ele>
        <time>2012-09-09T06:09:29Z</time>
      </trkpt>
      <trkpt lat="44.42329" lon="0.78006">
        <ele>90</ele>
        <time>2012-09-09T06:09:34Z</time>
      </trkpt>
      <trkpt lat="44.42336" lon="0.77978">
        <ele>91</ele>
        <time>2012-09-09T06:09:39Z</time>
      </trkpt>
      <trkpt lat="44.42342" lon="0.7795">
        <ele>91</ele>
        <time>2012-09-09T06:09:44Z</time>
      </trkpt>
      <trkpt lat="44.4235" lon="0.77922">
        <ele>91</ele>
        <time>2012-09-09T06:09:49Z</time>
      </trkpt>
      <trkpt lat="44.4236" lon="0.77895">
        <ele>91</ele>
        <time>2012-09-09T06:09:54Z</time>
      </trkpt>
      <trkpt lat="44.42371" lon="0.77868">
        <ele>93</ele>
        <time>2012-09-09T06:09:59Z</time>
      </trkpt>
      <trkpt lat="44.42382" lon="0.77846">
        <ele>96</ele>
        <time>2012-09-09T06:10:04Z</time>
      </trkpt>
      <trkpt lat="44.42392" lon="0.77824">
        <ele>98</ele>
        <time>2012-09-09T06:10:09Z</time>
      </trkpt>
      <trkpt lat="44.42403" lon="0.77802">
        <ele>99</ele>
        <time>2012-09-09T06:10:14Z</time>
      </trkpt>
      <trkpt lat="44.42414" lon="0.77781">
        <ele>99</ele>
        <time>2012-09-09T06:10:19Z</time>
      </trkpt>
      <trkpt lat="44.42423" lon="0.7776">
        <ele>99</ele>
        <time>2012-09-09T06:10:24Z</time>
      </trkpt>
      <trkpt lat="44.42433" lon="0.77741">
        <ele>102</ele>
        <time>2012-09-09T06:10:29Z</time>
      </trkpt>
      <trkpt lat="44.42442" lon="0.77723">
        <ele>103</ele>
        <time>2012-09-09T06:10:34Z</time>
      </trkpt>
      <trkpt lat="44.42452" lon="0.77704">
        <ele>105</ele>
        <time>2012-09-09T06:10:39Z</time>
      </trkpt>
      <trkpt lat="44.42462" lon="0.77685">
        <ele>107</ele>
        <time>2012-09-09T06:10:44Z</time>
      </trkpt>
      <trkpt lat="44.42471" lon="0.77669">
        <ele>109</ele>
        <time>2012-09-09T06:10:49Z</time>
      </trkpt>
      <trkpt lat="44.42482" lon="0.7765">
        <ele>110</ele>
        <time>2012-09-09T06:10:54Z</time>
      </trkpt>
      <trkpt lat="44.42495" lon="0.77627">
        <ele>111</ele>
        <time>2012-09-09T06:10:59Z</time>
      </trkpt>
      <trkpt lat="44.42506" lon="0.77607">
        <ele>112</ele>
        <time>2012-09-09T06:11:04Z</time>
      </trkpt>
      <trkpt lat="44.42516" lon="0.77587">
        <ele>113</ele>
        <time>2012-09-09T06:11:09Z</time>
      </trkpt>
      <trkpt lat="44.42529" lon="0.77567">
        <ele>114</ele>
        <time>2012-09-09T06:11:14Z</time>
      </trkpt>
      <trkpt lat="44.42541" lon="0.77547">
        <ele>114</ele>
        <time>2012-09-09T06:11:19Z</time>
      </trkpt>
      <trkpt lat="44.42553" lon="0.77523">
        <ele>116</ele>
        <time>2012-09-09T06:11:24Z</time>
      </trkpt>
      <trkpt lat="44.42565" lon="0.77502">
        <ele>117</ele>
        <time>2012-09-09T06:11:29Z</time>
      </trkpt>
      <trkpt lat="44.42577" lon="0.7748">
        <ele>118</ele>
        <time>2012-09-09T06:11:34Z</time>
      </trkpt>
      <trkpt lat="44.42589" lon="0.77458">
        <ele>123</ele>
        <time>2012-09-09T06:11:39Z</time>
      </trkpt>
      <trkpt lat="44.426" lon="0.77439">
        <ele>128</ele>
        <time>2012-09-09T06:11:44Z</time>
      </trkpt>
      <trkpt lat="44.42612" lon="0.7742">
        <ele>133</ele>
        <time>2012-09-09T06:11:49Z</time>
      </trkpt>
      <trkpt lat="44.42624" lon="0.77402">
        <ele>133</ele>
        <time>2012-09-09T06:11:54Z</time>
      </trkpt>
      <trkpt lat="44.42619" lon="0.77384">
        <ele>133</ele>
        <time>2012-09-09T06:11:59Z</time>
      </trkpt>
      <trkpt lat="44.42598" lon="0.77362">
        <ele>131</ele>
        <time>2012-09-09T06:12:04Z</time>
      </trkpt>
      <trkpt lat="44.4258" lon="0.77347">
        <ele>128</ele>
        <time>2012-09-09T06:12:09Z</time>
      </trkpt>
      <trkpt lat="44.42561" lon="0.77328">
        <ele>124</ele>
        <time>2012-09-09T06:12:14Z</time>
      </trkpt>
      <trkpt lat="44.42549" lon="0.77311">
        <ele>124</ele>
        <time>2012-09-09T06:12:19Z</time>
      </trkpt>
      <trkpt lat="44.42539" lon="0.77292">
        <ele>124</ele>
        <time>2012-09-09T06:12:24Z</time>
      </trkpt>
      <trkpt lat="44.42529" lon="0.77275">
        <ele>124</ele>
        <time>2012-09-09T06:12:29Z</time>
      </trkpt>
      <trkpt lat="44.4252" lon="0.77259">
        <ele>125</ele>
        <time>2012-09-09T06:12:34Z</time>
      </trkpt>
      <trkpt lat="44.42512" lon="0.77245">
        <ele>126</ele>
        <time>2012-09-09T06:12:39Z</time>
      </trkpt>
      <trkpt lat="44.42504" lon="0.77227">
        <ele>131</ele>
        <time>2012-09-09T06:12:44Z</time>
      </trkpt>
      <trkpt lat="44.42496" lon="0.77214">
        <ele>133</ele>
        <time>2012-09-09T06:12:49Z</time>
      </trkpt>
      <trkpt lat="44.42504" lon="0.772">
        <ele>133</ele>
        <time>2012-09-09T06:12:54Z</time>
      </trkpt>
      <trkpt lat="44.42523" lon="0.77196">
        <ele>133</ele>
        <time>2012-09-09T06:12:59Z</time>
      </trkpt>
      <trkpt lat="44.42541" lon="0.77189">
        <ele>133</ele>
        <time>2012-09-09T06:13:04Z</time>
      </trkpt>
      <trkpt lat="44.42558" lon="0.77182">
        <ele>133</ele>
        <time>2012-09-09T06:13:09Z</time>
      </trkpt>
      <trkpt lat="44.42577" lon="0.77172">
        <ele>133</ele>
        <time>2012-09-09T06:13:14Z</time>
      </trkpt>
      <trkpt lat="44.42594" lon="0.77163">
        <ele>133</ele>
        <time>2012-09-09T06:13:19Z</time>
      </trkpt>
      <trkpt lat="44.42611" lon="0.77153">
        <ele>133</ele>
        <time>2012-09-09T06:13:24Z</time>
      </trkpt>
      <trkpt lat="44.42629" lon="0.77144">
        <ele>133</ele>
        <time>2012-09-09T06:13:29Z</time>
      </trkpt>
      <trkpt lat="44.42646" lon="0.77135">
        <ele>133</ele>
        <time>2012-09-09T06:13:34Z</time>
      </trkpt>
      <trkpt lat="44.42663" lon="0.77127">
        <ele>133</ele>
        <time>2012-09-09T06:13:39Z</time>
      </trkpt>
      <trkpt lat="44.42678" lon="0.77116">
        <ele>133</ele>
        <time>2012-09-09T06:13:44Z</time>
      </trkpt>
      <trkpt lat="44.42676" lon="0.77091">
        <ele>134</ele>
        <time>2012-09-09T06:13:49Z</time>
      </trkpt>
      <trkpt lat="44.42672" lon="0.77065">
        <ele>134</ele>
        <time>2012-09-09T06:13:54Z</time>
      </trkpt>
      <trkpt lat="44.42665" lon="0.77033">
        <ele>134</ele>
        <time>2012-09-09T06:13:59Z</time>
      </trkpt>
      <trkpt lat="44.42654" lon="0.77002">
        <ele>134</ele>
        <time>2012-09-09T06:14:04Z</time>
      </trkpt>
      <trkpt lat="44.42659" lon="0.76962">
        <ele>134</ele>
        <time>2012-09-09T06:14:09Z</time>
      </trkpt>
      <trkpt lat="44.42669" lon="0.76917">
        <ele>134</ele>
        <time>2012-09-09T06:14:14Z</time>
      </trkpt>
      <trkpt lat="44.4268" lon="0.76877">
        <ele>134</ele>
        <time>2012-09-09T06:14:19Z</time>
      </trkpt>
      <trkpt lat="44.42688" lon="0.76841">
        <ele>134</ele>
        <time>2012-09-09T06:14:24Z</time>
      </trkpt>
      <trkpt lat="44.42694" lon="0.76813">
        <ele>134</ele>
        <time>2012-09-09T06:14:29Z</time>
      </trkpt>
      <trkpt lat="44.42698" lon="0.76782">
        <ele>134</ele>
        <time>2012-09-09T06:14:34Z</time>
      </trkpt>
      <trkpt lat="44.42711" lon="0.76756">
        <ele>134</ele>
        <time>2012-09-09T06:14:39Z</time>
      </trkpt>
      <trkpt lat="44.42726" lon="0.76751">
        <ele>134</ele>
        <time>2012-09-09T06:14:44Z</time>
      </trkpt>
      <trkpt lat="44.42741" lon="0.76752">
        <ele>136</ele>
        <time>2012-09-09T06:14:49Z</time>
      </trkpt>
      <trkpt lat="44.42756" lon="0.76751">
        <ele>139</ele>
        <time>2012-09-09T06:14:54Z</time>
      </trkpt>
      <trkpt lat="44.42763" lon="0.76736">
        <ele>141</ele>
        <time>2012-09-09T06:14:59Z</time>
      </trkpt>
      <trkpt lat="44.42763" lon="0.76717">
        <ele>141</ele>
        <time>2012-09-09T06:15:04Z</time>
      </trkpt>
      <trkpt lat="44.4276" lon="0.76698">
        <ele>141</ele>
        <time>2012-09-09T06:15:09Z</time>
      </trkpt>
      <trkpt lat="44.42758" lon="0.76687">
        <ele>141</ele>
        <time>2012-09-09T06:15:14Z</time>
      </trkpt>
      <trkpt lat="44.42757" lon="0.76674">
        <ele>141</ele>
        <time>2012-09-09T06:15:19Z</time>
      </trkpt>
      <trkpt lat="44.42756" lon="0.76658">
        <ele>141</ele>
        <time>2012-09-09T06:15:24Z</time>
      </trkpt>
      <trkpt lat="44.42755" lon="0.76644">
        <ele>141</ele>
        <time>2012-09-09T06:15:29Z</time>
      </trkpt>
      <trkpt lat="44.42764" lon="0.76633">
        <ele>141</ele>
        <time>2012-09-09T06:15:34Z</time>
      </trkpt>
      <trkpt lat="44.42774" lon="0.76628">
        <ele>146</ele>
        <time>2012-09-09T06:15:39Z</time>
      </trkpt>
      <trkpt lat="44.42783" lon="0.76625">
        <ele>151</ele>
        <time>2012-09-09T06:15:44Z</time>
      </trkpt>
      <trkpt lat="44.42791" lon="0.76623">
        <ele>154</ele>
        <time>2012-09-09T06:15:49Z</time>
      </trkpt>
      <trkpt lat="44.42799" lon="0.76617">
        <ele>158</ele>
        <time>2012-09-09T06:15:54Z</time>
      </trkpt>
      <trkpt lat="44.42804" lon="0.76611">
        <ele>159</ele>
        <time>2012-09-09T06:15:59Z</time>
      </trkpt>
      <trkpt lat="44.42806" lon="0.76599">
        <ele>159</ele>
        <time>2012-09-09T06:16:04Z</time>
      </trkpt>
      <trkpt lat="44.42805" lon="0.76587">
        <ele>157</ele>
        <time>2012-09-09T06:16:09Z</time>
      </trkpt>
      <trkpt lat="44.42804" lon="0.76573">
        <ele>155</ele>
        <time>2012-09-09T06:16:14Z</time>
      </trkpt>
      <trkpt lat="44.42807" lon="0.76543">
        <ele>152</ele>
        <time>2012-09-09T06:16:19Z</time>
      </trkpt>
      <trkpt lat="44.42813" lon="0.76508">
        <ele>152</ele>
        <time>2012-09-09T06:16:24Z</time>
      </trkpt>
      <trkpt lat="44.42811" lon="0.7648">
        <ele>152</ele>
        <time>2012-09-09T06:16:29Z</time>
      </trkpt>
      <trkpt lat="44.42779" lon="0.76464">
        <ele>152</ele>
        <time>2012-09-09T06:16:34Z</time>
      </trkpt>
      <trkpt lat="44.4271" lon="0.76433">
        <ele>145</ele>
        <time>2012-09-09T06:16:39Z</time>
      </trkpt>
      <trkpt lat="44.42655" lon="0.76411">
        <ele>135</ele>
        <time>2012-09-09T06:16:44Z</time>
      </trkpt>
      <trkpt lat="44.42604" lon="0.76385">
        <ele>127</ele>
        <time>2012-09-09T06:16:49Z</time>
      </trkpt>
      <trkpt lat="44.42552" lon="0.76366">
        <ele>122</ele>
        <time>2012-09-09T06:16:55Z</time>
      </trkpt>
      <trkpt lat="44.42486" lon="0.76339">
        <ele>112</ele>
        <time>2012-09-09T06:17:00Z</time>
      </trkpt>
      <trkpt lat="44.42424" lon="0.76315">
        <ele>105</ele>
        <time>2012-09-09T06:17:05Z</time>
      </trkpt>
      <trkpt lat="44.42386" lon="0.76291">
        <ele>99</ele>
        <time>2012-09-09T06:17:11Z</time>
      </trkpt>
      <trkpt lat="44.42364" lon="0.76269">
        <ele>94</ele>
        <time>2012-09-09T06:17:16Z</time>
      </trkpt>
      <trkpt lat="44.4235" lon="0.76234">
        <ele>89</ele>
        <time>2012-09-09T06:17:21Z</time>
      </trkpt>
      <trkpt lat="44.42332" lon="0.76206">
        <ele>85</ele>
        <time>2012-09-09T06:17:26Z</time>
      </trkpt>
      <trkpt lat="44.42317" lon="0.76178">
        <ele>85</ele>
        <time>2012-09-09T06:17:31Z</time>
      </trkpt>
      <trkpt lat="44.42308" lon="0.76148">
        <ele>87</ele>
        <time>2012-09-09T06:17:36Z</time>
      </trkpt>
      <trkpt lat="44.4231" lon="0.76117">
        <ele>92</ele>
        <time>2012-09-09T06:17:41Z</time>
      </trkpt>
      <trkpt lat="44.42313" lon="0.7606">
        <ele>93</ele>
        <time>2012-09-09T06:17:46Z</time>
      </trkpt>
      <trkpt lat="44.42317" lon="0.7602">
        <ele>93</ele>
        <time>2012-09-09T06:17:51Z</time>
      </trkpt>
      <trkpt lat="44.42303" lon="0.76002">
        <ele>93</ele>
        <time>2012-09-09T06:17:56Z</time>
      </trkpt>
      <trkpt lat="44.42297" lon="0.75968">
        <ele>88</ele>
        <time>2012-09-09T06:18:01Z</time>
      </trkpt>
      <trkpt lat="44.42302" lon="0.75945">
        <ele>88</ele>
        <time>2012-09-09T06:18:06Z</time>
      </trkpt>
      <trkpt lat="44.42292" lon="0.7593">
        <ele>89</ele>
        <time>2012-09-09T06:18:11Z</time>
      </trkpt>
      <trkpt lat="44.42272" lon="0.75931">
        <ele>89</ele>
        <time>2012-09-09T06:18:16Z</time>
      </trkpt>
      <trkpt lat="44.42267" lon="0.75906">
        <ele>89</ele>
        <time>2012-09-09T06:18:21Z</time>
      </trkpt>
      <trkpt lat="44.42266" lon="0.75884">
        <ele>90</ele>
        <time>2012-09-09T06:18:26Z</time>
      </trkpt>
      <trkpt lat="44.42264" lon="0.75848">
        <ele>90</ele>
        <time>2012-09-09T06:18:31Z</time>
      </trkpt>
      <trkpt lat="44.42268" lon="0.75827">
        <ele>90</ele>
        <time>2012-09-09T06:18:36Z</time>
      </trkpt>
      <trkpt lat="44.4225" lon="0.75829">
        <ele>90</ele>
        <time>2012-09-09T06:18:41Z</time>
      </trkpt>
      <trkpt lat="44.42231" lon="0.75831">
        <ele>90</ele>
        <time>2012-09-09T06:18:46Z</time>
      </trkpt>
      <trkpt lat="44.42215" lon="0.75831">
        <ele>90</ele>
        <time>2012-09-09T06:18:51Z</time>
      </trkpt>
      <trkpt lat="44.42201" lon="0.75823">
        <ele>90</ele>
        <time>2012-09-09T06:18:56Z</time>
      </trkpt>
      <trkpt lat="44.42187" lon="0.75816">
        <ele>90</ele>
        <time>2012-09-09T06:19:01Z</time>
      </trkpt>
      <trkpt lat="44.42172" lon="0.75809">
        <ele>90</ele>
        <time>2012-09-09T06:19:06Z</time>
      </trkpt>
      <trkpt lat="44.42156" lon="0.75804">
        <ele>90</ele>
        <time>2012-09-09T06:19:11Z</time>
      </trkpt>
      <trkpt lat="44.42141" lon="0.75797">
        <ele>91</ele>
        <time>2012-09-09T06:19:16Z</time>
      </trkpt>
      <trkpt lat="44.42128" lon="0.75791">
        <ele>94</ele>
        <time>2012-09-09T06:19:21Z</time>
      </trkpt>
      <trkpt lat="44.42115" lon="0.75787">
        <ele>96</ele>
        <time>2012-09-09T06:19:26Z</time>
      </trkpt>
      <trkpt lat="44.421" lon="0.75785">
        <ele>97</ele>
        <time>2012-09-09T06:19:31Z</time>
      </trkpt>
      <trkpt lat="44.42086" lon="0.75782">
        <ele>97</ele>
        <time>2012-09-09T06:19:36Z</time>
      </trkpt>
      <trkpt lat="44.42072" lon="0.7578">
        <ele>97</ele>
        <time>2012-09-09T06:19:41Z</time>
      </trkpt>
      <trkpt lat="44.42061" lon="0.75777">
        <ele>98</ele>
        <time>2012-09-09T06:19:46Z</time>
      </trkpt>
      <trkpt lat="44.42051" lon="0.75783">
        <ele>101</ele>
        <time>2012-09-09T06:19:51Z</time>
      </trkpt>
      <trkpt lat="44.42048" lon="0.75797">
        <ele>101</ele>
        <time>2012-09-09T06:19:56Z</time>
      </trkpt>
      <trkpt lat="44.42044" lon="0.75812">
        <ele>101</ele>
        <time>2012-09-09T06:20:01Z</time>
      </trkpt>
      <trkpt lat="44.4204" lon="0.75829">
        <ele>101</ele>
        <time>2012-09-09T06:20:06Z</time>
      </trkpt>
      <trkpt lat="44.42036" lon="0.75844">
        <ele>101</ele>
        <time>2012-09-09T06:20:11Z</time>
      </trkpt>
      <trkpt lat="44.42022" lon="0.75846">
        <ele>106</ele>
        <time>2012-09-09T06:20:16Z</time>
      </trkpt>
      <trkpt lat="44.42007" lon="0.75846">
        <ele>107</ele>
        <time>2012-09-09T06:20:21Z</time>
      </trkpt>
      <trkpt lat="44.41994" lon="0.75845">
        <ele>107</ele>
        <time>2012-09-09T06:20:26Z</time>
      </trkpt>
      <trkpt lat="44.41984" lon="0.75842">
        <ele>107</ele>
        <time>2012-09-09T06:20:31Z</time>
      </trkpt>
      <trkpt lat="44.41977" lon="0.7584">
        <ele>107</ele>
        <time>2012-09-09T06:20:36Z</time>
      </trkpt>
      <trkpt lat="44.41967" lon="0.75836">
        <ele>108</ele>
        <time>2012-09-09T06:20:41Z</time>
      </trkpt>
      <trkpt lat="44.41957" lon="0.75833">
        <ele>110</ele>
        <time>2012-09-09T06:20:46Z</time>
      </trkpt>
      <trkpt lat="44.41948" lon="0.7583">
        <ele>112</ele>
        <time>2012-09-09T06:20:51Z</time>
      </trkpt>
      <trkpt lat="44.41939" lon="0.75827">
        <ele>115</ele>
        <time>2012-09-09T06:20:56Z</time>
      </trkpt>
      <trkpt lat="44.41929" lon="0.75826">
        <ele>117</ele>
        <time>2012-09-09T06:21:01Z</time>
      </trkpt>
      <trkpt lat="44.41921" lon="0.75826">
        <ele>120</ele>
        <time>2012-09-09T06:21:06Z</time>
      </trkpt>
      <trkpt lat="44.41909" lon="0.7582">
        <ele>122</ele>
        <time>2012-09-09T06:21:11Z</time>
      </trkpt>
      <trkpt lat="44.419" lon="0.75797">
        <ele>123</ele>
        <time>2012-09-09T06:21:16Z</time>
      </trkpt>
      <trkpt lat="44.41895" lon="0.75774">
        <ele>123</ele>
        <time>2012-09-09T06:21:21Z</time>
      </trkpt>
      <trkpt lat="44.41894" lon="0.75748">
        <ele>122</ele>
        <time>2012-09-09T06:21:26Z</time>
      </trkpt>
      <trkpt lat="44.41899" lon="0.75714">
        <ele>121</ele>
        <time>2012-09-09T06:21:31Z</time>
      </trkpt>
      <trkpt lat="44.41913" lon="0.75682">
        <ele>124</ele>
        <time>2012-09-09T06:21:36Z</time>
      </trkpt>
      <trkpt lat="44.41924" lon="0.75645">
        <ele>124</ele>
        <time>2012-09-09T06:21:41Z</time>
      </trkpt>
      <trkpt lat="44.41934" lon="0.75605">
        <ele>124</ele>
        <time>2012-09-09T06:21:46Z</time>
      </trkpt>
      <trkpt lat="44.41943" lon="0.75561">
        <ele>122</ele>
        <time>2012-09-09T06:21:51Z</time>
      </trkpt>
      <trkpt lat="44.41944" lon="0.75508">
        <ele>119</ele>
        <time>2012-09-09T06:21:56Z</time>
      </trkpt>
      <trkpt lat="44.41948" lon="0.75463">
        <ele>116</ele>
        <time>2012-09-09T06:22:01Z</time>
      </trkpt>
      <trkpt lat="44.41969" lon="0.75457">
        <ele>114</ele>
        <time>2012-09-09T06:22:06Z</time>
      </trkpt>
      <trkpt lat="44.41994" lon="0.75462">
        <ele>114</ele>
        <time>2012-09-09T06:22:11Z</time>
      </trkpt>
      <trkpt lat="44.42009" lon="0.75435">
        <ele>111</ele>
        <time>2012-09-09T06:22:16Z</time>
      </trkpt>
      <trkpt lat="44.42025" lon="0.75386">
        <ele>109</ele>
        <time>2012-09-09T06:22:21Z</time>
      </trkpt>
      <trkpt lat="44.42045" lon="0.75343">
        <ele>105</ele>
        <time>2012-09-09T06:22:26Z</time>
      </trkpt>
      <trkpt lat="44.4207" lon="0.75307">
        <ele>101</ele>
        <time>2012-09-09T06:22:31Z</time>
      </trkpt>
      <trkpt lat="44.42092" lon="0.75293">
        <ele>98</ele>
        <time>2012-09-09T06:22:36Z</time>
      </trkpt>
      <trkpt lat="44.42097" lon="0.75292">
        <ele>97</ele>
        <time>2012-09-09T06:22:46Z</time>
      </trkpt>
      <trkpt lat="44.42114" lon="0.75282">
        <ele>97</ele>
        <time>2012-09-09T06:22:51Z</time>
      </trkpt>
      <trkpt lat="44.42147" lon="0.75273">
        <ele>95</ele>
        <time>2012-09-09T06:22:56Z</time>
      </trkpt>
      <trkpt lat="44.42184" lon="0.75264">
        <ele>91</ele>
        <time>2012-09-09T06:23:01Z</time>
      </trkpt>
      <trkpt lat="44.42216" lon="0.75257">
        <ele>86</ele>
        <time>2012-09-09T06:23:06Z</time>
      </trkpt>
      <trkpt lat="44.42242" lon="0.75256">
        <ele>83</ele>
        <time>2012-09-09T06:23:11Z</time>
      </trkpt>
      <trkpt lat="44.42272" lon="0.75253">
        <ele>79</ele>
        <time>2012-09-09T06:23:16Z</time>
      </trkpt>
      <trkpt lat="44.42303" lon="0.75253">
        <ele>78</ele>
        <time>2012-09-09T06:23:21Z</time>
      </trkpt>
      <trkpt lat="44.42325" lon="0.75254">
        <ele>78</ele>
        <time>2012-09-09T06:23:26Z</time>
      </trkpt>
      <trkpt lat="44.42346" lon="0.75258">
        <ele>78</ele>
        <time>2012-09-09T06:23:31Z</time>
      </trkpt>
      <trkpt lat="44.42348" lon="0.7528">
        <ele>78</ele>
        <time>2012-09-09T06:23:36Z</time>
      </trkpt>
      <trkpt lat="44.42344" lon="0.75308">
        <ele>75</ele>
        <time>2012-09-09T06:23:41Z</time>
      </trkpt>
      <trkpt lat="44.42339" lon="0.75335">
        <ele>74</ele>
        <time>2012-09-09T06:23:46Z</time>
      </trkpt>
      <trkpt lat="44.42336" lon="0.75365">
        <ele>74</ele>
        <time>2012-09-09T06:23:51Z</time>
      </trkpt>
      <trkpt lat="44.42331" lon="0.754">
        <ele>74</ele>
        <time>2012-09-09T06:23:56Z</time>
      </trkpt>
      <trkpt lat="44.42329" lon="0.75432">
        <ele>74</ele>
        <time>2012-09-09T06:24:01Z</time>
      </trkpt>
      <trkpt lat="44.42327" lon="0.75462">
        <ele>74</ele>
        <time>2012-09-09T06:24:06Z</time>
      </trkpt>
      <trkpt lat="44.42325" lon="0.75492">
        <ele>74</ele>
        <time>2012-09-09T06:24:11Z</time>
      </trkpt>
      <trkpt lat="44.4233" lon="0.75526">
        <ele>74</ele>
        <time>2012-09-09T06:24:16Z</time>
      </trkpt>
      <trkpt lat="44.42339" lon="0.75553">
        <ele>76</ele>
        <time>2012-09-09T06:24:21Z</time>
      </trkpt>
      <trkpt lat="44.42349" lon="0.75584">
        <ele>78</ele>
        <time>2012-09-09T06:24:26Z</time>
      </trkpt>
      <trkpt lat="44.42355" lon="0.75623">
        <ele>78</ele>
        <time>2012-09-09T06:24:31Z</time>
      </trkpt>
      <trkpt lat="44.42361" lon="0.75662">
        <ele>78</ele>
        <time>2012-09-09T06:24:36Z</time>
      </trkpt>
      <trkpt lat="44.42361" lon="0.75686">
        <ele>78</ele>
        <time>2012-09-09T06:24:41Z</time>
      </trkpt>
      <trkpt lat="44.42379" lon="0.75682">
        <ele>81</ele>
        <time>2012-09-09T06:24:46Z</time>
      </trkpt>
      <trkpt lat="44.42405" lon="0.75677">
        <ele>83</ele>
        <time>2012-09-09T06:24:51Z</time>
      </trkpt>
      <trkpt lat="44.42429" lon="0.75669">
        <ele>86</ele>
        <time>2012-09-09T06:24:56Z</time>
      </trkpt>
      <trkpt lat="44.42451" lon="0.75665">
        <ele>91</ele>
        <time>2012-09-09T06:25:01Z</time>
      </trkpt>
      <trkpt lat="44.42469" lon="0.75658">
        <ele>96</ele>
        <time>2012-09-09T06:25:06Z</time>
      </trkpt>
      <trkpt lat="44.42483" lon="0.75656">
        <ele>101</ele>
        <time>2012-09-09T06:25:11Z</time>
      </trkpt>
      <trkpt lat="44.42501" lon="0.75655">
        <ele>105</ele>
        <time>2012-09-09T06:25:16Z</time>
      </trkpt>
      <trkpt lat="44.4252" lon="0.75653">
        <ele>107</ele>
        <time>2012-09-09T06:25:21Z</time>
      </trkpt>
      <trkpt lat="44.42539" lon="0.7565">
        <ele>109</ele>
        <time>2012-09-09T06:25:26Z</time>
      </trkpt>
      <trkpt lat="44.42559" lon="0.75652">
        <ele>112</ele>
        <time>2012-09-09T06:25:31Z</time>
      </trkpt>
      <trkpt lat="44.42577" lon="0.75654">
        <ele>114</ele>
        <time>2012-09-09T06:25:36Z</time>
      </trkpt>
      <trkpt lat="44.42593" lon="0.75655">
        <ele>115</ele>
        <time>2012-09-09T06:25:41Z</time>
      </trkpt>
      <trkpt lat="44.42603" lon="0.75659">
        <ele>115</ele>
        <time>2012-09-09T06:25:46Z</time>
      </trkpt>
      <trkpt lat="44.42614" lon="0.75661">
        <ele>116</ele>
        <time>2012-09-09T06:25:51Z</time>
      </trkpt>
      <trkpt lat="44.42626" lon="0.75663">
        <ele>117</ele>
        <time>2012-09-09T06:25:56Z</time>
      </trkpt>
      <trkpt lat="44.42639" lon="0.75667">
        <ele>117</ele>
        <time>2012-09-09T06:26:01Z</time>
      </trkpt>
      <trkpt lat="44.42651" lon="0.75669">
        <ele>117</ele>
        <time>2012-09-09T06:26:06Z</time>
      </trkpt>
      <trkpt lat="44.42666" lon="0.75667">
        <ele>117</ele>
        <time>2012-09-09T06:26:11Z</time>
      </trkpt>
      <trkpt lat="44.42683" lon="0.75662">
        <ele>117</ele>
        <time>2012-09-09T06:26:16Z</time>
      </trkpt>
      <trkpt lat="44.42714" lon="0.75653">
        <ele>114</ele>
        <time>2012-09-09T06:26:21Z</time>
      </trkpt>
      <trkpt lat="44.42751" lon="0.75645">
        <ele>109</ele>
        <time>2012-09-09T06:26:26Z</time>
      </trkpt>
      <trkpt lat="44.42781" lon="0.75637">
        <ele>108</ele>
        <time>2012-09-09T06:26:31Z</time>
      </trkpt>
      <trkpt lat="44.42806" lon="0.75627">
        <ele>108</ele>
        <time>2012-09-09T06:26:36Z</time>
      </trkpt>
      <trkpt lat="44.42828" lon="0.75615">
        <ele>108</ele>
        <time>2012-09-09T06:26:41Z</time>
      </trkpt>
      <trkpt lat="44.42846" lon="0.75604">
        <ele>108</ele>
        <time>2012-09-09T06:26:46Z</time>
      </trkpt>
      <trkpt lat="44.42865" lon="0.7559">
        <ele>109</ele>
        <time>2012-09-09T06:26:52Z</time>
      </trkpt>
      <trkpt lat="44.42882" lon="0.75581">
        <ele>110</ele>
        <time>2012-09-09T06:26:57Z</time>
      </trkpt>
      <trkpt lat="44.42903" lon="0.75567">
        <ele>113</ele>
        <time>2012-09-09T06:27:03Z</time>
      </trkpt>
      <trkpt lat="44.4292" lon="0.75557">
        <ele>117</ele>
        <time>2012-09-09T06:27:08Z</time>
      </trkpt>
      <trkpt lat="44.42936" lon="0.75553">
        <ele>119</ele>
        <time>2012-09-09T06:27:13Z</time>
      </trkpt>
      <trkpt lat="44.42964" lon="0.75546">
        <ele>119</ele>
        <time>2012-09-09T06:27:18Z</time>
      </trkpt>
      <trkpt lat="44.42978" lon="0.75537">
        <ele>119</ele>
        <time>2012-09-09T06:27:24Z</time>
      </trkpt>
      <trkpt lat="44.42983" lon="0.7552">
        <ele>119</ele>
        <time>2012-09-09T06:27:29Z</time>
      </trkpt>
      <trkpt lat="44.42992" lon="0.75496">
        <ele>119</ele>
        <time>2012-09-09T06:27:34Z</time>
      </trkpt>
      <trkpt lat="44.43005" lon="0.7547">
        <ele>118</ele>
        <time>2012-09-09T06:27:39Z</time>
      </trkpt>
      <trkpt lat="44.43022" lon="0.75439">
        <ele>116</ele>
        <time>2012-09-09T06:27:45Z</time>
      </trkpt>
      <trkpt lat="44.43045" lon="0.75414">
        <ele>113</ele>
        <time>2012-09-09T06:27:50Z</time>
      </trkpt>
      <trkpt lat="44.43072" lon="0.75389">
        <ele>110</ele>
        <time>2012-09-09T06:27:55Z</time>
      </trkpt>
      <trkpt lat="44.43102" lon="0.75361">
        <ele>105</ele>
        <time>2012-09-09T06:28:01Z</time>
      </trkpt>
      <trkpt lat="44.4312" lon="0.75348">
        <ele>103</ele>
        <time>2012-09-09T06:28:06Z</time>
      </trkpt>
      <trkpt lat="44.43133" lon="0.75316">
        <ele>101</ele>
        <time>2012-09-09T06:28:12Z</time>
      </trkpt>
      <trkpt lat="44.43149" lon="0.75285">
        <ele>101</ele>
        <time>2012-09-09T06:28:17Z</time>
      </trkpt>
      <trkpt lat="44.43164" lon="0.75271">
        <ele>101</ele>
        <time>2012-09-09T06:28:22Z</time>
      </trkpt>
      <trkpt lat="44.43171" lon="0.75252">
        <ele>99</ele>
        <time>2012-09-09T06:28:28Z</time>
      </trkpt>
      <trkpt lat="44.43176" lon="0.75235">
        <ele>98</ele>
        <time>2012-09-09T06:28:33Z</time>
      </trkpt>
      <trkpt lat="44.43163" lon="0.75226">
        <ele>97</ele>
        <time>2012-09-09T06:28:38Z</time>
      </trkpt>
      <trkpt lat="44.43145" lon="0.75214">
        <ele>94</ele>
        <time>2012-09-09T06:28:44Z</time>
      </trkpt>
      <trkpt lat="44.43142" lon="0.75194">
        <ele>93</ele>
        <time>2012-09-09T06:28:49Z</time>
      </trkpt>
      <trkpt lat="44.43159" lon="0.75169">
        <ele>93</ele>
        <time>2012-09-09T06:28:54Z</time>
      </trkpt>
      <trkpt lat="44.43171" lon="0.75147">
        <ele>93</ele>
        <time>2012-09-09T06:28:59Z</time>
      </trkpt>
      <trkpt lat="44.43189" lon="0.75124">
        <ele>93</ele>
        <time>2012-09-09T06:29:04Z</time>
      </trkpt>
      <trkpt lat="44.43208" lon="0.75098">
        <ele>93</ele>
        <time>2012-09-09T06:29:09Z</time>
      </trkpt>
      <trkpt lat="44.43224" lon="0.75073">
        <ele>93</ele>
        <time>2012-09-09T06:29:14Z</time>
      </trkpt>
      <trkpt lat="44.43241" lon="0.75049">
        <ele>93</ele>
        <time>2012-09-09T06:29:19Z</time>
      </trkpt>
      <trkpt lat="44.43256" lon="0.75025">
        <ele>93</ele>
        <time>2012-09-09T06:29:24Z</time>
      </trkpt>
      <trkpt lat="44.43273" lon="0.74999">
        <ele>93</ele>
        <time>2012-09-09T06:29:29Z</time>
      </trkpt>
      <trkpt lat="44.4329" lon="0.74979">
        <ele>93</ele>
        <time>2012-09-09T06:29:34Z</time>
      </trkpt>
      <trkpt lat="44.4331" lon="0.74987">
        <ele>92</ele>
        <time>2012-09-09T06:29:39Z</time>
      </trkpt>
      <trkpt lat="44.43329" lon="0.75001">
        <ele>91</ele>
        <time>2012-09-09T06:29:44Z</time>
      </trkpt>
      <trkpt lat="44.43347" lon="0.75016">
        <ele>91</ele>
        <time>2012-09-09T06:29:49Z</time>
      </trkpt>
      <trkpt lat="44.43367" lon="0.75024">
        <ele>91</ele>
        <time>2012-09-09T06:29:54Z</time>
      </trkpt>
      <trkpt lat="44.43386" lon="0.75005">
        <ele>91</ele>
        <time>2012-09-09T06:29:59Z</time>
      </trkpt>
      <trkpt lat="44.43405" lon="0.74985">
        <ele>91</ele>
        <time>2012-09-09T06:30:04Z</time>
      </trkpt>
      <trkpt lat="44.43422" lon="0.74968">
        <ele>91</ele>
        <time>2012-09-09T06:30:09Z</time>
      </trkpt>
      <trkpt lat="44.43438" lon="0.74952">
        <ele>91</ele>
        <time>2012-09-09T06:30:14Z</time>
      </trkpt>
      <trkpt lat="44.43454" lon="0.74937">
        <ele>91</ele>
        <time>2012-09-09T06:30:19Z</time>
      </trkpt>
      <trkpt lat="44.43472" lon="0.74922">
        <ele>91</ele>
        <time>2012-09-09T06:30:24Z</time>
      </trkpt>
      <trkpt lat="44.43489" lon="0.74907">
        <ele>92</ele>
        <time>2012-09-09T06:30:29Z</time>
      </trkpt>
      <trkpt lat="44.43506" lon="0.74892">
        <ele>93</ele>
        <time>2012-09-09T06:30:34Z</time>
      </trkpt>
      <trkpt lat="44.43522" lon="0.74877">
        <ele>96</ele>
        <time>2012-09-09T06:30:39Z</time>
      </trkpt>
      <trkpt lat="44.43539" lon="0.74863">
        <ele>97</ele>
        <time>2012-09-09T06:30:44Z</time>
      </trkpt>
      <trkpt lat="44.43552" lon="0.74849">
        <ele>98</ele>
        <time>2012-09-09T06:30:49Z</time>
      </trkpt>
      <trkpt lat="44.43562" lon="0.74828">
        <ele>98</ele>
        <time>2012-09-09T06:30:55Z</time>
      </trkpt>
      <trkpt lat="44.4357" lon="0.748">
        <ele>98</ele>
        <time>2012-09-09T06:31:00Z</time>
      </trkpt>
      <trkpt lat="44.43577" lon="0.7477">
        <ele>98</ele>
        <time>2012-09-09T06:31:05Z</time>
      </trkpt>
      <trkpt lat="44.43581" lon="0.74736">
        <ele>97</ele>
        <time>2012-09-09T06:31:10Z</time>
      </trkpt>
      <trkpt lat="44.43585" lon="0.74699">
        <ele>95</ele>
        <time>2012-09-09T06:31:15Z</time>
      </trkpt>
      <trkpt lat="44.43589" lon="0.7466">
        <ele>92</ele>
        <time>2012-09-09T06:31:20Z</time>
      </trkpt>
      <trkpt lat="44.43604" lon="0.74646">
        <ele>90</ele>
        <time>2012-09-09T06:31:25Z</time>
      </trkpt>
      <trkpt lat="44.43621" lon="0.74658">
        <ele>89</ele>
        <time>2012-09-09T06:31:30Z</time>
      </trkpt>
      <trkpt lat="44.43636" lon="0.74671">
        <ele>89</ele>
        <time>2012-09-09T06:31:35Z</time>
      </trkpt>
      <trkpt lat="44.43652" lon="0.74687">
        <ele>90</ele>
        <time>2012-09-09T06:31:40Z</time>
      </trkpt>
      <trkpt lat="44.43664" lon="0.747">
        <ele>93</ele>
        <time>2012-09-09T06:31:45Z</time>
      </trkpt>
      <trkpt lat="44.43677" lon="0.74714">
        <ele>96</ele>
        <time>2012-09-09T06:31:50Z</time>
      </trkpt>
      <trkpt lat="44.43691" lon="0.74726">
        <ele>98</ele>
        <time>2012-09-09T06:31:55Z</time>
      </trkpt>
      <trkpt lat="44.43704" lon="0.74742">
        <ele>99</ele>
        <time>2012-09-09T06:32:00Z</time>
      </trkpt>
      <trkpt lat="44.43716" lon="0.74758">
        <ele>102</ele>
        <time>2012-09-09T06:32:05Z</time>
      </trkpt>
      <trkpt lat="44.43726" lon="0.74769">
        <ele>103</ele>
        <time>2012-09-09T06:32:10Z</time>
      </trkpt>
      <trkpt lat="44.43734" lon="0.7478">
        <ele>105</ele>
        <time>2012-09-09T06:32:15Z</time>
      </trkpt>
      <trkpt lat="44.43742" lon="0.74787">
        <ele>108</ele>
        <time>2012-09-09T06:32:20Z</time>
      </trkpt>
      <trkpt lat="44.43749" lon="0.74794">
        <ele>110</ele>
        <time>2012-09-09T06:32:25Z</time>
      </trkpt>
      <trkpt lat="44.43757" lon="0.74801">
        <ele>113</ele>
        <time>2012-09-09T06:32:30Z</time>
      </trkpt>
      <trkpt lat="44.43765" lon="0.7481">
        <ele>115</ele>
        <time>2012-09-09T06:32:35Z</time>
      </trkpt>
      <trkpt lat="44.43774" lon="0.74818">
        <ele>118</ele>
        <time>2012-09-09T06:32:40Z</time>
      </trkpt>
      <trkpt lat="44.43783" lon="0.74825">
        <ele>119</ele>
        <time>2012-09-09T06:32:45Z</time>
      </trkpt>
      <trkpt lat="44.43785" lon="0.74838">
        <ele>119</ele>
        <time>2012-09-09T06:32:50Z</time>
      </trkpt>
      <trkpt lat="44.43784" lon="0.74852">
        <ele>119</ele>
        <time>2012-09-09T06:32:55Z</time>
      </trkpt>
      <trkpt lat="44.43792" lon="0.74862">
        <ele>119</ele>
        <time>2012-09-09T06:33:00Z</time>
      </trkpt>
      <trkpt lat="44.43802" lon="0.74873">
        <ele>119</ele>
        <time>2012-09-09T06:33:05Z</time>
      </trkpt>
      <trkpt lat="44.4381" lon="0.74884">
        <ele>120</ele>
        <time>2012-09-09T06:33:10Z</time>
      </trkpt>
      <trkpt lat="44.43818" lon="0.74897">
        <ele>123</ele>
        <time>2012-09-09T06:33:15Z</time>
      </trkpt>
      <trkpt lat="44.43826" lon="0.74908">
        <ele>125</ele>
        <time>2012-09-09T06:33:20Z</time>
      </trkpt>
      <trkpt lat="44.43833" lon="0.74919">
        <ele>126</ele>
        <time>2012-09-09T06:33:25Z</time>
      </trkpt>
      <trkpt lat="44.43842" lon="0.74928">
        <ele>129</ele>
        <time>2012-09-09T06:33:30Z</time>
      </trkpt>
      <trkpt lat="44.43851" lon="0.74936">
        <ele>130</ele>
        <time>2012-09-09T06:33:35Z</time>
      </trkpt>
      <trkpt lat="44.4386" lon="0.74933">
        <ele>130</ele>
        <time>2012-09-09T06:33:40Z</time>
      </trkpt>
      <trkpt lat="44.43881" lon="0.74947">
        <ele>130</ele>
        <time>2012-09-09T06:33:45Z</time>
      </trkpt>
      <trkpt lat="44.43916" lon="0.74975">
        <ele>130</ele>
        <time>2012-09-09T06:33:50Z</time>
      </trkpt>
      <trkpt lat="44.43951" lon="0.75002">
        <ele>130</ele>
        <time>2012-09-09T06:33:55Z</time>
      </trkpt>
      <trkpt lat="44.4398" lon="0.75022">
        <ele>127</ele>
        <time>2012-09-09T06:34:00Z</time>
      </trkpt>
      <trkpt lat="44.44009" lon="0.7504">
        <ele>125</ele>
        <time>2012-09-09T06:34:05Z</time>
      </trkpt>
      <trkpt lat="44.44035" lon="0.75064">
        <ele>123</ele>
        <time>2012-09-09T06:34:10Z</time>
      </trkpt>
      <trkpt lat="44.44054" lon="0.75088">
        <ele>123</ele>
        <time>2012-09-09T06:34:15Z</time>
      </trkpt>
      <trkpt lat="44.4407" lon="0.75111">
        <ele>123</ele>
        <time>2012-09-09T06:34:20Z</time>
      </trkpt>
      <trkpt lat="44.4409" lon="0.75124">
        <ele>123</ele>
        <time>2012-09-09T06:34:25Z</time>
      </trkpt>
      <trkpt lat="44.44109" lon="0.75136">
        <ele>123</ele>
        <time>2012-09-09T06:34:30Z</time>
      </trkpt>
      <trkpt lat="44.44127" lon="0.75146">
        <ele>123</ele>
        <time>2012-09-09T06:34:35Z</time>
      </trkpt>
      <trkpt lat="44.44144" lon="0.75158">
        <ele>124</ele>
        <time>2012-09-09T06:34:40Z</time>
      </trkpt>
      <trkpt lat="44.44161" lon="0.75171">
        <ele>126</ele>
        <time>2012-09-09T06:34:45Z</time>
      </trkpt>
      <trkpt lat="44.44178" lon="0.75182">
        <ele>127</ele>
        <time>2012-09-09T06:34:50Z</time>
      </trkpt>
      <trkpt lat="44.44195" lon="0.75193">
        <ele>128</ele>
        <time>2012-09-09T06:34:55Z</time>
      </trkpt>
      <trkpt lat="44.44213" lon="0.75201">
        <ele>128</ele>
        <time>2012-09-09T06:35:00Z</time>
      </trkpt>
      <trkpt lat="44.44235" lon="0.75208">
        <ele>128</ele>
        <time>2012-09-09T06:35:05Z</time>
      </trkpt>
      <trkpt lat="44.4426" lon="0.75209">
        <ele>128</ele>
        <time>2012-09-09T06:35:10Z</time>
      </trkpt>
      <trkpt lat="44.44286" lon="0.75201">
        <ele>128</ele>
        <time>2012-09-09T06:35:15Z</time>
      </trkpt>
      <trkpt lat="44.44313" lon="0.75213">
        <ele>128</ele>
        <time>2012-09-09T06:35:20Z</time>
      </trkpt>
      <trkpt lat="44.44344" lon="0.75227">
        <ele>128</ele>
        <time>2012-09-09T06:35:25Z</time>
      </trkpt>
      <trkpt lat="44.44381" lon="0.75243">
        <ele>127</ele>
        <time>2012-09-09T06:35:30Z</time>
      </trkpt>
      <trkpt lat="44.44421" lon="0.75262">
        <ele>123</ele>
        <time>2012-09-09T06:35:35Z</time>
      </trkpt>
      <trkpt lat="44.44463" lon="0.7528">
        <ele>118</ele>
        <time>2012-09-09T06:35:40Z</time>
      </trkpt>
      <trkpt lat="44.44504" lon="0.75301">
        <ele>113</ele>
        <time>2012-09-09T06:35:45Z</time>
      </trkpt>
      <trkpt lat="44.44541" lon="0.75316">
        <ele>109</ele>
        <time>2012-09-09T06:35:50Z</time>
      </trkpt>
      <trkpt lat="44.44579" lon="0.75321">
        <ele>104</ele>
        <time>2012-09-09T06:35:55Z</time>
      </trkpt>
      <trkpt lat="44.44613" lon="0.75309">
        <ele>100</ele>
        <time>2012-09-09T06:36:00Z</time>
      </trkpt>
      <trkpt lat="44.44642" lon="0.75293">
        <ele>100</ele>
        <time>2012-09-09T06:36:05Z</time>
      </trkpt>
      <trkpt lat="44.44657" lon="0.75298">
        <ele>100</ele>
        <time>2012-09-09T06:36:10Z</time>
      </trkpt>
      <trkpt lat="44.4467" lon="0.75304">
        <ele>100</ele>
        <time>2012-09-09T06:36:15Z</time>
      </trkpt>
      <trkpt lat="44.44682" lon="0.75305">
        <ele>101</ele>
        <time>2012-09-09T06:36:20Z</time>
      </trkpt>
      <trkpt lat="44.44698" lon="0.7531">
        <ele>102</ele>
        <time>2012-09-09T06:36:25Z</time>
      </trkpt>
      <trkpt lat="44.44715" lon="0.75318">
        <ele>103</ele>
        <time>2012-09-09T06:36:30Z</time>
      </trkpt>
      <trkpt lat="44.4473" lon="0.75332">
        <ele>104</ele>
        <time>2012-09-09T06:36:35Z</time>
      </trkpt>
      <trkpt lat="44.44757" lon="0.75335">
        <ele>104</ele>
        <time>2012-09-09T06:36:40Z</time>
      </trkpt>
      <trkpt lat="44.44788" lon="0.75341">
        <ele>104</ele>
        <time>2012-09-09T06:36:45Z</time>
      </trkpt>
      <trkpt lat="44.44828" lon="0.75348">
        <ele>104</ele>
        <time>2012-09-09T06:36:50Z</time>
      </trkpt>
      <trkpt lat="44.44868" lon="0.75355">
        <ele>100</ele>
        <time>2012-09-09T06:36:55Z</time>
      </trkpt>
      <trkpt lat="44.44903" lon="0.75367">
        <ele>96</ele>
        <time>2012-09-09T06:37:00Z</time>
      </trkpt>
      <trkpt lat="44.44936" lon="0.75375">
        <ele>92</ele>
        <time>2012-09-09T06:37:05Z</time>
      </trkpt>
      <trkpt lat="44.44975" lon="0.75373">
        <ele>88</ele>
        <time>2012-09-09T06:37:10Z</time>
      </trkpt>
      <trkpt lat="44.45016" lon="0.7537">
        <ele>84</ele>
        <time>2012-09-09T06:37:15Z</time>
      </trkpt>
      <trkpt lat="44.45049" lon="0.75361">
        <ele>82</ele>
        <time>2012-09-09T06:37:20Z</time>
      </trkpt>
      <trkpt lat="44.45071" lon="0.75369">
        <ele>82</ele>
        <time>2012-09-09T06:37:25Z</time>
      </trkpt>
      <trkpt lat="44.45071" lon="0.75393">
        <ele>82</ele>
        <time>2012-09-09T06:37:30Z</time>
      </trkpt>
      <trkpt lat="44.45065" lon="0.75422">
        <ele>81</ele>
        <time>2012-09-09T06:37:35Z</time>
      </trkpt>
      <trkpt lat="44.45066" lon="0.75451">
        <ele>77</ele>
        <time>2012-09-09T06:37:40Z</time>
      </trkpt>
      <trkpt lat="44.4507" lon="0.75479">
        <ele>73</ele>
        <time>2012-09-09T06:37:45Z</time>
      </trkpt>
      <trkpt lat="44.45069" lon="0.75507">
        <ele>71</ele>
        <time>2012-09-09T06:37:50Z</time>
      </trkpt>
      <trkpt lat="44.45066" lon="0.75534">
        <ele>71</ele>
        <time>2012-09-09T06:37:55Z</time>
      </trkpt>
      <trkpt lat="44.45064" lon="0.75563">
        <ele>71</ele>
        <time>2012-09-09T06:38:00Z</time>
      </trkpt>
      <trkpt lat="44.4507" lon="0.75592">
        <ele>71</ele>
        <time>2012-09-09T06:38:05Z</time>
      </trkpt>
      <trkpt lat="44.45072" lon="0.75623">
        <ele>71</ele>
        <time>2012-09-09T06:38:10Z</time>
      </trkpt>
      <trkpt lat="44.45074" lon="0.75652">
        <ele>71</ele>
        <time>2012-09-09T06:38:15Z</time>
      </trkpt>
      <trkpt lat="44.45076" lon="0.75679">
        <ele>70</ele>
        <time>2012-09-09T06:38:20Z</time>
      </trkpt>
      <trkpt lat="44.45067" lon="0.75706">
        <ele>69</ele>
        <time>2012-09-09T06:38:25Z</time>
      </trkpt>
      <trkpt lat="44.45059" lon="0.75732">
        <ele>69</ele>
        <time>2012-09-09T06:38:30Z</time>
      </trkpt>
      <trkpt lat="44.45053" lon="0.75758">
        <ele>69</ele>
        <time>2012-09-09T06:38:35Z</time>
      </trkpt>
      <trkpt lat="44.45047" lon="0.7578">
        <ele>69</ele>
        <time>2012-09-09T06:38:40Z</time>
      </trkpt>
      <trkpt lat="44.45043" lon="0.75804">
        <ele>69</ele>
        <time>2012-09-09T06:38:45Z</time>
      </trkpt>
      <trkpt lat="44.45053" lon="0.75817">
        <ele>71</ele>
        <time>2012-09-09T06:38:50Z</time>
      </trkpt>
      <trkpt lat="44.45066" lon="0.75827">
        <ele>75</ele>
        <time>2012-09-09T06:38:55Z</time>
      </trkpt>
      <trkpt lat="44.45077" lon="0.75835">
        <ele>78</ele>
        <time>2012-09-09T06:39:00Z</time>
      </trkpt>
      <trkpt lat="44.45087" lon="0.75841">
        <ele>81</ele>
        <time>2012-09-09T06:39:05Z</time>
      </trkpt>
      <trkpt lat="44.45096" lon="0.75847">
        <ele>84</ele>
        <time>2012-09-09T06:39:10Z</time>
      </trkpt>
      <trkpt lat="44.45105" lon="0.75854">
        <ele>87</ele>
        <time>2012-09-09T06:39:15Z</time>
      </trkpt>
      <trkpt lat="44.45113" lon="0.75859">
        <ele>89</ele>
        <time>2012-09-09T06:39:20Z</time>
      </trkpt>
      <trkpt lat="44.45123" lon="0.75866">
        <ele>92</ele>
        <time>2012-09-09T06:39:25Z</time>
      </trkpt>
      <trkpt lat="44.45134" lon="0.75874">
        <ele>94</ele>
        <time>2012-09-09T06:39:30Z</time>
      </trkpt>
      <trkpt lat="44.45144" lon="0.75882">
        <ele>95</ele>
        <time>2012-09-09T06:39:35Z</time>
      </trkpt>
      <trkpt lat="44.45154" lon="0.7589">
        <ele>96</ele>
        <time>2012-09-09T06:39:40Z</time>
      </trkpt>
      <trkpt lat="44.45163" lon="0.75898">
        <ele>97</ele>
        <time>2012-09-09T06:39:45Z</time>
      </trkpt>
      <trkpt lat="44.45174" lon="0.75905">
        <ele>98</ele>
        <time>2012-09-09T06:39:50Z</time>
      </trkpt>
      <trkpt lat="44.45184" lon="0.75912">
        <ele>100</ele>
        <time>2012-09-09T06:39:55Z</time>
      </trkpt>
      <trkpt lat="44.45193" lon="0.7592">
        <ele>101</ele>
        <time>2012-09-09T06:40:00Z</time>
      </trkpt>
      <trkpt lat="44.45203" lon="0.75927">
        <ele>103</ele>
        <time>2012-09-09T06:40:05Z</time>
      </trkpt>
      <trkpt lat="44.45212" lon="0.75934">
        <ele>104</ele>
        <time>2012-09-09T06:40:10Z</time>
      </trkpt>
      <trkpt lat="44.45221" lon="0.7594">
        <ele>106</ele>
        <time>2012-09-09T06:40:15Z</time>
      </trkpt>
      <trkpt lat="44.45229" lon="0.75947">
        <ele>108</ele>
        <time>2012-09-09T06:40:20Z</time>
      </trkpt>
      <trkpt lat="44.45237" lon="0.75954">
        <ele>109</ele>
        <time>2012-09-09T06:40:25Z</time>
      </trkpt>
      <trkpt lat="44.45245" lon="0.75962">
        <ele>109</ele>
        <time>2012-09-09T06:40:30Z</time>
      </trkpt>
      <trkpt lat="44.45255" lon="0.7597">
        <ele>109</ele>
        <time>2012-09-09T06:40:35Z</time>
      </trkpt>
      <trkpt lat="44.45265" lon="0.75978">
        <ele>110</ele>
        <time>2012-09-09T06:40:40Z</time>
      </trkpt>
      <trkpt lat="44.45276" lon="0.75987">
        <ele>110</ele>
        <time>2012-09-09T06:40:45Z</time>
      </trkpt>
      <trkpt lat="44.45287" lon="0.75996">
        <ele>111</ele>
        <time>2012-09-09T06:40:50Z</time>
      </trkpt>
      <trkpt lat="44.45298" lon="0.76005">
        <ele>112</ele>
        <time>2012-09-09T06:40:55Z</time>
      </trkpt>
      <trkpt lat="44.45309" lon="0.76013">
        <ele>114</ele>
        <time>2012-09-09T06:41:00Z</time>
      </trkpt>
      <trkpt lat="44.45322" lon="0.76017">
        <ele>114</ele>
        <time>2012-09-09T06:41:05Z</time>
      </trkpt>
      <trkpt lat="44.45339" lon="0.75997">
        <ele>114</ele>
        <time>2012-09-09T06:41:10Z</time>
      </trkpt>
      <trkpt lat="44.45366" lon="0.75968">
        <ele>113</ele>
        <time>2012-09-09T06:41:15Z</time>
      </trkpt>
      <trkpt lat="44.45398" lon="0.75934">
        <ele>108</ele>
        <time>2012-09-09T06:41:20Z</time>
      </trkpt>
      <trkpt lat="44.45417" lon="0.75913">
        <ele>104</ele>
        <time>2012-09-09T06:41:25Z</time>
      </trkpt>
      <trkpt lat="44.45421" lon="0.75916">
        <ele>102</ele>
        <time>2012-09-09T06:41:30Z</time>
      </trkpt>
      <trkpt lat="44.45424" lon="0.75932">
        <ele>102</ele>
        <time>2012-09-09T06:41:35Z</time>
      </trkpt>
      <trkpt lat="44.45428" lon="0.7595">
        <ele>102</ele>
        <time>2012-09-09T06:41:40Z</time>
      </trkpt>
      <trkpt lat="44.45431" lon="0.75966">
        <ele>103</ele>
        <time>2012-09-09T06:41:45Z</time>
      </trkpt>
      <trkpt lat="44.45434" lon="0.75982">
        <ele>105</ele>
        <time>2012-09-09T06:41:50Z</time>
      </trkpt>
      <trkpt lat="44.45436" lon="0.75997">
        <ele>107</ele>
        <time>2012-09-09T06:41:55Z</time>
      </trkpt>
      <trkpt lat="44.45439" lon="0.76012">
        <ele>108</ele>
        <time>2012-09-09T06:42:00Z</time>
      </trkpt>
      <trkpt lat="44.45442" lon="0.76027">
        <ele>110</ele>
        <time>2012-09-09T06:42:05Z</time>
      </trkpt>
      <trkpt lat="44.45442" lon="0.76042">
        <ele>112</ele>
        <time>2012-09-09T06:42:10Z</time>
      </trkpt>
      <trkpt lat="44.45442" lon="0.76064">
        <ele>116</ele>
        <time>2012-09-09T06:42:15Z</time>
      </trkpt>
      <trkpt lat="44.45441" lon="0.76089">
        <ele>116</ele>
        <time>2012-09-09T06:42:20Z</time>
      </trkpt>
      <trkpt lat="44.45441" lon="0.76111">
        <ele>116</ele>
        <time>2012-09-09T06:42:25Z</time>
      </trkpt>
      <trkpt lat="44.45449" lon="0.76124">
        <ele>116</ele>
        <time>2012-09-09T06:42:30Z</time>
      </trkpt>
      <trkpt lat="44.45458" lon="0.76136">
        <ele>116</ele>
        <time>2012-09-09T06:42:35Z</time>
      </trkpt>
      <trkpt lat="44.45463" lon="0.76148">
        <ele>118</ele>
        <time>2012-09-09T06:42:40Z</time>
      </trkpt>
      <trkpt lat="44.45467" lon="0.76164">
        <ele>119</ele>
        <time>2012-09-09T06:42:45Z</time>
      </trkpt>
      <trkpt lat="44.45472" lon="0.7618">
        <ele>119</ele>
        <time>2012-09-09T06:42:50Z</time>
      </trkpt>
      <trkpt lat="44.45477" lon="0.76193">
        <ele>119</ele>
        <time>2012-09-09T06:42:55Z</time>
      </trkpt>
      <trkpt lat="44.45486" lon="0.76207">
        <ele>120</ele>
        <time>2012-09-09T06:43:00Z</time>
      </trkpt>
      <trkpt lat="44.45496" lon="0.76219">
        <ele>120</ele>
        <time>2012-09-09T06:43:05Z</time>
      </trkpt>
      <trkpt lat="44.45503" lon="0.76233">
        <ele>122</ele>
        <time>2012-09-09T06:43:10Z</time>
      </trkpt>
      <trkpt lat="44.455" lon="0.76251">
        <ele>123</ele>
        <time>2012-09-09T06:43:15Z</time>
      </trkpt>
      <trkpt lat="44.45493" lon="0.76274">
        <ele>123</ele>
        <time>2012-09-09T06:43:20Z</time>
      </trkpt>
      <trkpt lat="44.45485" lon="0.763">
        <ele>123</ele>
        <time>2012-09-09T06:43:25Z</time>
      </trkpt>
      <trkpt lat="44.45475" lon="0.76325">
        <ele>123</ele>
        <time>2012-09-09T06:43:30Z</time>
      </trkpt>
      <trkpt lat="44.45464" lon="0.76347">
        <ele>123</ele>
        <time>2012-09-09T06:43:35Z</time>
      </trkpt>
      <trkpt lat="44.4545" lon="0.76367">
        <ele>125</ele>
        <time>2012-09-09T06:43:40Z</time>
      </trkpt>
      <trkpt lat="44.45436" lon="0.76386">
        <ele>126</ele>
        <time>2012-09-09T06:43:45Z</time>
      </trkpt>
      <trkpt lat="44.45421" lon="0.76407">
        <ele>128</ele>
        <time>2012-09-09T06:43:50Z</time>
      </trkpt>
      <trkpt lat="44.45405" lon="0.76444">
        <ele>128</ele>
        <time>2012-09-09T06:43:55Z</time>
      </trkpt>
      <trkpt lat="44.45398" lon="0.76499">
        <ele>128</ele>
        <time>2012-09-09T06:44:00Z</time>
      </trkpt>
      <trkpt lat="44.45393" lon="0.76554">
        <ele>127</ele>
        <time>2012-09-09T06:44:05Z</time>
      </trkpt>
      <trkpt lat="44.45387" lon="0.76598">
        <ele>127</ele>
        <time>2012-09-09T06:44:10Z</time>
      </trkpt>
      <trkpt lat="44.45394" lon="0.76623">
        <ele>127</ele>
        <time>2012-09-09T06:44:15Z</time>
      </trkpt>
      <trkpt lat="44.45405" lon="0.76635">
        <ele>127</ele>
        <time>2012-09-09T06:44:20Z</time>
      </trkpt>
      <trkpt lat="44.45417" lon="0.76648">
        <ele>127</ele>
        <time>2012-09-09T06:44:25Z</time>
      </trkpt>
      <trkpt lat="44.45435" lon="0.76672">
        <ele>127</ele>
        <time>2012-09-09T06:44:30Z</time>
      </trkpt>
      <trkpt lat="44.45461" lon="0.76706">
        <ele>126</ele>
        <time>2012-09-09T06:44:35Z</time>
      </trkpt>
      <trkpt lat="44.45489" lon="0.7674">
        <ele>124</ele>
        <time>2012-09-09T06:44:40Z</time>
      </trkpt>
      <trkpt lat="44.45514" lon="0.76772">
        <ele>123</ele>
        <time>2012-09-09T06:44:45Z</time>
      </trkpt>
      <trkpt lat="44.45537" lon="0.768">
        <ele>122</ele>
        <time>2012-09-09T06:44:50Z</time>
      </trkpt>
      <trkpt lat="44.45553" lon="0.76823">
        <ele>122</ele>
        <time>2012-09-09T06:44:55Z</time>
      </trkpt>
      <trkpt lat="44.45554" lon="0.76846">
        <ele>122</ele>
        <time>2012-09-09T06:45:00Z</time>
      </trkpt>
      <trkpt lat="44.45554" lon="0.7687">
        <ele>122</ele>
        <time>2012-09-09T06:45:05Z</time>
      </trkpt>
      <trkpt lat="44.45556" lon="0.76895">
        <ele>122</ele>
        <time>2012-09-09T06:45:10Z</time>
      </trkpt>
      <trkpt lat="44.45557" lon="0.76918">
        <ele>123</ele>
        <time>2012-09-09T06:45:15Z</time>
      </trkpt>
      <trkpt lat="44.4556" lon="0.76938">
        <ele>124</ele>
        <time>2012-09-09T06:45:20Z</time>
      </trkpt>
      <trkpt lat="44.45553" lon="0.76951">
        <ele>124</ele>
        <time>2012-09-09T06:45:25Z</time>
      </trkpt>
      <trkpt lat="44.45533" lon="0.76956">
        <ele>124</ele>
        <time>2012-09-09T06:45:30Z</time>
      </trkpt>
      <trkpt lat="44.45514" lon="0.76962">
        <ele>124</ele>
        <time>2012-09-09T06:45:35Z</time>
      </trkpt>
      <trkpt lat="44.45495" lon="0.7697">
        <ele>125</ele>
        <time>2012-09-09T06:45:40Z</time>
      </trkpt>
      <trkpt lat="44.45478" lon="0.76977">
        <ele>127</ele>
        <time>2012-09-09T06:45:45Z</time>
      </trkpt>
      <trkpt lat="44.45472" lon="0.7699">
        <ele>128</ele>
        <time>2012-09-09T06:45:50Z</time>
      </trkpt>
      <trkpt lat="44.45476" lon="0.77011">
        <ele>128</ele>
        <time>2012-09-09T06:45:55Z</time>
      </trkpt>
      <trkpt lat="44.45481" lon="0.77036">
        <ele>128</ele>
        <time>2012-09-09T06:46:00Z</time>
      </trkpt>
      <trkpt lat="44.45482" lon="0.77057">
        <ele>128</ele>
        <time>2012-09-09T06:46:05Z</time>
      </trkpt>
      <trkpt lat="44.45466" lon="0.77066">
        <ele>128</ele>
        <time>2012-09-09T06:46:10Z</time>
      </trkpt>
      <trkpt lat="44.45446" lon="0.7707">
        <ele>130</ele>
        <time>2012-09-09T06:46:15Z</time>
      </trkpt>
      <trkpt lat="44.45435" lon="0.77053">
        <ele>130</ele>
        <time>2012-09-09T06:46:20Z</time>
      </trkpt>
      <trkpt lat="44.45431" lon="0.77033">
        <ele>130</ele>
        <time>2012-09-09T06:46:25Z</time>
      </trkpt>
      <trkpt lat="44.45426" lon="0.77011">
        <ele>130</ele>
        <time>2012-09-09T06:46:30Z</time>
      </trkpt>
      <trkpt lat="44.45406" lon="0.77008">
        <ele>130</ele>
        <time>2012-09-09T06:46:35Z</time>
      </trkpt>
      <trkpt lat="44.45381" lon="0.77019">
        <ele>130</ele>
        <time>2012-09-09T06:46:40Z</time>
      </trkpt>
      <trkpt lat="44.45356" lon="0.77035">
        <ele>130</ele>
        <time>2012-09-09T06:46:45Z</time>
      </trkpt>
      <trkpt lat="44.45332" lon="0.77058">
        <ele>130</ele>
        <time>2012-09-09T06:46:50Z</time>
      </trkpt>
      <trkpt lat="44.45325" lon="0.77092">
        <ele>130</ele>
        <time>2012-09-09T06:46:55Z</time>
      </trkpt>
      <trkpt lat="44.45334" lon="0.77141">
        <ele>129</ele>
        <time>2012-09-09T06:47:00Z</time>
      </trkpt>
      <trkpt lat="44.45337" lon="0.77166">
        <ele>124</ele>
        <time>2012-09-09T06:47:05Z</time>
      </trkpt>
      <trkpt lat="44.45344" lon="0.77177">
        <ele>122</ele>
        <time>2012-09-09T06:47:10Z</time>
      </trkpt>
      <trkpt lat="44.45352" lon="0.77211">
        <ele>119</ele>
        <time>2012-09-09T06:47:15Z</time>
      </trkpt>
      <trkpt lat="44.45359" lon="0.77249">
        <ele>117</ele>
        <time>2012-09-09T06:47:20Z</time>
      </trkpt>
      <trkpt lat="44.45366" lon="0.77285">
        <ele>115</ele>
        <time>2012-09-09T06:47:25Z</time>
      </trkpt>
      <trkpt lat="44.45369" lon="0.77307">
        <ele>113</ele>
        <time>2012-09-09T06:47:30Z</time>
      </trkpt>
      <trkpt lat="44.45375" lon="0.77328">
        <ele>112</ele>
        <time>2012-09-09T06:47:35Z</time>
      </trkpt>
      <trkpt lat="44.45379" lon="0.77349">
        <ele>111</ele>
        <time>2012-09-09T06:47:40Z</time>
      </trkpt>
      <trkpt lat="44.45372" lon="0.77358">
        <ele>111</ele>
        <time>2012-09-09T06:47:45Z</time>
      </trkpt>
      <trkpt lat="44.45373" lon="0.77376">
        <ele>111</ele>
        <time>2012-09-09T06:47:50Z</time>
      </trkpt>
      <trkpt lat="44.45375" lon="0.77402">
        <ele>111</ele>
        <time>2012-09-09T06:47:55Z</time>
      </trkpt>
      <trkpt lat="44.45381" lon="0.77444">
        <ele>110</ele>
        <time>2012-09-09T06:48:00Z</time>
      </trkpt>
      <trkpt lat="44.45388" lon="0.77492">
        <ele>108</ele>
        <time>2012-09-09T06:48:05Z</time>
      </trkpt>
      <trkpt lat="44.45396" lon="0.77541">
        <ele>106</ele>
        <time>2012-09-09T06:48:10Z</time>
      </trkpt>
      <trkpt lat="44.45407" lon="0.77586">
        <ele>106</ele>
        <time>2012-09-09T06:48:15Z</time>
      </trkpt>
      <trkpt lat="44.45418" lon="0.77628">
        <ele>105</ele>
        <time>2012-09-09T06:48:20Z</time>
      </trkpt>
      <trkpt lat="44.45429" lon="0.7767">
        <ele>105</ele>
        <time>2012-09-09T06:48:25Z</time>
      </trkpt>
      <trkpt lat="44.45439" lon="0.7771">
        <ele>105</ele>
        <time>2012-09-09T06:48:30Z</time>
      </trkpt>
      <trkpt lat="44.45452" lon="0.7775">
        <ele>105</ele>
        <time>2012-09-09T06:48:35Z</time>
      </trkpt>
      <trkpt lat="44.45466" lon="0.77788">
        <ele>105</ele>
        <time>2012-09-09T06:48:40Z</time>
      </trkpt>
      <trkpt lat="44.45484" lon="0.7782">
        <ele>105</ele>
        <time>2012-09-09T06:48:45Z</time>
      </trkpt>
      <trkpt lat="44.45506" lon="0.77851">
        <ele>105</ele>
        <time>2012-09-09T06:48:50Z</time>
      </trkpt>
      <trkpt lat="44.45509" lon="0.77864">
        <ele>105</ele>
        <time>2012-09-09T06:48:55Z</time>
      </trkpt>
      <trkpt lat="44.45504" lon="0.77882">
        <ele>106</ele>
        <time>2012-09-09T06:49:00Z</time>
      </trkpt>
      <trkpt lat="44.45507" lon="0.77912">
        <ele>106</ele>
        <time>2012-09-09T06:49:05Z</time>
      </trkpt>
      <trkpt lat="44.45513" lon="0.77951">
        <ele>106</ele>
        <time>2012-09-09T06:49:10Z</time>
      </trkpt>
      <trkpt lat="44.45525" lon="0.77994">
        <ele>105</ele>
        <time>2012-09-09T06:49:15Z</time>
      </trkpt>
      <trkpt lat="44.45535" lon="0.78044">
        <ele>103</ele>
        <time>2012-09-09T06:49:20Z</time>
      </trkpt>
      <trkpt lat="44.45546" lon="0.78102">
        <ele>99</ele>
        <time>2012-09-09T06:49:25Z</time>
      </trkpt>
      <trkpt lat="44.45562" lon="0.78157">
        <ele>95</ele>
        <time>2012-09-09T06:49:30Z</time>
      </trkpt>
      <trkpt lat="44.45578" lon="0.78191">
        <ele>93</ele>
        <time>2012-09-09T06:49:35Z</time>
      </trkpt>
      <trkpt lat="44.45598" lon="0.78211">
        <ele>93</ele>
        <time>2012-09-09T06:49:40Z</time>
      </trkpt>
      <trkpt lat="44.4562" lon="0.78218">
        <ele>92</ele>
        <time>2012-09-09T06:49:45Z</time>
      </trkpt>
      <trkpt lat="44.45625" lon="0.78221">
        <ele>92</ele>
        <time>2012-09-09T06:49:55Z</time>
      </trkpt>
      <trkpt lat="44.45625" lon="0.78222">
        <ele>92</ele>
        <time>2012-09-09T06:50:28Z</time>
      </trkpt>
      <trkpt lat="44.45625" lon="0.78224">
        <ele>95</ele>
        <time>2012-09-09T06:50:49Z</time>
      </trkpt>
      <trkpt lat="44.45623" lon="0.78225">
        <ele>99</ele>
        <time>2012-09-09T06:51:14Z</time>
      </trkpt>
      <trkpt lat="44.45624" lon="0.78226">
        <ele>100</ele>
        <time>2012-09-09T06:51:25Z</time>
      </trkpt>
      <trkpt lat="44.45624" lon="0.78228">
        <ele>100</ele>
        <time>2012-09-09T06:51:37Z</time>
      </trkpt>
      <trkpt lat="44.45625" lon="0.78229">
        <ele>100</ele>
        <time>2012-09-09T06:51:53Z</time>
      </trkpt>
      <trkpt lat="44.45625" lon="0.78231">
        <ele>102</ele>
        <time>2012-09-09T06:52:03Z</time>
      </trkpt>
      <trkpt lat="44.45626" lon="0.78232">
        <ele>104</ele>
        <time>2012-09-09T06:52:13Z</time>
      </trkpt>
      <trkpt lat="44.45626" lon="0.78234">
        <ele>105</ele>
        <time>2012-09-09T06:52:22Z</time>
      </trkpt>
      <trkpt lat="44.45627" lon="0.78232">
        <ele>106</ele>
        <time>2012-09-09T06:52:41Z</time>
      </trkpt>
      <trkpt lat="44.45628" lon="0.7823">
        <ele>105</ele>
        <time>2012-09-09T06:52:47Z</time>
      </trkpt>
      <trkpt lat="44.45628" lon="0.78228">
        <ele>99</ele>
        <time>2012-09-09T06:53:04Z</time>
      </trkpt>
      <trkpt lat="44.45627" lon="0.78228">
        <ele>98</ele>
        <time>2012-09-09T06:53:32Z</time>
      </trkpt>
      <trkpt lat="44.45626" lon="0.7823">
        <ele>98</ele>
        <time>2012-09-09T06:53:44Z</time>
      </trkpt>
      <trkpt lat="44.45625" lon="0.78231">
        <ele>99</ele>
        <time>2012-09-09T06:54:02Z</time>
      </trkpt>
      <trkpt lat="44.45626" lon="0.78229">
        <ele>100</ele>
        <time>2012-09-09T06:54:17Z</time>
      </trkpt>
      <trkpt lat="44.45627" lon="0.78228">
        <ele>100</ele>
        <time>2012-09-09T06:54:32Z</time>
      </trkpt>
      <trkpt lat="44.45626" lon="0.78226">
        <ele>100</ele>
        <time>2012-09-09T06:54:50Z</time>
      </trkpt>
      <trkpt lat="44.45628" lon="0.78223">
        <ele>100</ele>
        <time>2012-09-09T06:54:57Z</time>
      </trkpt>
      <trkpt lat="44.45629" lon="0.7822">
        <ele>100</ele>
        <time>2012-09-09T06:55:09Z</time>
      </trkpt>
      <trkpt lat="44.4563" lon="0.78218">
        <ele>100</ele>
        <time>2012-09-09T06:55:14Z</time>
      </trkpt>
      <trkpt lat="44.45629" lon="0.78219">
        <ele>100</ele>
        <time>2012-09-09T06:55:23Z</time>
      </trkpt>
      <trkpt lat="44.45628" lon="0.78221">
        <ele>100</ele>
        <time>2012-09-09T06:55:28Z</time>
      </trkpt>
      <trkpt lat="44.45626" lon="0.78223">
        <ele>100</ele>
        <time>2012-09-09T06:55:39Z</time>
      </trkpt>
      <trkpt lat="44.45624" lon="0.78224">
        <ele>100</ele>
        <time>2012-09-09T06:55:44Z</time>
      </trkpt>
      <trkpt lat="44.45624" lon="0.78226">
        <ele>101</ele>
        <time>2012-09-09T06:56:01Z</time>
      </trkpt>
      <trkpt lat="44.45625" lon="0.78226">
        <ele>101</ele>
        <time>2012-09-09T06:56:09Z</time>
      </trkpt>
      <trkpt lat="44.45626" lon="0.78225">
        <ele>101</ele>
        <time>2012-09-09T06:56:14Z</time>
      </trkpt>
      <trkpt lat="44.45625" lon="0.78224">
        <ele>101</ele>
        <time>2012-09-09T06:56:21Z</time>
      </trkpt>
      <trkpt lat="44.45625" lon="0.78226">
        <ele>102</ele>
        <time>2012-09-09T06:57:18Z</time>
      </trkpt>
      <trkpt lat="44.45624" lon="0.78228">
        <ele>104</ele>
        <time>2012-09-09T06:57:24Z</time>
      </trkpt>
      <trkpt lat="44.45624" lon="0.78227">
        <ele>105</ele>
        <time>2012-09-09T06:57:30Z</time>
      </trkpt>
      <trkpt lat="44.45623" lon="0.78228">
        <ele>106</ele>
        <time>2012-09-09T06:57:50Z</time>
      </trkpt>
      <trkpt lat="44.45625" lon="0.78225">
        <ele>107</ele>
        <time>2012-09-09T06:57:56Z</time>
      </trkpt>
      <trkpt lat="44.45626" lon="0.78222">
        <ele>107</ele>
        <time>2012-09-09T06:58:05Z</time>
      </trkpt>
      <trkpt lat="44.45628" lon="0.78221">
        <ele>102</ele>
        <time>2012-09-09T06:58:16Z</time>
      </trkpt>
      <trkpt lat="44.4563" lon="0.7822">
        <ele>98</ele>
        <time>2012-09-09T06:58:21Z</time>
      </trkpt>
      <trkpt lat="44.45632" lon="0.78221">
        <ele>91</ele>
        <time>2012-09-09T06:58:41Z</time>
      </trkpt>
      <trkpt lat="44.45636" lon="0.78222">
        <ele>90</ele>
        <time>2012-09-09T06:58:46Z</time>
      </trkpt>
      <trkpt lat="44.45643" lon="0.78226">
        <ele>90</ele>
        <time>2012-09-09T06:58:51Z</time>
      </trkpt>
      <trkpt lat="44.45656" lon="0.78236">
        <ele>90</ele>
        <time>2012-09-09T06:58:56Z</time>
      </trkpt>
      <trkpt lat="44.4567" lon="0.78246">
        <ele>90</ele>
        <time>2012-09-09T06:59:01Z</time>
      </trkpt>
      <trkpt lat="44.45683" lon="0.78255">
        <ele>90</ele>
        <time>2012-09-09T06:59:06Z</time>
      </trkpt>
      <trkpt lat="44.45695" lon="0.78263">
        <ele>90</ele>
        <time>2012-09-09T06:59:11Z</time>
      </trkpt>
      <trkpt lat="44.45708" lon="0.78271">
        <ele>90</ele>
        <time>2012-09-09T06:59:16Z</time>
      </trkpt>
      <trkpt lat="44.45723" lon="0.78281">
        <ele>90</ele>
        <time>2012-09-09T06:59:21Z</time>
      </trkpt>
      <trkpt lat="44.45738" lon="0.78292">
        <ele>90</ele>
        <time>2012-09-09T06:59:26Z</time>
      </trkpt>
      <trkpt lat="44.45754" lon="0.78303">
        <ele>90</ele>
        <time>2012-09-09T06:59:31Z</time>
      </trkpt>
      <trkpt lat="44.45769" lon="0.78317">
        <ele>90</ele>
        <time>2012-09-09T06:59:36Z</time>
      </trkpt>
      <trkpt lat="44.45782" lon="0.78336">
        <ele>90</ele>
        <time>2012-09-09T06:59:41Z</time>
      </trkpt>
      <trkpt lat="44.45795" lon="0.78359">
        <ele>90</ele>
        <time>2012-09-09T06:59:46Z</time>
      </trkpt>
      <trkpt lat="44.45808" lon="0.78381">
        <ele>90</ele>
        <time>2012-09-09T06:59:51Z</time>
      </trkpt>
      <trkpt lat="44.45818" lon="0.78402">
        <ele>90</ele>
        <time>2012-09-09T06:59:56Z</time>
      </trkpt>
      <trkpt lat="44.45825" lon="0.78421">
        <ele>90</ele>
        <time>2012-09-09T07:00:01Z</time>
      </trkpt>
      <trkpt lat="44.45834" lon="0.78437">
        <ele>90</ele>
        <time>2012-09-09T07:00:06Z</time>
      </trkpt>
      <trkpt lat="44.45846" lon="0.78453">
        <ele>90</ele>
        <time>2012-09-09T07:00:11Z</time>
      </trkpt>
      <trkpt lat="44.45862" lon="0.78474">
        <ele>90</ele>
        <time>2012-09-09T07:00:16Z</time>
      </trkpt>
      <trkpt lat="44.45874" lon="0.78465">
        <ele>90</ele>
        <time>2012-09-09T07:00:21Z</time>
      </trkpt>
      <trkpt lat="44.45884" lon="0.78446">
        <ele>90</ele>
        <time>2012-09-09T07:00:26Z</time>
      </trkpt>
      <trkpt lat="44.45888" lon="0.78414">
        <ele>89</ele>
        <time>2012-09-09T07:00:31Z</time>
      </trkpt>
      <trkpt lat="44.45895" lon="0.78385">
        <ele>88</ele>
        <time>2012-09-09T07:00:36Z</time>
      </trkpt>
      <trkpt lat="44.45905" lon="0.78357">
        <ele>87</ele>
        <time>2012-09-09T07:00:41Z</time>
      </trkpt>
      <trkpt lat="44.45922" lon="0.7836">
        <ele>86</ele>
        <time>2012-09-09T07:00:46Z</time>
      </trkpt>
      <trkpt lat="44.45943" lon="0.78365">
        <ele>86</ele>
        <time>2012-09-09T07:00:51Z</time>
      </trkpt>
      <trkpt lat="44.45961" lon="0.78369">
        <ele>86</ele>
        <time>2012-09-09T07:00:56Z</time>
      </trkpt>
      <trkpt lat="44.45977" lon="0.78372">
        <ele>86</ele>
        <time>2012-09-09T07:01:01Z</time>
      </trkpt>
      <trkpt lat="44.45993" lon="0.78376">
        <ele>86</ele>
        <time>2012-09-09T07:01:06Z</time>
      </trkpt>
      <trkpt lat="44.46009" lon="0.78379">
        <ele>86</ele>
        <time>2012-09-09T07:01:11Z</time>
      </trkpt>
      <trkpt lat="44.46025" lon="0.78381">
        <ele>86</ele>
        <time>2012-09-09T07:01:16Z</time>
      </trkpt>
      <trkpt lat="44.46041" lon="0.78382">
        <ele>86</ele>
        <time>2012-09-09T07:01:21Z</time>
      </trkpt>
      <trkpt lat="44.46057" lon="0.78383">
        <ele>86</ele>
        <time>2012-09-09T07:01:26Z</time>
      </trkpt>
      <trkpt lat="44.46072" lon="0.78387">
        <ele>86</ele>
        <time>2012-09-09T07:01:31Z</time>
      </trkpt>
      <trkpt lat="44.46087" lon="0.78394">
        <ele>86</ele>
        <time>2012-09-09T07:01:36Z</time>
      </trkpt>
      <trkpt lat="44.46102" lon="0.78402">
        <ele>86</ele>
        <time>2012-09-09T07:01:41Z</time>
      </trkpt>
      <trkpt lat="44.46117" lon="0.78409">
        <ele>87</ele>
        <time>2012-09-09T07:01:46Z</time>
      </trkpt>
      <trkpt lat="44.46131" lon="0.78415">
        <ele>88</ele>
        <time>2012-09-09T07:01:51Z</time>
      </trkpt>
      <trkpt lat="44.46144" lon="0.78423">
        <ele>89</ele>
        <time>2012-09-09T07:01:56Z</time>
      </trkpt>
      <trkpt lat="44.46157" lon="0.78432">
        <ele>91</ele>
        <time>2012-09-09T07:02:01Z</time>
      </trkpt>
      <trkpt lat="44.46171" lon="0.78437">
        <ele>92</ele>
        <time>2012-09-09T07:02:06Z</time>
      </trkpt>
      <trkpt lat="44.46185" lon="0.78443">
        <ele>93</ele>
        <time>2012-09-09T07:02:11Z</time>
      </trkpt>
      <trkpt lat="44.46199" lon="0.78451">
        <ele>94</ele>
        <time>2012-09-09T07:02:16Z</time>
      </trkpt>
      <trkpt lat="44.46212" lon="0.78458">
        <ele>96</ele>
        <time>2012-09-09T07:02:21Z</time>
      </trkpt>
      <trkpt lat="44.46224" lon="0.78465">
        <ele>98</ele>
        <time>2012-09-09T07:02:26Z</time>
      </trkpt>
      <trkpt lat="44.46238" lon="0.78472">
        <ele>100</ele>
        <time>2012-09-09T07:02:31Z</time>
      </trkpt>
      <trkpt lat="44.46253" lon="0.78479">
        <ele>102</ele>
        <time>2012-09-09T07:02:36Z</time>
      </trkpt>
      <trkpt lat="44.46269" lon="0.78486">
        <ele>104</ele>
        <time>2012-09-09T07:02:41Z</time>
      </trkpt>
      <trkpt lat="44.46283" lon="0.78493">
        <ele>106</ele>
        <time>2012-09-09T07:02:46Z</time>
      </trkpt>
      <trkpt lat="44.46297" lon="0.785">
        <ele>108</ele>
        <time>2012-09-09T07:02:51Z</time>
      </trkpt>
      <trkpt lat="44.46312" lon="0.78507">
        <ele>110</ele>
        <time>2012-09-09T07:02:56Z</time>
      </trkpt>
      <trkpt lat="44.46328" lon="0.78514">
        <ele>111</ele>
        <time>2012-09-09T07:03:01Z</time>
      </trkpt>
      <trkpt lat="44.46341" lon="0.78522">
        <ele>112</ele>
        <time>2012-09-09T07:03:06Z</time>
      </trkpt>
      <trkpt lat="44.46341" lon="0.78541">
        <ele>112</ele>
        <time>2012-09-09T07:03:11Z</time>
      </trkpt>
      <trkpt lat="44.46338" lon="0.78563">
        <ele>113</ele>
        <time>2012-09-09T07:03:16Z</time>
      </trkpt>
      <trkpt lat="44.46334" lon="0.78589">
        <ele>116</ele>
        <time>2012-09-09T07:03:21Z</time>
      </trkpt>
      <trkpt lat="44.4633" lon="0.78616">
        <ele>118</ele>
        <time>2012-09-09T07:03:26Z</time>
      </trkpt>
      <trkpt lat="44.46328" lon="0.78644">
        <ele>120</ele>
        <time>2012-09-09T07:03:31Z</time>
      </trkpt>
      <trkpt lat="44.46325" lon="0.78679">
        <ele>121</ele>
        <time>2012-09-09T07:03:36Z</time>
      </trkpt>
      <trkpt lat="44.4632" lon="0.78714">
        <ele>121</ele>
        <time>2012-09-09T07:03:41Z</time>
      </trkpt>
      <trkpt lat="44.46315" lon="0.78746">
        <ele>122</ele>
        <time>2012-09-09T07:03:46Z</time>
      </trkpt>
      <trkpt lat="44.46315" lon="0.78774">
        <ele>123</ele>
        <time>2012-09-09T07:03:51Z</time>
      </trkpt>
      <trkpt lat="44.46326" lon="0.78798">
        <ele>123</ele>
        <time>2012-09-09T07:03:56Z</time>
      </trkpt>
      <trkpt lat="44.46334" lon="0.78822">
        <ele>123</ele>
        <time>2012-09-09T07:04:01Z</time>
      </trkpt>
      <trkpt lat="44.46344" lon="0.78839">
        <ele>123</ele>
        <time>2012-09-09T07:04:06Z</time>
      </trkpt>
      <trkpt lat="44.46353" lon="0.78857">
        <ele>123</ele>
        <time>2012-09-09T07:04:11Z</time>
      </trkpt>
      <trkpt lat="44.46366" lon="0.78873">
        <ele>125</ele>
        <time>2012-09-09T07:04:16Z</time>
      </trkpt>
      <trkpt lat="44.46378" lon="0.78886">
        <ele>127</ele>
        <time>2012-09-09T07:04:21Z</time>
      </trkpt>
      <trkpt lat="44.46393" lon="0.78898">
        <ele>128</ele>
        <time>2012-09-09T07:04:26Z</time>
      </trkpt>
      <trkpt lat="44.46408" lon="0.7891">
        <ele>128</ele>
        <time>2012-09-09T07:04:31Z</time>
      </trkpt>
      <trkpt lat="44.46423" lon="0.78921">
        <ele>128</ele>
        <time>2012-09-09T07:04:36Z</time>
      </trkpt>
      <trkpt lat="44.46436" lon="0.78932">
        <ele>128</ele>
        <time>2012-09-09T07:04:41Z</time>
      </trkpt>
      <trkpt lat="44.46449" lon="0.78943">
        <ele>129</ele>
        <time>2012-09-09T07:04:46Z</time>
      </trkpt>
      <trkpt lat="44.4646" lon="0.78954">
        <ele>131</ele>
        <time>2012-09-09T07:04:51Z</time>
      </trkpt>
      <trkpt lat="44.46473" lon="0.78965">
        <ele>133</ele>
        <time>2012-09-09T07:04:56Z</time>
      </trkpt>
      <trkpt lat="44.46487" lon="0.78976">
        <ele>134</ele>
        <time>2012-09-09T07:05:01Z</time>
      </trkpt>
      <trkpt lat="44.46505" lon="0.7899">
        <ele>134</ele>
        <time>2012-09-09T07:05:06Z</time>
      </trkpt>
      <trkpt lat="44.46529" lon="0.79016">
        <ele>134</ele>
        <time>2012-09-09T07:05:11Z</time>
      </trkpt>
      <trkpt lat="44.4655" lon="0.79046">
        <ele>134</ele>
        <time>2012-09-09T07:05:16Z</time>
      </trkpt>
      <trkpt lat="44.46572" lon="0.7907">
        <ele>133</ele>
        <time>2012-09-09T07:05:21Z</time>
      </trkpt>
      <trkpt lat="44.46595" lon="0.79089">
        <ele>133</ele>
        <time>2012-09-09T07:05:26Z</time>
      </trkpt>
      <trkpt lat="44.46612" lon="0.79113">
        <ele>133</ele>
        <time>2012-09-09T07:05:31Z</time>
      </trkpt>
      <trkpt lat="44.46626" lon="0.79138">
        <ele>133</ele>
        <time>2012-09-09T07:05:36Z</time>
      </trkpt>
      <trkpt lat="44.46638" lon="0.79162">
        <ele>133</ele>
        <time>2012-09-09T07:05:41Z</time>
      </trkpt>
      <trkpt lat="44.46647" lon="0.79186">
        <ele>133</ele>
        <time>2012-09-09T07:05:46Z</time>
      </trkpt>
      <trkpt lat="44.46658" lon="0.79208">
        <ele>133</ele>
        <time>2012-09-09T07:05:51Z</time>
      </trkpt>
      <trkpt lat="44.46667" lon="0.79228">
        <ele>133</ele>
        <time>2012-09-09T07:05:56Z</time>
      </trkpt>
      <trkpt lat="44.46679" lon="0.79246">
        <ele>133</ele>
        <time>2012-09-09T07:06:01Z</time>
      </trkpt>
      <trkpt lat="44.46691" lon="0.79263">
        <ele>133</ele>
        <time>2012-09-09T07:06:06Z</time>
      </trkpt>
      <trkpt lat="44.46703" lon="0.7928">
        <ele>133</ele>
        <time>2012-09-09T07:06:11Z</time>
      </trkpt>
      <trkpt lat="44.46714" lon="0.79297">
        <ele>135</ele>
        <time>2012-09-09T07:06:16Z</time>
      </trkpt>
      <trkpt lat="44.4672" lon="0.79318">
        <ele>136</ele>
        <time>2012-09-09T07:06:21Z</time>
      </trkpt>
      <trkpt lat="44.46721" lon="0.79347">
        <ele>138</ele>
        <time>2012-09-09T07:06:26Z</time>
      </trkpt>
      <trkpt lat="44.46724" lon="0.79379">
        <ele>138</ele>
        <time>2012-09-09T07:06:31Z</time>
      </trkpt>
      <trkpt lat="44.46728" lon="0.79413">
        <ele>138</ele>
        <time>2012-09-09T07:06:36Z</time>
      </trkpt>
      <trkpt lat="44.4674" lon="0.79445">
        <ele>138</ele>
        <time>2012-09-09T07:06:41Z</time>
      </trkpt>
      <trkpt lat="44.46751" lon="0.79482">
        <ele>138</ele>
        <time>2012-09-09T07:06:46Z</time>
      </trkpt>
      <trkpt lat="44.46758" lon="0.79522">
        <ele>138</ele>
        <time>2012-09-09T07:06:51Z</time>
      </trkpt>
      <trkpt lat="44.46764" lon="0.79558">
        <ele>138</ele>
        <time>2012-09-09T07:06:56Z</time>
      </trkpt>
      <trkpt lat="44.46766" lon="0.79593">
        <ele>138</ele>
        <time>2012-09-09T07:07:01Z</time>
      </trkpt>
      <trkpt lat="44.46767" lon="0.79628">
        <ele>138</ele>
        <time>2012-09-09T07:07:06Z</time>
      </trkpt>
      <trkpt lat="44.46766" lon="0.7966">
        <ele>138</ele>
        <time>2012-09-09T07:07:11Z</time>
      </trkpt>
      <trkpt lat="44.46766" lon="0.79692">
        <ele>138</ele>
        <time>2012-09-09T07:07:16Z</time>
      </trkpt>
      <trkpt lat="44.46766" lon="0.79722">
        <ele>138</ele>
        <time>2012-09-09T07:07:21Z</time>
      </trkpt>
      <trkpt lat="44.46767" lon="0.79755">
        <ele>138</ele>
        <time>2012-09-09T07:07:26Z</time>
      </trkpt>
      <trkpt lat="44.46768" lon="0.79786">
        <ele>138</ele>
        <time>2012-09-09T07:07:31Z</time>
      </trkpt>
      <trkpt lat="44.46768" lon="0.79816">
        <ele>138</ele>
        <time>2012-09-09T07:07:36Z</time>
      </trkpt>
      <trkpt lat="44.46769" lon="0.79851">
        <ele>138</ele>
        <time>2012-09-09T07:07:41Z</time>
      </trkpt>
      <trkpt lat="44.46768" lon="0.7989">
        <ele>138</ele>
        <time>2012-09-09T07:07:46Z</time>
      </trkpt>
      <trkpt lat="44.46773" lon="0.79929">
        <ele>138</ele>
        <time>2012-09-09T07:07:51Z</time>
      </trkpt>
      <trkpt lat="44.46775" lon="0.79972">
        <ele>138</ele>
        <time>2012-09-09T07:07:56Z</time>
      </trkpt>
      <trkpt lat="44.46776" lon="0.80015">
        <ele>138</ele>
        <time>2012-09-09T07:08:01Z</time>
      </trkpt>
      <trkpt lat="44.46777" lon="0.80058">
        <ele>138</ele>
        <time>2012-09-09T07:08:06Z</time>
      </trkpt>
      <trkpt lat="44.46778" lon="0.80099">
        <ele>138</ele>
        <time>2012-09-09T07:08:11Z</time>
      </trkpt>
      <trkpt lat="44.46775" lon="0.80137">
        <ele>138</ele>
        <time>2012-09-09T07:08:16Z</time>
      </trkpt>
      <trkpt lat="44.46764" lon="0.8017">
        <ele>138</ele>
        <time>2012-09-09T07:08:21Z</time>
      </trkpt>
      <trkpt lat="44.46755" lon="0.80204">
        <ele>138</ele>
        <time>2012-09-09T07:08:26Z</time>
      </trkpt>
      <trkpt lat="44.46758" lon="0.8024">
        <ele>138</ele>
        <time>2012-09-09T07:08:31Z</time>
      </trkpt>
      <trkpt lat="44.46773" lon="0.80271">
        <ele>138</ele>
        <time>2012-09-09T07:08:36Z</time>
      </trkpt>
      <trkpt lat="44.46776" lon="0.80306">
        <ele>138</ele>
        <time>2012-09-09T07:08:41Z</time>
      </trkpt>
      <trkpt lat="44.46765" lon="0.80341">
        <ele>137</ele>
        <time>2012-09-09T07:08:46Z</time>
      </trkpt>
      <trkpt lat="44.46755" lon="0.80372">
        <ele>137</ele>
        <time>2012-09-09T07:08:51Z</time>
      </trkpt>
      <trkpt lat="44.46741" lon="0.80392">
        <ele>137</ele>
        <time>2012-09-09T07:08:56Z</time>
      </trkpt>
      <trkpt lat="44.4674" lon="0.80414">
        <ele>136</ele>
        <time>2012-09-09T07:09:01Z</time>
      </trkpt>
      <trkpt lat="44.4674" lon="0.80443">
        <ele>136</ele>
        <time>2012-09-09T07:09:06Z</time>
      </trkpt>
      <trkpt lat="44.46741" lon="0.80472">
        <ele>136</ele>
        <time>2012-09-09T07:09:11Z</time>
      </trkpt>
      <trkpt lat="44.46764" lon="0.80487">
        <ele>136</ele>
        <time>2012-09-09T07:09:16Z</time>
      </trkpt>
      <trkpt lat="44.46788" lon="0.80492">
        <ele>136</ele>
        <time>2012-09-09T07:09:21Z</time>
      </trkpt>
      <trkpt lat="44.46809" lon="0.80476">
        <ele>136</ele>
        <time>2012-09-09T07:09:26Z</time>
      </trkpt>
      <trkpt lat="44.46817" lon="0.80486">
        <ele>136</ele>
        <time>2012-09-09T07:09:31Z</time>
      </trkpt>
      <trkpt lat="44.46808" lon="0.80526">
        <ele>137</ele>
        <time>2012-09-09T07:09:36Z</time>
      </trkpt>
      <trkpt lat="44.46805" lon="0.80563">
        <ele>140</ele>
        <time>2012-09-09T07:09:41Z</time>
      </trkpt>
      <trkpt lat="44.46802" lon="0.80603">
        <ele>141</ele>
        <time>2012-09-09T07:09:46Z</time>
      </trkpt>
      <trkpt lat="44.46787" lon="0.80641">
        <ele>143</ele>
        <time>2012-09-09T07:09:51Z</time>
      </trkpt>
      <trkpt lat="44.46776" lon="0.80665">
        <ele>144</ele>
        <time>2012-09-09T07:09:56Z</time>
      </trkpt>
      <trkpt lat="44.46764" lon="0.80694">
        <ele>145</ele>
        <time>2012-09-09T07:10:01Z</time>
      </trkpt>
      <trkpt lat="44.46754" lon="0.80706">
        <ele>145</ele>
        <time>2012-09-09T07:10:06Z</time>
      </trkpt>
      <trkpt lat="44.46746" lon="0.80716">
        <ele>145</ele>
        <time>2012-09-09T07:10:13Z</time>
      </trkpt>
      <trkpt lat="44.46743" lon="0.80717">
        <ele>145</ele>
        <time>2012-09-09T07:10:20Z</time>
      </trkpt>
      <trkpt lat="44.46739" lon="0.80721">
        <ele>142</ele>
        <time>2012-09-09T07:10:25Z</time>
      </trkpt>
      <trkpt lat="44.46727" lon="0.80731">
        <ele>138</ele>
        <time>2012-09-09T07:10:30Z</time>
      </trkpt>
      <trkpt lat="44.46713" lon="0.80744">
        <ele>134</ele>
        <time>2012-09-09T07:10:35Z</time>
      </trkpt>
      <trkpt lat="44.46689" lon="0.80773">
        <ele>131</ele>
        <time>2012-09-09T07:10:40Z</time>
      </trkpt>
      <trkpt lat="44.46673" lon="0.80819">
        <ele>131</ele>
        <time>2012-09-09T07:10:45Z</time>
      </trkpt>
      <trkpt lat="44.46659" lon="0.80865">
        <ele>130</ele>
        <time>2012-09-09T07:10:50Z</time>
      </trkpt>
      <trkpt lat="44.46654" lon="0.80887">
        <ele>130</ele>
        <time>2012-09-09T07:10:55Z</time>
      </trkpt>
      <trkpt lat="44.46648" lon="0.80919">
        <ele>126</ele>
        <time>2012-09-09T07:11:00Z</time>
      </trkpt>
      <trkpt lat="44.46648" lon="0.80945">
        <ele>123</ele>
        <time>2012-09-09T07:11:05Z</time>
      </trkpt>
      <trkpt lat="44.46649" lon="0.80971">
        <ele>122</ele>
        <time>2012-09-09T07:11:10Z</time>
      </trkpt>
      <trkpt lat="44.46653" lon="0.81007">
        <ele>121</ele>
        <time>2012-09-09T07:11:15Z</time>
      </trkpt>
      <trkpt lat="44.4666" lon="0.81046">
        <ele>121</ele>
        <time>2012-09-09T07:11:20Z</time>
      </trkpt>
      <trkpt lat="44.4666" lon="0.81076">
        <ele>121</ele>
        <time>2012-09-09T07:11:25Z</time>
      </trkpt>
      <trkpt lat="44.46663" lon="0.811">
        <ele>122</ele>
        <time>2012-09-09T07:11:30Z</time>
      </trkpt>
      <trkpt lat="44.46664" lon="0.81122">
        <ele>127</ele>
        <time>2012-09-09T07:11:35Z</time>
      </trkpt>
      <trkpt lat="44.46666" lon="0.81142">
        <ele>132</ele>
        <time>2012-09-09T07:11:40Z</time>
      </trkpt>
      <trkpt lat="44.46664" lon="0.81162">
        <ele>136</ele>
        <time>2012-09-09T07:11:45Z</time>
      </trkpt>
      <trkpt lat="44.46667" lon="0.81179">
        <ele>138</ele>
        <time>2012-09-09T07:11:50Z</time>
      </trkpt>
      <trkpt lat="44.46671" lon="0.812">
        <ele>140</ele>
        <time>2012-09-09T07:11:55Z</time>
      </trkpt>
      <trkpt lat="44.4668" lon="0.81213">
        <ele>140</ele>
        <time>2012-09-09T07:12:00Z</time>
      </trkpt>
      <trkpt lat="44.46695" lon="0.8122">
        <ele>138</ele>
        <time>2012-09-09T07:12:05Z</time>
      </trkpt>
      <trkpt lat="44.46708" lon="0.81238">
        <ele>135</ele>
        <time>2012-09-09T07:12:10Z</time>
      </trkpt>
      <trkpt lat="44.46707" lon="0.81261">
        <ele>134</ele>
        <time>2012-09-09T07:12:15Z</time>
      </trkpt>
      <trkpt lat="44.46705" lon="0.81283">
        <ele>132</ele>
        <time>2012-09-09T07:12:20Z</time>
      </trkpt>
      <trkpt lat="44.46709" lon="0.81303">
        <ele>130</ele>
        <time>2012-09-09T07:12:25Z</time>
      </trkpt>
      <trkpt lat="44.46717" lon="0.81328">
        <ele>129</ele>
        <time>2012-09-09T07:12:30Z</time>
      </trkpt>
      <trkpt lat="44.4672" lon="0.81355">
        <ele>126</ele>
        <time>2012-09-09T07:12:35Z</time>
      </trkpt>
      <trkpt lat="44.46718" lon="0.81386">
        <ele>124</ele>
        <time>2012-09-09T07:12:40Z</time>
      </trkpt>
      <trkpt lat="44.46716" lon="0.81429">
        <ele>121</ele>
        <time>2012-09-09T07:12:45Z</time>
      </trkpt>
      <trkpt lat="44.46715" lon="0.81479">
        <ele>119</ele>
        <time>2012-09-09T07:12:50Z</time>
      </trkpt>
      <trkpt lat="44.46725" lon="0.8153">
        <ele>116</ele>
        <time>2012-09-09T07:12:56Z</time>
      </trkpt>
      <trkpt lat="44.46733" lon="0.81572">
        <ele>114</ele>
        <time>2012-09-09T07:13:01Z</time>
      </trkpt>
      <trkpt lat="44.46738" lon="0.81616">
        <ele>110</ele>
        <time>2012-09-09T07:13:06Z</time>
      </trkpt>
      <trkpt lat="44.46738" lon="0.81667">
        <ele>108</ele>
        <time>2012-09-09T07:13:12Z</time>
      </trkpt>
      <trkpt lat="44.46736" lon="0.81716">
        <ele>107</ele>
        <time>2012-09-09T07:13:17Z</time>
      </trkpt>
      <trkpt lat="44.4674" lon="0.81768">
        <ele>106</ele>
        <time>2012-09-09T07:13:23Z</time>
      </trkpt>
      <trkpt lat="44.46753" lon="0.81795">
        <ele>106</ele>
        <time>2012-09-09T07:13:28Z</time>
      </trkpt>
      <trkpt lat="44.46767" lon="0.81815">
        <ele>105</ele>
        <time>2012-09-09T07:13:33Z</time>
      </trkpt>
      <trkpt lat="44.4678" lon="0.81833">
        <ele>105</ele>
        <time>2012-09-09T07:13:38Z</time>
      </trkpt>
      <trkpt lat="44.46794" lon="0.81848">
        <ele>105</ele>
        <time>2012-09-09T07:13:43Z</time>
      </trkpt>
      <trkpt lat="44.46807" lon="0.81863">
        <ele>105</ele>
        <time>2012-09-09T07:13:48Z</time>
      </trkpt>
      <trkpt lat="44.46822" lon="0.8188">
        <ele>105</ele>
        <time>2012-09-09T07:13:54Z</time>
      </trkpt>
      <trkpt lat="44.46833" lon="0.81896">
        <ele>105</ele>
        <time>2012-09-09T07:13:59Z</time>
      </trkpt>
      <trkpt lat="44.4684" lon="0.81912">
        <ele>105</ele>
        <time>2012-09-09T07:14:04Z</time>
      </trkpt>
      <trkpt lat="44.46844" lon="0.81927">
        <ele>105</ele>
        <time>2012-09-09T07:14:09Z</time>
      </trkpt>
      <trkpt lat="44.46848" lon="0.81942">
        <ele>105</ele>
        <time>2012-09-09T07:14:14Z</time>
      </trkpt>
      <trkpt lat="44.46851" lon="0.81955">
        <ele>105</ele>
        <time>2012-09-09T07:14:19Z</time>
      </trkpt>
      <trkpt lat="44.46853" lon="0.81969">
        <ele>105</ele>
        <time>2012-09-09T07:14:24Z</time>
      </trkpt>
      <trkpt lat="44.46853" lon="0.81986">
        <ele>109</ele>
        <time>2012-09-09T07:14:29Z</time>
      </trkpt>
      <trkpt lat="44.46857" lon="0.82002">
        <ele>111</ele>
        <time>2012-09-09T07:14:34Z</time>
      </trkpt>
      <trkpt lat="44.46864" lon="0.82019">
        <ele>114</ele>
        <time>2012-09-09T07:14:39Z</time>
      </trkpt>
      <trkpt lat="44.46871" lon="0.82037">
        <ele>116</ele>
        <time>2012-09-09T07:14:44Z</time>
      </trkpt>
      <trkpt lat="44.4688" lon="0.82055">
        <ele>118</ele>
        <time>2012-09-09T07:14:49Z</time>
      </trkpt>
      <trkpt lat="44.46891" lon="0.82076">
        <ele>119</ele>
        <time>2012-09-09T07:14:54Z</time>
      </trkpt>
      <trkpt lat="44.46906" lon="0.82091">
        <ele>120</ele>
        <time>2012-09-09T07:14:59Z</time>
      </trkpt>
      <trkpt lat="44.46926" lon="0.8208">
        <ele>120</ele>
        <time>2012-09-09T07:15:04Z</time>
      </trkpt>
      <trkpt lat="44.46953" lon="0.82087">
        <ele>120</ele>
        <time>2012-09-09T07:15:09Z</time>
      </trkpt>
      <trkpt lat="44.46982" lon="0.82095">
        <ele>120</ele>
        <time>2012-09-09T07:15:14Z</time>
      </trkpt>
      <trkpt lat="44.47013" lon="0.82091">
        <ele>117</ele>
        <time>2012-09-09T07:15:19Z</time>
      </trkpt>
      <trkpt lat="44.47048" lon="0.82066">
        <ele>112</ele>
        <time>2012-09-09T07:15:24Z</time>
      </trkpt>
      <trkpt lat="44.47091" lon="0.82025">
        <ele>110</ele>
        <time>2012-09-09T07:15:30Z</time>
      </trkpt>
      <trkpt lat="44.47123" lon="0.81995">
        <ele>110</ele>
        <time>2012-09-09T07:15:35Z</time>
      </trkpt>
      <trkpt lat="44.47148" lon="0.81985">
        <ele>108</ele>
        <time>2012-09-09T07:15:40Z</time>
      </trkpt>
      <trkpt lat="44.4717" lon="0.82008">
        <ele>107</ele>
        <time>2012-09-09T07:15:45Z</time>
      </trkpt>
      <trkpt lat="44.47189" lon="0.82032">
        <ele>107</ele>
        <time>2012-09-09T07:15:50Z</time>
      </trkpt>
      <trkpt lat="44.47206" lon="0.82036">
        <ele>107</ele>
        <time>2012-09-09T07:15:55Z</time>
      </trkpt>
      <trkpt lat="44.47228" lon="0.82028">
        <ele>106</ele>
        <time>2012-09-09T07:16:00Z</time>
      </trkpt>
      <trkpt lat="44.4724" lon="0.82063">
        <ele>106</ele>
        <time>2012-09-09T07:16:06Z</time>
      </trkpt>
      <trkpt lat="44.47248" lon="0.821">
        <ele>107</ele>
        <time>2012-09-09T07:16:11Z</time>
      </trkpt>
      <trkpt lat="44.47248" lon="0.82134">
        <ele>107</ele>
        <time>2012-09-09T07:16:16Z</time>
      </trkpt>
      <trkpt lat="44.47225" lon="0.82149">
        <ele>107</ele>
        <time>2012-09-09T07:16:21Z</time>
      </trkpt>
      <trkpt lat="44.47199" lon="0.82165">
        <ele>107</ele>
        <time>2012-09-09T07:16:26Z</time>
      </trkpt>
      <trkpt lat="44.47184" lon="0.82183">
        <ele>109</ele>
        <time>2012-09-09T07:16:31Z</time>
      </trkpt>
      <trkpt lat="44.47191" lon="0.82211">
        <ele>110</ele>
        <time>2012-09-09T07:16:36Z</time>
      </trkpt>
      <trkpt lat="44.47219" lon="0.82225">
        <ele>110</ele>
        <time>2012-09-09T07:16:41Z</time>
      </trkpt>
      <trkpt lat="44.4725" lon="0.82231">
        <ele>110</ele>
        <time>2012-09-09T07:16:46Z</time>
      </trkpt>
      <trkpt lat="44.47278" lon="0.82237">
        <ele>110</ele>
        <time>2012-09-09T07:16:51Z</time>
      </trkpt>
      <trkpt lat="44.47311" lon="0.82242">
        <ele>106</ele>
        <time>2012-09-09T07:16:56Z</time>
      </trkpt>
      <trkpt lat="44.47347" lon="0.82248">
        <ele>103</ele>
        <time>2012-09-09T07:17:01Z</time>
      </trkpt>
      <trkpt lat="44.47374" lon="0.82255">
        <ele>101</ele>
        <time>2012-09-09T07:17:06Z</time>
      </trkpt>
      <trkpt lat="44.47386" lon="0.82284">
        <ele>101</ele>
        <time>2012-09-09T07:17:11Z</time>
      </trkpt>
      <trkpt lat="44.47396" lon="0.82325">
        <ele>101</ele>
        <time>2012-09-09T07:17:16Z</time>
      </trkpt>
      <trkpt lat="44.47403" lon="0.82367">
        <ele>101</ele>
        <time>2012-09-09T07:17:21Z</time>
      </trkpt>
      <trkpt lat="44.47414" lon="0.82407">
        <ele>101</ele>
        <time>2012-09-09T07:17:26Z</time>
      </trkpt>
      <trkpt lat="44.47434" lon="0.82451">
        <ele>101</ele>
        <time>2012-09-09T07:17:31Z</time>
      </trkpt>
      <trkpt lat="44.47449" lon="0.8249">
        <ele>101</ele>
        <time>2012-09-09T07:17:36Z</time>
      </trkpt>
      <trkpt lat="44.47463" lon="0.82512">
        <ele>101</ele>
        <time>2012-09-09T07:17:41Z</time>
      </trkpt>
      <trkpt lat="44.47466" lon="0.82516">
        <ele>97</ele>
        <time>2012-09-09T07:17:47Z</time>
      </trkpt>
      <trkpt lat="44.47467" lon="0.82521">
        <ele>95</ele>
        <time>2012-09-09T07:17:53Z</time>
      </trkpt>
      <trkpt lat="44.4747" lon="0.82529">
        <ele>94</ele>
        <time>2012-09-09T07:17:59Z</time>
      </trkpt>
      <trkpt lat="44.47471" lon="0.82547">
        <ele>94</ele>
        <time>2012-09-09T07:18:04Z</time>
      </trkpt>
      <trkpt lat="44.47488" lon="0.82578">
        <ele>93</ele>
        <time>2012-09-09T07:18:10Z</time>
      </trkpt>
      <trkpt lat="44.47509" lon="0.82601">
        <ele>91</ele>
        <time>2012-09-09T07:18:15Z</time>
      </trkpt>
      <trkpt lat="44.47528" lon="0.82618">
        <ele>89</ele>
        <time>2012-09-09T07:18:20Z</time>
      </trkpt>
      <trkpt lat="44.47555" lon="0.82631">
        <ele>86</ele>
        <time>2012-09-09T07:18:25Z</time>
      </trkpt>
      <trkpt lat="44.47581" lon="0.82631">
        <ele>85</ele>
        <time>2012-09-09T07:18:30Z</time>
      </trkpt>
      <trkpt lat="44.47609" lon="0.82633">
        <ele>84</ele>
        <time>2012-09-09T07:18:35Z</time>
      </trkpt>
      <trkpt lat="44.47635" lon="0.82617">
        <ele>84</ele>
        <time>2012-09-09T07:18:40Z</time>
      </trkpt>
      <trkpt lat="44.4766" lon="0.82599">
        <ele>83</ele>
        <time>2012-09-09T07:18:45Z</time>
      </trkpt>
      <trkpt lat="44.47682" lon="0.82576">
        <ele>81</ele>
        <time>2012-09-09T07:18:50Z</time>
      </trkpt>
      <trkpt lat="44.47701" lon="0.82548">
        <ele>80</ele>
        <time>2012-09-09T07:18:55Z</time>
      </trkpt>
      <trkpt lat="44.47706" lon="0.82515">
        <ele>80</ele>
        <time>2012-09-09T07:19:00Z</time>
      </trkpt>
      <trkpt lat="44.47715" lon="0.82481">
        <ele>80</ele>
        <time>2012-09-09T07:19:05Z</time>
      </trkpt>
      <trkpt lat="44.47738" lon="0.82454">
        <ele>80</ele>
        <time>2012-09-09T07:19:10Z</time>
      </trkpt>
      <trkpt lat="44.4776" lon="0.82428">
        <ele>78</ele>
        <time>2012-09-09T07:19:15Z</time>
      </trkpt>
      <trkpt lat="44.47782" lon="0.8241">
        <ele>76</ele>
        <time>2012-09-09T07:19:20Z</time>
      </trkpt>
      <trkpt lat="44.47804" lon="0.82407">
        <ele>76</ele>
        <time>2012-09-09T07:19:25Z</time>
      </trkpt>
      <trkpt lat="44.47827" lon="0.82397">
        <ele>75</ele>
        <time>2012-09-09T07:19:30Z</time>
      </trkpt>
      <trkpt lat="44.47844" lon="0.82392">
        <ele>75</ele>
        <time>2012-09-09T07:19:35Z</time>
      </trkpt>
      <trkpt lat="44.47849" lon="0.8242">
        <ele>75</ele>
        <time>2012-09-09T07:19:40Z</time>
      </trkpt>
      <trkpt lat="44.47842" lon="0.82453">
        <ele>76</ele>
        <time>2012-09-09T07:19:45Z</time>
      </trkpt>
      <trkpt lat="44.47823" lon="0.82474">
        <ele>80</ele>
        <time>2012-09-09T07:19:50Z</time>
      </trkpt>
      <trkpt lat="44.47807" lon="0.82492">
        <ele>80</ele>
        <time>2012-09-09T07:19:55Z</time>
      </trkpt>
      <trkpt lat="44.47792" lon="0.82509">
        <ele>80</ele>
        <time>2012-09-09T07:20:00Z</time>
      </trkpt>
      <trkpt lat="44.47778" lon="0.82525">
        <ele>81</ele>
        <time>2012-09-09T07:20:05Z</time>
      </trkpt>
      <trkpt lat="44.47765" lon="0.82541">
        <ele>81</ele>
        <time>2012-09-09T07:20:10Z</time>
      </trkpt>
      <trkpt lat="44.4775" lon="0.82556">
        <ele>82</ele>
        <time>2012-09-09T07:20:15Z</time>
      </trkpt>
      <trkpt lat="44.47741" lon="0.82575">
        <ele>83</ele>
        <time>2012-09-09T07:20:20Z</time>
      </trkpt>
      <trkpt lat="44.47744" lon="0.82594">
        <ele>85</ele>
        <time>2012-09-09T07:20:25Z</time>
      </trkpt>
      <trkpt lat="44.47745" lon="0.8262">
        <ele>88</ele>
        <time>2012-09-09T07:20:30Z</time>
      </trkpt>
      <trkpt lat="44.47749" lon="0.82645">
        <ele>90</ele>
        <time>2012-09-09T07:20:35Z</time>
      </trkpt>
      <trkpt lat="44.47749" lon="0.82671">
        <ele>91</ele>
        <time>2012-09-09T07:20:40Z</time>
      </trkpt>
      <trkpt lat="44.47746" lon="0.82695">
        <ele>92</ele>
        <time>2012-09-09T07:20:45Z</time>
      </trkpt>
      <trkpt lat="44.47737" lon="0.8272">
        <ele>92</ele>
        <time>2012-09-09T07:20:50Z</time>
      </trkpt>
      <trkpt lat="44.47729" lon="0.82746">
        <ele>93</ele>
        <time>2012-09-09T07:20:55Z</time>
      </trkpt>
      <trkpt lat="44.47726" lon="0.82772">
        <ele>93</ele>
        <time>2012-09-09T07:21:00Z</time>
      </trkpt>
      <trkpt lat="44.47729" lon="0.82802">
        <ele>93</ele>
        <time>2012-09-09T07:21:05Z</time>
      </trkpt>
      <trkpt lat="44.47731" lon="0.82832">
        <ele>93</ele>
        <time>2012-09-09T07:21:10Z</time>
      </trkpt>
      <trkpt lat="44.47729" lon="0.82861">
        <ele>93</ele>
        <time>2012-09-09T07:21:15Z</time>
      </trkpt>
      <trkpt lat="44.47727" lon="0.82891">
        <ele>93</ele>
        <time>2012-09-09T07:21:20Z</time>
      </trkpt>
      <trkpt lat="44.47723" lon="0.82918">
        <ele>93</ele>
        <time>2012-09-09T07:21:25Z</time>
      </trkpt>
      <trkpt lat="44.47718" lon="0.82945">
        <ele>93</ele>
        <time>2012-09-09T07:21:30Z</time>
      </trkpt>
      <trkpt lat="44.47713" lon="0.82969">
        <ele>93</ele>
        <time>2012-09-09T07:21:35Z</time>
      </trkpt>
      <trkpt lat="44.47705" lon="0.82993">
        <ele>93</ele>
        <time>2012-09-09T07:21:40Z</time>
      </trkpt>
      <trkpt lat="44.47694" lon="0.83016">
        <ele>93</ele>
        <time>2012-09-09T07:21:45Z</time>
      </trkpt>
      <trkpt lat="44.47683" lon="0.83038">
        <ele>93</ele>
        <time>2012-09-09T07:21:50Z</time>
      </trkpt>
      <trkpt lat="44.47672" lon="0.8306">
        <ele>93</ele>
        <time>2012-09-09T07:21:55Z</time>
      </trkpt>
      <trkpt lat="44.4766" lon="0.83082">
        <ele>93</ele>
        <time>2012-09-09T07:22:00Z</time>
      </trkpt>
      <trkpt lat="44.47647" lon="0.83104">
        <ele>93</ele>
        <time>2012-09-09T07:22:05Z</time>
      </trkpt>
      <trkpt lat="44.47638" lon="0.83123">
        <ele>93</ele>
        <time>2012-09-09T07:22:10Z</time>
      </trkpt>
      <trkpt lat="44.47628" lon="0.83143">
        <ele>93</ele>
        <time>2012-09-09T07:22:15Z</time>
      </trkpt>
      <trkpt lat="44.47618" lon="0.83167">
        <ele>93</ele>
        <time>2012-09-09T07:22:20Z</time>
      </trkpt>
      <trkpt lat="44.47604" lon="0.83194">
        <ele>93</ele>
        <time>2012-09-09T07:22:25Z</time>
      </trkpt>
      <trkpt lat="44.47587" lon="0.83211">
        <ele>93</ele>
        <time>2012-09-09T07:22:30Z</time>
      </trkpt>
      <trkpt lat="44.4757" lon="0.83225">
        <ele>93</ele>
        <time>2012-09-09T07:22:35Z</time>
      </trkpt>
      <trkpt lat="44.47555" lon="0.83249">
        <ele>93</ele>
        <time>2012-09-09T07:22:40Z</time>
      </trkpt>
      <trkpt lat="44.4754" lon="0.83274">
        <ele>93</ele>
        <time>2012-09-09T07:22:45Z</time>
      </trkpt>
      <trkpt lat="44.47526" lon="0.83294">
        <ele>93</ele>
        <time>2012-09-09T07:22:50Z</time>
      </trkpt>
      <trkpt lat="44.47512" lon="0.83311">
        <ele>93</ele>
        <time>2012-09-09T07:22:55Z</time>
      </trkpt>
      <trkpt lat="44.47501" lon="0.83334">
        <ele>93</ele>
        <time>2012-09-09T07:23:00Z</time>
      </trkpt>
      <trkpt lat="44.47491" lon="0.83361">
        <ele>93</ele>
        <time>2012-09-09T07:23:05Z</time>
      </trkpt>
      <trkpt lat="44.47487" lon="0.8339">
        <ele>94</ele>
        <time>2012-09-09T07:23:10Z</time>
      </trkpt>
      <trkpt lat="44.47485" lon="0.83416">
        <ele>94</ele>
        <time>2012-09-09T07:23:15Z</time>
      </trkpt>
      <trkpt lat="44.47483" lon="0.8344">
        <ele>94</ele>
        <time>2012-09-09T07:23:20Z</time>
      </trkpt>
      <trkpt lat="44.47481" lon="0.83464">
        <ele>95</ele>
        <time>2012-09-09T07:23:25Z</time>
      </trkpt>
      <trkpt lat="44.47479" lon="0.83492">
        <ele>96</ele>
        <time>2012-09-09T07:23:30Z</time>
      </trkpt>
      <trkpt lat="44.47475" lon="0.83528">
        <ele>96</ele>
        <time>2012-09-09T07:23:35Z</time>
      </trkpt>
      <trkpt lat="44.47474" lon="0.83566">
        <ele>96</ele>
        <time>2012-09-09T07:23:40Z</time>
      </trkpt>
      <trkpt lat="44.47472" lon="0.83603">
        <ele>96</ele>
        <time>2012-09-09T07:23:45Z</time>
      </trkpt>
      <trkpt lat="44.4747" lon="0.83637">
        <ele>96</ele>
        <time>2012-09-09T07:23:50Z</time>
      </trkpt>
      <trkpt lat="44.47466" lon="0.83673">
        <ele>97</ele>
        <time>2012-09-09T07:23:55Z</time>
      </trkpt>
      <trkpt lat="44.47459" lon="0.8372">
        <ele>97</ele>
        <time>2012-09-09T07:24:00Z</time>
      </trkpt>
      <trkpt lat="44.47456" lon="0.83775">
        <ele>97</ele>
        <time>2012-09-09T07:24:05Z</time>
      </trkpt>
      <trkpt lat="44.47451" lon="0.83828">
        <ele>97</ele>
        <time>2012-09-09T07:24:10Z</time>
      </trkpt>
      <trkpt lat="44.47445" lon="0.8388">
        <ele>97</ele>
        <time>2012-09-09T07:24:15Z</time>
      </trkpt>
      <trkpt lat="44.4744" lon="0.83928">
        <ele>97</ele>
        <time>2012-09-09T07:24:20Z</time>
      </trkpt>
      <trkpt lat="44.47435" lon="0.83971">
        <ele>97</ele>
        <time>2012-09-09T07:24:25Z</time>
      </trkpt>
      <trkpt lat="44.47431" lon="0.84012">
        <ele>97</ele>
        <time>2012-09-09T07:24:30Z</time>
      </trkpt>
      <trkpt lat="44.47427" lon="0.84049">
        <ele>97</ele>
        <time>2012-09-09T07:24:35Z</time>
      </trkpt>
      <trkpt lat="44.47424" lon="0.84088">
        <ele>97</ele>
        <time>2012-09-09T07:24:40Z</time>
      </trkpt>
      <trkpt lat="44.4743" lon="0.84119">
        <ele>97</ele>
        <time>2012-09-09T07:24:45Z</time>
      </trkpt>
      <trkpt lat="44.47451" lon="0.84143">
        <ele>97</ele>
        <time>2012-09-09T07:24:50Z</time>
      </trkpt>
      <trkpt lat="44.4747" lon="0.84169">
        <ele>97</ele>
        <time>2012-09-09T07:24:55Z</time>
      </trkpt>
      <trkpt lat="44.4749" lon="0.84196">
        <ele>97</ele>
        <time>2012-09-09T07:25:00Z</time>
      </trkpt>
      <trkpt lat="44.47509" lon="0.84225">
        <ele>97</ele>
        <time>2012-09-09T07:25:05Z</time>
      </trkpt>
      <trkpt lat="44.47525" lon="0.84261">
        <ele>97</ele>
        <time>2012-09-09T07:25:10Z</time>
      </trkpt>
      <trkpt lat="44.47543" lon="0.84299">
        <ele>97</ele>
        <time>2012-09-09T07:25:15Z</time>
      </trkpt>
      <trkpt lat="44.47561" lon="0.84333">
        <ele>97</ele>
        <time>2012-09-09T07:25:20Z</time>
      </trkpt>
      <trkpt lat="44.47577" lon="0.84363">
        <ele>97</ele>
        <time>2012-09-09T07:25:25Z</time>
      </trkpt>
      <trkpt lat="44.47589" lon="0.8439">
        <ele>97</ele>
        <time>2012-09-09T07:25:30Z</time>
      </trkpt>
      <trkpt lat="44.47598" lon="0.84416">
        <ele>97</ele>
        <time>2012-09-09T07:25:35Z</time>
      </trkpt>
      <trkpt lat="44.47606" lon="0.8444">
        <ele>97</ele>
        <time>2012-09-09T07:25:40Z</time>
      </trkpt>
      <trkpt lat="44.47613" lon="0.84464">
        <ele>97</ele>
        <time>2012-09-09T07:25:45Z</time>
      </trkpt>
      <trkpt lat="44.4762" lon="0.84488">
        <ele>97</ele>
        <time>2012-09-09T07:25:50Z</time>
      </trkpt>
      <trkpt lat="44.47628" lon="0.84514">
        <ele>97</ele>
        <time>2012-09-09T07:25:55Z</time>
      </trkpt>
      <trkpt lat="44.47635" lon="0.8454">
        <ele>97</ele>
        <time>2012-09-09T07:26:00Z</time>
      </trkpt>
      <trkpt lat="44.47642" lon="0.84565">
        <ele>97</ele>
        <time>2012-09-09T07:26:05Z</time>
      </trkpt>
      <trkpt lat="44.4765" lon="0.8459">
        <ele>97</ele>
        <time>2012-09-09T07:26:10Z</time>
      </trkpt>
      <trkpt lat="44.47658" lon="0.84612">
        <ele>97</ele>
        <time>2012-09-09T07:26:15Z</time>
      </trkpt>
      <trkpt lat="44.47668" lon="0.84628">
        <ele>97</ele>
        <time>2012-09-09T07:26:20Z</time>
      </trkpt>
      <trkpt lat="44.47679" lon="0.84631">
        <ele>99</ele>
        <time>2012-09-09T07:26:25Z</time>
      </trkpt>
      <trkpt lat="44.47691" lon="0.8463">
        <ele>101</ele>
        <time>2012-09-09T07:26:30Z</time>
      </trkpt>
      <trkpt lat="44.47704" lon="0.84629">
        <ele>103</ele>
        <time>2012-09-09T07:26:35Z</time>
      </trkpt>
      <trkpt lat="44.47716" lon="0.84629">
        <ele>105</ele>
        <time>2012-09-09T07:26:40Z</time>
      </trkpt>
      <trkpt lat="44.47727" lon="0.84634">
        <ele>107</ele>
        <time>2012-09-09T07:26:45Z</time>
      </trkpt>
      <trkpt lat="44.47735" lon="0.84645">
        <ele>108</ele>
        <time>2012-09-09T07:26:50Z</time>
      </trkpt>
      <trkpt lat="44.47743" lon="0.84654">
        <ele>108</ele>
        <time>2012-09-09T07:26:55Z</time>
      </trkpt>
      <trkpt lat="44.47747" lon="0.84661">
        <ele>108</ele>
        <time>2012-09-09T07:27:00Z</time>
      </trkpt>
      <trkpt lat="44.47749" lon="0.84664">
        <ele>108</ele>
        <time>2012-09-09T07:27:05Z</time>
      </trkpt>
      <trkpt lat="44.47747" lon="0.8468">
        <ele>108</ele>
        <time>2012-09-09T07:27:10Z</time>
      </trkpt>
      <trkpt lat="44.47738" lon="0.847">
        <ele>108</ele>
        <time>2012-09-09T07:27:15Z</time>
      </trkpt>
      <trkpt lat="44.4773" lon="0.84721">
        <ele>108</ele>
        <time>2012-09-09T07:27:20Z</time>
      </trkpt>
      <trkpt lat="44.47723" lon="0.84744">
        <ele>108</ele>
        <time>2012-09-09T07:27:25Z</time>
      </trkpt>
      <trkpt lat="44.4772" lon="0.84768">
        <ele>108</ele>
        <time>2012-09-09T07:27:30Z</time>
      </trkpt>
      <trkpt lat="44.47717" lon="0.84794">
        <ele>108</ele>
        <time>2012-09-09T07:27:35Z</time>
      </trkpt>
      <trkpt lat="44.47718" lon="0.84817">
        <ele>108</ele>
        <time>2012-09-09T07:27:40Z</time>
      </trkpt>
      <trkpt lat="44.47719" lon="0.84841">
        <ele>108</ele>
        <time>2012-09-09T07:27:45Z</time>
      </trkpt>
      <trkpt lat="44.47716" lon="0.84868">
        <ele>108</ele>
        <time>2012-09-09T07:27:50Z</time>
      </trkpt>
      <trkpt lat="44.47714" lon="0.84892">
        <ele>109</ele>
        <time>2012-09-09T07:27:55Z</time>
      </trkpt>
      <trkpt lat="44.47727" lon="0.84896">
        <ele>109</ele>
        <time>2012-09-09T07:28:00Z</time>
      </trkpt>
      <trkpt lat="44.47742" lon="0.84913">
        <ele>109</ele>
        <time>2012-09-09T07:28:05Z</time>
      </trkpt>
      <trkpt lat="44.47758" lon="0.84933">
        <ele>109</ele>
        <time>2012-09-09T07:28:10Z</time>
      </trkpt>
      <trkpt lat="44.47775" lon="0.84952">
        <ele>109</ele>
        <time>2012-09-09T07:28:15Z</time>
      </trkpt>
      <trkpt lat="44.47789" lon="0.84967">
        <ele>109</ele>
        <time>2012-09-09T07:28:20Z</time>
      </trkpt>
      <trkpt lat="44.47802" lon="0.84982">
        <ele>110</ele>
        <time>2012-09-09T07:28:25Z</time>
      </trkpt>
      <trkpt lat="44.47815" lon="0.84996">
        <ele>111</ele>
        <time>2012-09-09T07:28:30Z</time>
      </trkpt>
      <trkpt lat="44.47826" lon="0.8501">
        <ele>111</ele>
        <time>2012-09-09T07:28:35Z</time>
      </trkpt>
      <trkpt lat="44.47837" lon="0.85022">
        <ele>111</ele>
        <time>2012-09-09T07:28:40Z</time>
      </trkpt>
      <trkpt lat="44.47849" lon="0.85037">
        <ele>112</ele>
        <time>2012-09-09T07:28:45Z</time>
      </trkpt>
      <trkpt lat="44.47855" lon="0.85057">
        <ele>113</ele>
        <time>2012-09-09T07:28:50Z</time>
      </trkpt>
      <trkpt lat="44.47867" lon="0.85074">
        <ele>113</ele>
        <time>2012-09-09T07:28:55Z</time>
      </trkpt>
      <trkpt lat="44.47879" lon="0.85092">
        <ele>113</ele>
        <time>2012-09-09T07:29:00Z</time>
      </trkpt>
      <trkpt lat="44.47883" lon="0.85111">
        <ele>114</ele>
        <time>2012-09-09T07:29:05Z</time>
      </trkpt>
      <trkpt lat="44.4787" lon="0.85128">
        <ele>115</ele>
        <time>2012-09-09T07:29:10Z</time>
      </trkpt>
      <trkpt lat="44.47855" lon="0.85147">
        <ele>117</ele>
        <time>2012-09-09T07:29:15Z</time>
      </trkpt>
      <trkpt lat="44.47839" lon="0.85165">
        <ele>120</ele>
        <time>2012-09-09T07:29:20Z</time>
      </trkpt>
      <trkpt lat="44.47829" lon="0.85181">
        <ele>122</ele>
        <time>2012-09-09T07:29:25Z</time>
      </trkpt>
      <trkpt lat="44.4784" lon="0.85197">
        <ele>122</ele>
        <time>2012-09-09T07:29:30Z</time>
      </trkpt>
      <trkpt lat="44.47854" lon="0.85214">
        <ele>122</ele>
        <time>2012-09-09T07:29:35Z</time>
      </trkpt>
      <trkpt lat="44.47869" lon="0.85225">
        <ele>122</ele>
        <time>2012-09-09T07:29:40Z</time>
      </trkpt>
      <trkpt lat="44.47883" lon="0.85208">
        <ele>122</ele>
        <time>2012-09-09T07:29:45Z</time>
      </trkpt>
      <trkpt lat="44.47894" lon="0.85193">
        <ele>123</ele>
        <time>2012-09-09T07:29:50Z</time>
      </trkpt>
      <trkpt lat="44.47895" lon="0.85204">
        <ele>123</ele>
        <time>2012-09-09T07:29:55Z</time>
      </trkpt>
      <trkpt lat="44.47879" lon="0.85225">
        <ele>123</ele>
        <time>2012-09-09T07:30:00Z</time>
      </trkpt>
      <trkpt lat="44.47861" lon="0.85248">
        <ele>123</ele>
        <time>2012-09-09T07:30:05Z</time>
      </trkpt>
      <trkpt lat="44.47839" lon="0.85275">
        <ele>123</ele>
        <time>2012-09-09T07:30:10Z</time>
      </trkpt>
      <trkpt lat="44.47816" lon="0.85301">
        <ele>123</ele>
        <time>2012-09-09T07:30:15Z</time>
      </trkpt>
      <trkpt lat="44.47792" lon="0.85327">
        <ele>123</ele>
        <time>2012-09-09T07:30:20Z</time>
      </trkpt>
      <trkpt lat="44.47768" lon="0.85352">
        <ele>123</ele>
        <time>2012-09-09T07:30:25Z</time>
      </trkpt>
      <trkpt lat="44.47748" lon="0.85374">
        <ele>123</ele>
        <time>2012-09-09T07:30:30Z</time>
      </trkpt>
      <trkpt lat="44.47736" lon="0.85388">
        <ele>123</ele>
        <time>2012-09-09T07:30:35Z</time>
      </trkpt>
      <trkpt lat="44.47747" lon="0.85405">
        <ele>124</ele>
        <time>2012-09-09T07:30:40Z</time>
      </trkpt>
      <trkpt lat="44.47766" lon="0.85423">
        <ele>124</ele>
        <time>2012-09-09T07:30:45Z</time>
      </trkpt>
      <trkpt lat="44.47791" lon="0.85446">
        <ele>124</ele>
        <time>2012-09-09T07:30:50Z</time>
      </trkpt>
      <trkpt lat="44.47824" lon="0.85476">
        <ele>124</ele>
        <time>2012-09-09T07:30:55Z</time>
      </trkpt>
      <trkpt lat="44.47871" lon="0.85501">
        <ele>123</ele>
        <time>2012-09-09T07:31:00Z</time>
      </trkpt>
      <trkpt lat="44.47926" lon="0.8551">
        <ele>119</ele>
        <time>2012-09-09T07:31:05Z</time>
      </trkpt>
      <trkpt lat="44.47982" lon="0.85515">
        <ele>114</ele>
        <time>2012-09-09T07:31:10Z</time>
      </trkpt>
      <trkpt lat="44.48032" lon="0.85529">
        <ele>111</ele>
        <time>2012-09-09T07:31:15Z</time>
      </trkpt>
      <trkpt lat="44.48077" lon="0.85546">
        <ele>109</ele>
        <time>2012-09-09T07:31:20Z</time>
      </trkpt>
      <trkpt lat="44.48117" lon="0.85554">
        <ele>106</ele>
        <time>2012-09-09T07:31:25Z</time>
      </trkpt>
      <trkpt lat="44.48154" lon="0.85558">
        <ele>105</ele>
        <time>2012-09-09T07:31:30Z</time>
      </trkpt>
      <trkpt lat="44.48191" lon="0.85562">
        <ele>103</ele>
        <time>2012-09-09T07:31:35Z</time>
      </trkpt>
      <trkpt lat="44.48229" lon="0.85564">
        <ele>103</ele>
        <time>2012-09-09T07:31:40Z</time>
      </trkpt>
      <trkpt lat="44.48259" lon="0.85559">
        <ele>103</ele>
        <time>2012-09-09T07:31:45Z</time>
      </trkpt>
      <trkpt lat="44.48262" lon="0.85575">
        <ele>103</ele>
        <time>2012-09-09T07:31:50Z</time>
      </trkpt>
      <trkpt lat="44.48255" lon="0.85596">
        <ele>105</ele>
        <time>2012-09-09T07:31:55Z</time>
      </trkpt>
      <trkpt lat="44.48246" lon="0.8562">
        <ele>107</ele>
        <time>2012-09-09T07:32:00Z</time>
      </trkpt>
      <trkpt lat="44.48235" lon="0.85644">
        <ele>108</ele>
        <time>2012-09-09T07:32:05Z</time>
      </trkpt>
      <trkpt lat="44.48224" lon="0.85673">
        <ele>113</ele>
        <time>2012-09-09T07:32:10Z</time>
      </trkpt>
      <trkpt lat="44.48216" lon="0.85695">
        <ele>114</ele>
        <time>2012-09-09T07:32:15Z</time>
      </trkpt>
      <trkpt lat="44.48212" lon="0.85716">
        <ele>114</ele>
        <time>2012-09-09T07:32:20Z</time>
      </trkpt>
      <trkpt lat="44.48206" lon="0.8573">
        <ele>114</ele>
        <time>2012-09-09T07:32:25Z</time>
      </trkpt>
      <trkpt lat="44.48199" lon="0.85745">
        <ele>114</ele>
        <time>2012-09-09T07:32:30Z</time>
      </trkpt>
      <trkpt lat="44.48189" lon="0.85765">
        <ele>114</ele>
        <time>2012-09-09T07:32:35Z</time>
      </trkpt>
      <trkpt lat="44.48173" lon="0.85787">
        <ele>115</ele>
        <time>2012-09-09T07:32:40Z</time>
      </trkpt>
      <trkpt lat="44.48157" lon="0.85812">
        <ele>119</ele>
        <time>2012-09-09T07:32:45Z</time>
      </trkpt>
      <trkpt lat="44.48143" lon="0.85833">
        <ele>124</ele>
        <time>2012-09-09T07:32:50Z</time>
      </trkpt>
      <trkpt lat="44.48132" lon="0.85852">
        <ele>124</ele>
        <time>2012-09-09T07:32:55Z</time>
      </trkpt>
      <trkpt lat="44.48119" lon="0.8587">
        <ele>124</ele>
        <time>2012-09-09T07:33:00Z</time>
      </trkpt>
      <trkpt lat="44.48105" lon="0.85887">
        <ele>124</ele>
        <time>2012-09-09T07:33:05Z</time>
      </trkpt>
      <trkpt lat="44.4809" lon="0.85902">
        <ele>124</ele>
        <time>2012-09-09T07:33:10Z</time>
      </trkpt>
      <trkpt lat="44.48076" lon="0.85915">
        <ele>124</ele>
        <time>2012-09-09T07:33:15Z</time>
      </trkpt>
      <trkpt lat="44.48067" lon="0.85929">
        <ele>124</ele>
        <time>2012-09-09T07:33:20Z</time>
      </trkpt>
      <trkpt lat="44.48061" lon="0.85943">
        <ele>124</ele>
        <time>2012-09-09T07:33:25Z</time>
      </trkpt>
      <trkpt lat="44.48055" lon="0.85955">
        <ele>126</ele>
        <time>2012-09-09T07:33:30Z</time>
      </trkpt>
      <trkpt lat="44.4805" lon="0.85967">
        <ele>129</ele>
        <time>2012-09-09T07:33:35Z</time>
      </trkpt>
      <trkpt lat="44.48045" lon="0.85981">
        <ele>132</ele>
        <time>2012-09-09T07:33:40Z</time>
      </trkpt>
      <trkpt lat="44.4804" lon="0.85996">
        <ele>136</ele>
        <time>2012-09-09T07:33:45Z</time>
      </trkpt>
      <trkpt lat="44.48034" lon="0.8601">
        <ele>138</ele>
        <time>2012-09-09T07:33:50Z</time>
      </trkpt>
      <trkpt lat="44.48028" lon="0.86026">
        <ele>139</ele>
        <time>2012-09-09T07:33:55Z</time>
      </trkpt>
      <trkpt lat="44.48024" lon="0.86039">
        <ele>140</ele>
        <time>2012-09-09T07:34:00Z</time>
      </trkpt>
      <trkpt lat="44.48022" lon="0.86052">
        <ele>140</ele>
        <time>2012-09-09T07:34:05Z</time>
      </trkpt>
      <trkpt lat="44.48019" lon="0.86066">
        <ele>140</ele>
        <time>2012-09-09T07:34:10Z</time>
      </trkpt>
      <trkpt lat="44.48011" lon="0.86084">
        <ele>144</ele>
        <time>2012-09-09T07:34:16Z</time>
      </trkpt>
      <trkpt lat="44.48" lon="0.861">
        <ele>146</ele>
        <time>2012-09-09T07:34:22Z</time>
      </trkpt>
      <trkpt lat="44.47984" lon="0.86113">
        <ele>146</ele>
        <time>2012-09-09T07:34:27Z</time>
      </trkpt>
      <trkpt lat="44.47966" lon="0.86127">
        <ele>147</ele>
        <time>2012-09-09T07:34:32Z</time>
      </trkpt>
      <trkpt lat="44.47946" lon="0.86138">
        <ele>147</ele>
        <time>2012-09-09T07:34:37Z</time>
      </trkpt>
      <trkpt lat="44.47924" lon="0.86152">
        <ele>147</ele>
        <time>2012-09-09T07:34:42Z</time>
      </trkpt>
      <trkpt lat="44.47901" lon="0.86168">
        <ele>148</ele>
        <time>2012-09-09T07:34:47Z</time>
      </trkpt>
      <trkpt lat="44.47883" lon="0.86184">
        <ele>150</ele>
        <time>2012-09-09T07:34:52Z</time>
      </trkpt>
      <trkpt lat="44.47875" lon="0.86201">
        <ele>150</ele>
        <time>2012-09-09T07:34:57Z</time>
      </trkpt>
      <trkpt lat="44.47856" lon="0.86216">
        <ele>150</ele>
        <time>2012-09-09T07:35:02Z</time>
      </trkpt>
      <trkpt lat="44.47832" lon="0.86235">
        <ele>150</ele>
        <time>2012-09-09T07:35:07Z</time>
      </trkpt>
      <trkpt lat="44.47806" lon="0.86246">
        <ele>150</ele>
        <time>2012-09-09T07:35:12Z</time>
      </trkpt>
      <trkpt lat="44.47778" lon="0.86259">
        <ele>150</ele>
        <time>2012-09-09T07:35:17Z</time>
      </trkpt>
      <trkpt lat="44.47751" lon="0.86278">
        <ele>147</ele>
        <time>2012-09-09T07:35:22Z</time>
      </trkpt>
      <trkpt lat="44.47722" lon="0.86296">
        <ele>147</ele>
        <time>2012-09-09T07:35:27Z</time>
      </trkpt>
      <trkpt lat="44.47699" lon="0.86316">
        <ele>147</ele>
        <time>2012-09-09T07:35:32Z</time>
      </trkpt>
      <trkpt lat="44.47671" lon="0.8633">
        <ele>147</ele>
        <time>2012-09-09T07:35:38Z</time>
      </trkpt>
      <trkpt lat="44.47657" lon="0.86316">
        <ele>147</ele>
        <time>2012-09-09T07:35:43Z</time>
      </trkpt>
      <trkpt lat="44.47647" lon="0.86299">
        <ele>147</ele>
        <time>2012-09-09T07:35:48Z</time>
      </trkpt>
      <trkpt lat="44.47635" lon="0.86277">
        <ele>147</ele>
        <time>2012-09-09T07:35:53Z</time>
      </trkpt>
      <trkpt lat="44.47625" lon="0.86247">
        <ele>147</ele>
        <time>2012-09-09T07:35:58Z</time>
      </trkpt>
      <trkpt lat="44.47609" lon="0.86203">
        <ele>145</ele>
        <time>2012-09-09T07:36:04Z</time>
      </trkpt>
      <trkpt lat="44.47588" lon="0.86172">
        <ele>143</ele>
        <time>2012-09-09T07:36:09Z</time>
      </trkpt>
      <trkpt lat="44.47562" lon="0.8614">
        <ele>143</ele>
        <time>2012-09-09T07:36:15Z</time>
      </trkpt>
      <trkpt lat="44.47545" lon="0.86116">
        <ele>143</ele>
        <time>2012-09-09T07:36:20Z</time>
      </trkpt>
      <trkpt lat="44.47531" lon="0.86089">
        <ele>143</ele>
        <time>2012-09-09T07:36:25Z</time>
      </trkpt>
      <trkpt lat="44.47519" lon="0.86061">
        <ele>143</ele>
        <time>2012-09-09T07:36:30Z</time>
      </trkpt>
      <trkpt lat="44.47504" lon="0.86036">
        <ele>143</ele>
        <time>2012-09-09T07:36:35Z</time>
      </trkpt>
      <trkpt lat="44.47487" lon="0.86017">
        <ele>143</ele>
        <time>2012-09-09T07:36:40Z</time>
      </trkpt>
      <trkpt lat="44.47469" lon="0.86002">
        <ele>143</ele>
        <time>2012-09-09T07:36:45Z</time>
      </trkpt>
      <trkpt lat="44.47456" lon="0.85986">
        <ele>143</ele>
        <time>2012-09-09T07:36:50Z</time>
      </trkpt>
      <trkpt lat="44.47444" lon="0.85972">
        <ele>143</ele>
        <time>2012-09-09T07:36:55Z</time>
      </trkpt>
      <trkpt lat="44.47426" lon="0.8597">
        <ele>143</ele>
        <time>2012-09-09T07:37:00Z</time>
      </trkpt>
      <trkpt lat="44.47409" lon="0.85971">
        <ele>143</ele>
        <time>2012-09-09T07:37:05Z</time>
      </trkpt>
      <trkpt lat="44.47392" lon="0.85973">
        <ele>143</ele>
        <time>2012-09-09T07:37:10Z</time>
      </trkpt>
      <trkpt lat="44.47374" lon="0.85984">
        <ele>143</ele>
        <time>2012-09-09T07:37:15Z</time>
      </trkpt>
      <trkpt lat="44.47347" lon="0.85994">
        <ele>143</ele>
        <time>2012-09-09T07:37:20Z</time>
      </trkpt>
      <trkpt lat="44.47318" lon="0.85993">
        <ele>143</ele>
        <time>2012-09-09T07:37:25Z</time>
      </trkpt>
      <trkpt lat="44.47294" lon="0.85971">
        <ele>143</ele>
        <time>2012-09-09T07:37:30Z</time>
      </trkpt>
      <trkpt lat="44.47275" lon="0.85938">
        <ele>142</ele>
        <time>2012-09-09T07:37:35Z</time>
      </trkpt>
      <trkpt lat="44.47259" lon="0.85904">
        <ele>139</ele>
        <time>2012-09-09T07:37:40Z</time>
      </trkpt>
      <trkpt lat="44.47243" lon="0.85874">
        <ele>137</ele>
        <time>2012-09-09T07:37:45Z</time>
      </trkpt>
      <trkpt lat="44.47231" lon="0.85849">
        <ele>137</ele>
        <time>2012-09-09T07:37:50Z</time>
      </trkpt>
      <trkpt lat="44.47215" lon="0.85824">
        <ele>137</ele>
        <time>2012-09-09T07:37:55Z</time>
      </trkpt>
      <trkpt lat="44.47196" lon="0.85798">
        <ele>137</ele>
        <time>2012-09-09T07:38:00Z</time>
      </trkpt>
      <trkpt lat="44.47176" lon="0.85769">
        <ele>137</ele>
        <time>2012-09-09T07:38:06Z</time>
      </trkpt>
      <trkpt lat="44.47181" lon="0.85752">
        <ele>137</ele>
        <time>2012-09-09T07:38:11Z</time>
      </trkpt>
      <trkpt lat="44.47195" lon="0.85742">
        <ele>137</ele>
        <time>2012-09-09T07:38:16Z</time>
      </trkpt>
      <trkpt lat="44.47214" lon="0.85733">
        <ele>137</ele>
        <time>2012-09-09T07:38:21Z</time>
      </trkpt>
      <trkpt lat="44.47234" lon="0.85724">
        <ele>137</ele>
        <time>2012-09-09T07:38:26Z</time>
      </trkpt>
      <trkpt lat="44.47256" lon="0.85712">
        <ele>137</ele>
        <time>2012-09-09T07:38:31Z</time>
      </trkpt>
      <trkpt lat="44.47277" lon="0.85703">
        <ele>137</ele>
        <time>2012-09-09T07:38:36Z</time>
      </trkpt>
      <trkpt lat="44.47294" lon="0.85694">
        <ele>137</ele>
        <time>2012-09-09T07:38:41Z</time>
      </trkpt>
      <trkpt lat="44.47309" lon="0.85679">
        <ele>137</ele>
        <time>2012-09-09T07:38:46Z</time>
      </trkpt>
      <trkpt lat="44.47326" lon="0.85661">
        <ele>138</ele>
        <time>2012-09-09T07:38:52Z</time>
      </trkpt>
      <trkpt lat="44.47339" lon="0.85643">
        <ele>141</ele>
        <time>2012-09-09T07:38:57Z</time>
      </trkpt>
      <trkpt lat="44.47318" lon="0.85608">
        <ele>141</ele>
        <time>2012-09-09T07:39:03Z</time>
      </trkpt>
      <trkpt lat="44.4728" lon="0.85558">
        <ele>138</ele>
        <time>2012-09-09T07:39:08Z</time>
      </trkpt>
      <trkpt lat="44.47246" lon="0.85515">
        <ele>133</ele>
        <time>2012-09-09T07:39:13Z</time>
      </trkpt>
      <trkpt lat="44.47243" lon="0.85488">
        <ele>128</ele>
        <time>2012-09-09T07:39:18Z</time>
      </trkpt>
      <trkpt lat="44.47267" lon="0.8546">
        <ele>124</ele>
        <time>2012-09-09T07:39:23Z</time>
      </trkpt>
      <trkpt lat="44.47276" lon="0.85431">
        <ele>123</ele>
        <time>2012-09-09T07:39:28Z</time>
      </trkpt>
      <trkpt lat="44.47248" lon="0.85392">
        <ele>121</ele>
        <time>2012-09-09T07:39:33Z</time>
      </trkpt>
      <trkpt lat="44.4724" lon="0.85353">
        <ele>119</ele>
        <time>2012-09-09T07:39:39Z</time>
      </trkpt>
      <trkpt lat="44.47244" lon="0.85339">
        <ele>119</ele>
        <time>2012-09-09T07:39:45Z</time>
      </trkpt>
      <trkpt lat="44.47225" lon="0.8536">
        <ele>119</ele>
        <time>2012-09-09T07:39:50Z</time>
      </trkpt>
      <trkpt lat="44.47207" lon="0.85382">
        <ele>116</ele>
        <time>2012-09-09T07:39:55Z</time>
      </trkpt>
      <trkpt lat="44.4719" lon="0.85401">
        <ele>115</ele>
        <time>2012-09-09T07:40:01Z</time>
      </trkpt>
      <trkpt lat="44.47182" lon="0.85412">
        <ele>115</ele>
        <time>2012-09-09T07:40:06Z</time>
      </trkpt>
      <trkpt lat="44.47177" lon="0.85421">
        <ele>115</ele>
        <time>2012-09-09T07:40:11Z</time>
      </trkpt>
      <trkpt lat="44.47166" lon="0.85431">
        <ele>115</ele>
        <time>2012-09-09T07:40:16Z</time>
      </trkpt>
      <trkpt lat="44.47155" lon="0.85442">
        <ele>115</ele>
        <time>2012-09-09T07:40:21Z</time>
      </trkpt>
      <trkpt lat="44.47142" lon="0.85455">
        <ele>115</ele>
        <time>2012-09-09T07:40:27Z</time>
      </trkpt>
      <trkpt lat="44.47127" lon="0.85467">
        <ele>115</ele>
        <time>2012-09-09T07:40:32Z</time>
      </trkpt>
      <trkpt lat="44.4711" lon="0.8548">
        <ele>115</ele>
        <time>2012-09-09T07:40:38Z</time>
      </trkpt>
      <trkpt lat="44.47096" lon="0.8549">
        <ele>115</ele>
        <time>2012-09-09T07:40:43Z</time>
      </trkpt>
      <trkpt lat="44.47082" lon="0.85502">
        <ele>115</ele>
        <time>2012-09-09T07:40:48Z</time>
      </trkpt>
      <trkpt lat="44.47063" lon="0.85506">
        <ele>115</ele>
        <time>2012-09-09T07:40:54Z</time>
      </trkpt>
      <trkpt lat="44.47039" lon="0.85487">
        <ele>115</ele>
        <time>2012-09-09T07:41:00Z</time>
      </trkpt>
      <trkpt lat="44.47011" lon="0.85464">
        <ele>115</ele>
        <time>2012-09-09T07:41:06Z</time>
      </trkpt>
      <trkpt lat="44.46986" lon="0.85436">
        <ele>115</ele>
        <time>2012-09-09T07:41:12Z</time>
      </trkpt>
      <trkpt lat="44.46967" lon="0.85411">
        <ele>115</ele>
        <time>2012-09-09T07:41:17Z</time>
      </trkpt>
      <trkpt lat="44.46945" lon="0.85383">
        <ele>115</ele>
        <time>2012-09-09T07:41:23Z</time>
      </trkpt>
      <trkpt lat="44.46918" lon="0.85348">
        <ele>115</ele>
        <time>2012-09-09T07:41:29Z</time>
      </trkpt>
      <trkpt lat="44.46893" lon="0.85316">
        <ele>115</ele>
        <time>2012-09-09T07:41:34Z</time>
      </trkpt>
      <trkpt lat="44.46867" lon="0.85285">
        <ele>115</ele>
        <time>2012-09-09T07:41:39Z</time>
      </trkpt>
      <trkpt lat="44.46853" lon="0.8526">
        <ele>115</ele>
        <time>2012-09-09T07:41:44Z</time>
      </trkpt>
      <trkpt lat="44.46863" lon="0.85236">
        <ele>115</ele>
        <time>2012-09-09T07:41:50Z</time>
      </trkpt>
      <trkpt lat="44.46874" lon="0.8521">
        <ele>115</ele>
        <time>2012-09-09T07:41:55Z</time>
      </trkpt>
      <trkpt lat="44.46884" lon="0.85176">
        <ele>115</ele>
        <time>2012-09-09T07:42:00Z</time>
      </trkpt>
      <trkpt lat="44.46894" lon="0.85141">
        <ele>114</ele>
        <time>2012-09-09T07:42:05Z</time>
      </trkpt>
      <trkpt lat="44.46894" lon="0.851">
        <ele>113</ele>
        <time>2012-09-09T07:42:10Z</time>
      </trkpt>
      <trkpt lat="44.46901" lon="0.85061">
        <ele>112</ele>
        <time>2012-09-09T07:42:15Z</time>
      </trkpt>
      <trkpt lat="44.4692" lon="0.85022">
        <ele>112</ele>
        <time>2012-09-09T07:42:21Z</time>
      </trkpt>
      <trkpt lat="44.46907" lon="0.84993">
        <ele>112</ele>
        <time>2012-09-09T07:42:26Z</time>
      </trkpt>
      <trkpt lat="44.46884" lon="0.84961">
        <ele>111</ele>
        <time>2012-09-09T07:42:31Z</time>
      </trkpt>
      <trkpt lat="44.46853" lon="0.84922">
        <ele>110</ele>
        <time>2012-09-09T07:42:37Z</time>
      </trkpt>
      <trkpt lat="44.46821" lon="0.84893">
        <ele>109</ele>
        <time>2012-09-09T07:42:43Z</time>
      </trkpt>
      <trkpt lat="44.46797" lon="0.84865">
        <ele>108</ele>
        <time>2012-09-09T07:42:48Z</time>
      </trkpt>
      <trkpt lat="44.46776" lon="0.84833">
        <ele>107</ele>
        <time>2012-09-09T07:42:53Z</time>
      </trkpt>
      <trkpt lat="44.4676" lon="0.84799">
        <ele>106</ele>
        <time>2012-09-09T07:42:58Z</time>
      </trkpt>
      <trkpt lat="44.46746" lon="0.84765">
        <ele>106</ele>
        <time>2012-09-09T07:43:03Z</time>
      </trkpt>
      <trkpt lat="44.4673" lon="0.84727">
        <ele>104</ele>
        <time>2012-09-09T07:43:08Z</time>
      </trkpt>
      <trkpt lat="44.46699" lon="0.84698">
        <ele>102</ele>
        <time>2012-09-09T07:43:13Z</time>
      </trkpt>
      <trkpt lat="44.46664" lon="0.84688">
        <ele>100</ele>
        <time>2012-09-09T07:43:18Z</time>
      </trkpt>
      <trkpt lat="44.46624" lon="0.8467">
        <ele>99</ele>
        <time>2012-09-09T07:43:24Z</time>
      </trkpt>
      <trkpt lat="44.46594" lon="0.84655">
        <ele>99</ele>
        <time>2012-09-09T07:43:29Z</time>
      </trkpt>
      <trkpt lat="44.46566" lon="0.84637">
        <ele>99</ele>
        <time>2012-09-09T07:43:34Z</time>
      </trkpt>
      <trkpt lat="44.46541" lon="0.84618">
        <ele>99</ele>
        <time>2012-09-09T07:43:39Z</time>
      </trkpt>
      <trkpt lat="44.46509" lon="0.84597">
        <ele>99</ele>
        <time>2012-09-09T07:43:45Z</time>
      </trkpt>
      <trkpt lat="44.46483" lon="0.84583">
        <ele>99</ele>
        <time>2012-09-09T07:43:50Z</time>
      </trkpt>
      <trkpt lat="44.46461" lon="0.84567">
        <ele>99</ele>
        <time>2012-09-09T07:43:55Z</time>
      </trkpt>
      <trkpt lat="44.46437" lon="0.8455">
        <ele>99</ele>
        <time>2012-09-09T07:44:01Z</time>
      </trkpt>
      <trkpt lat="44.46415" lon="0.84535">
        <ele>99</ele>
        <time>2012-09-09T07:44:07Z</time>
      </trkpt>
      <trkpt lat="44.46397" lon="0.84525">
        <ele>99</ele>
        <time>2012-09-09T07:44:12Z</time>
      </trkpt>
      <trkpt lat="44.4638" lon="0.84514">
        <ele>100</ele>
        <time>2012-09-09T07:44:17Z</time>
      </trkpt>
      <trkpt lat="44.46364" lon="0.84503">
        <ele>101</ele>
        <time>2012-09-09T07:44:22Z</time>
      </trkpt>
      <trkpt lat="44.46348" lon="0.84492">
        <ele>101</ele>
        <time>2012-09-09T07:44:27Z</time>
      </trkpt>
      <trkpt lat="44.46333" lon="0.84482">
        <ele>102</ele>
        <time>2012-09-09T07:44:32Z</time>
      </trkpt>
      <trkpt lat="44.46318" lon="0.84472">
        <ele>103</ele>
        <time>2012-09-09T07:44:37Z</time>
      </trkpt>
      <trkpt lat="44.46302" lon="0.84461">
        <ele>105</ele>
        <time>2012-09-09T07:44:43Z</time>
      </trkpt>
      <trkpt lat="44.46289" lon="0.84452">
        <ele>106</ele>
        <time>2012-09-09T07:44:48Z</time>
      </trkpt>
      <trkpt lat="44.46277" lon="0.84443">
        <ele>108</ele>
        <time>2012-09-09T07:44:53Z</time>
      </trkpt>
      <trkpt lat="44.46265" lon="0.84434">
        <ele>109</ele>
        <time>2012-09-09T07:44:58Z</time>
      </trkpt>
      <trkpt lat="44.46253" lon="0.84426">
        <ele>111</ele>
        <time>2012-09-09T07:45:03Z</time>
      </trkpt>
      <trkpt lat="44.46242" lon="0.8442">
        <ele>112</ele>
        <time>2012-09-09T07:45:08Z</time>
      </trkpt>
      <trkpt lat="44.46231" lon="0.84412">
        <ele>113</ele>
        <time>2012-09-09T07:45:13Z</time>
      </trkpt>
      <trkpt lat="44.4622" lon="0.84407">
        <ele>114</ele>
        <time>2012-09-09T07:45:18Z</time>
      </trkpt>
      <trkpt lat="44.46211" lon="0.84409">
        <ele>115</ele>
        <time>2012-09-09T07:45:23Z</time>
      </trkpt>
      <trkpt lat="44.46202" lon="0.84421">
        <ele>116</ele>
        <time>2012-09-09T07:45:28Z</time>
      </trkpt>
      <trkpt lat="44.46194" lon="0.84432">
        <ele>116</ele>
        <time>2012-09-09T07:45:33Z</time>
      </trkpt>
      <trkpt lat="44.46183" lon="0.8444">
        <ele>117</ele>
        <time>2012-09-09T07:45:38Z</time>
      </trkpt>
      <trkpt lat="44.46171" lon="0.84447">
        <ele>117</ele>
        <time>2012-09-09T07:45:43Z</time>
      </trkpt>
      <trkpt lat="44.46159" lon="0.84453">
        <ele>118</ele>
        <time>2012-09-09T07:45:48Z</time>
      </trkpt>
      <trkpt lat="44.46143" lon="0.8446">
        <ele>118</ele>
        <time>2012-09-09T07:45:53Z</time>
      </trkpt>
      <trkpt lat="44.46127" lon="0.84468">
        <ele>118</ele>
        <time>2012-09-09T07:45:58Z</time>
      </trkpt>
      <trkpt lat="44.4611" lon="0.84477">
        <ele>118</ele>
        <time>2012-09-09T07:46:03Z</time>
      </trkpt>
      <trkpt lat="44.4609" lon="0.84489">
        <ele>118</ele>
        <time>2012-09-09T07:46:09Z</time>
      </trkpt>
      <trkpt lat="44.46073" lon="0.845">
        <ele>118</ele>
        <time>2012-09-09T07:46:14Z</time>
      </trkpt>
      <trkpt lat="44.46055" lon="0.84509">
        <ele>118</ele>
        <time>2012-09-09T07:46:19Z</time>
      </trkpt>
      <trkpt lat="44.4604" lon="0.84496">
        <ele>118</ele>
        <time>2012-09-09T07:46:24Z</time>
      </trkpt>
      <trkpt lat="44.46029" lon="0.84479">
        <ele>118</ele>
        <time>2012-09-09T07:46:29Z</time>
      </trkpt>
      <trkpt lat="44.46019" lon="0.84464">
        <ele>118</ele>
        <time>2012-09-09T07:46:34Z</time>
      </trkpt>
      <trkpt lat="44.46008" lon="0.84448">
        <ele>118</ele>
        <time>2012-09-09T07:46:39Z</time>
      </trkpt>
      <trkpt lat="44.45998" lon="0.84433">
        <ele>119</ele>
        <time>2012-09-09T07:46:44Z</time>
      </trkpt>
      <trkpt lat="44.45987" lon="0.84417">
        <ele>121</ele>
        <time>2012-09-09T07:46:49Z</time>
      </trkpt>
      <trkpt lat="44.45974" lon="0.84399">
        <ele>123</ele>
        <time>2012-09-09T07:46:55Z</time>
      </trkpt>
      <trkpt lat="44.45957" lon="0.84385">
        <ele>125</ele>
        <time>2012-09-09T07:47:01Z</time>
      </trkpt>
      <trkpt lat="44.45942" lon="0.84375">
        <ele>126</ele>
        <time>2012-09-09T07:47:06Z</time>
      </trkpt>
      <trkpt lat="44.45922" lon="0.84368">
        <ele>126</ele>
        <time>2012-09-09T07:47:12Z</time>
      </trkpt>
      <trkpt lat="44.45906" lon="0.84365">
        <ele>127</ele>
        <time>2012-09-09T07:47:17Z</time>
      </trkpt>
      <trkpt lat="44.45889" lon="0.84363">
        <ele>127</ele>
        <time>2012-09-09T07:47:22Z</time>
      </trkpt>
      <trkpt lat="44.45872" lon="0.84361">
        <ele>127</ele>
        <time>2012-09-09T07:47:27Z</time>
      </trkpt>
      <trkpt lat="44.45859" lon="0.84356">
        <ele>128</ele>
        <time>2012-09-09T07:47:32Z</time>
      </trkpt>
      <trkpt lat="44.45849" lon="0.84372">
        <ele>128</ele>
        <time>2012-09-09T07:47:37Z</time>
      </trkpt>
      <trkpt lat="44.45825" lon="0.84416">
        <ele>128</ele>
        <time>2012-09-09T07:47:43Z</time>
      </trkpt>
      <trkpt lat="44.45806" lon="0.84436">
        <ele>127</ele>
        <time>2012-09-09T07:47:48Z</time>
      </trkpt>
      <trkpt lat="44.45798" lon="0.84412">
        <ele>127</ele>
        <time>2012-09-09T07:47:53Z</time>
      </trkpt>
      <trkpt lat="44.45791" lon="0.84386">
        <ele>127</ele>
        <time>2012-09-09T07:47:59Z</time>
      </trkpt>
      <trkpt lat="44.45788" lon="0.84365">
        <ele>127</ele>
        <time>2012-09-09T07:48:04Z</time>
      </trkpt>
      <trkpt lat="44.45788" lon="0.84343">
        <ele>127</ele>
        <time>2012-09-09T07:48:09Z</time>
      </trkpt>
      <trkpt lat="44.45787" lon="0.8432">
        <ele>127</ele>
        <time>2012-09-09T07:48:14Z</time>
      </trkpt>
      <trkpt lat="44.45785" lon="0.84296">
        <ele>128</ele>
        <time>2012-09-09T07:48:20Z</time>
      </trkpt>
      <trkpt lat="44.45776" lon="0.84281">
        <ele>130</ele>
        <time>2012-09-09T07:48:25Z</time>
      </trkpt>
      <trkpt lat="44.45765" lon="0.84266">
        <ele>131</ele>
        <time>2012-09-09T07:48:31Z</time>
      </trkpt>
      <trkpt lat="44.45755" lon="0.84251">
        <ele>133</ele>
        <time>2012-09-09T07:48:37Z</time>
      </trkpt>
      <trkpt lat="44.45744" lon="0.84237">
        <ele>136</ele>
        <time>2012-09-09T07:48:43Z</time>
      </trkpt>
      <trkpt lat="44.45736" lon="0.84226">
        <ele>137</ele>
        <time>2012-09-09T07:48:48Z</time>
      </trkpt>
      <trkpt lat="44.45729" lon="0.84215">
        <ele>139</ele>
        <time>2012-09-09T07:48:53Z</time>
      </trkpt>
      <trkpt lat="44.45721" lon="0.84206">
        <ele>140</ele>
        <time>2012-09-09T07:48:58Z</time>
      </trkpt>
      <trkpt lat="44.45714" lon="0.84198">
        <ele>142</ele>
        <time>2012-09-09T07:49:03Z</time>
      </trkpt>
      <trkpt lat="44.45708" lon="0.84193">
        <ele>144</ele>
        <time>2012-09-09T07:49:08Z</time>
      </trkpt>
      <trkpt lat="44.45702" lon="0.84188">
        <ele>145</ele>
        <time>2012-09-09T07:49:13Z</time>
      </trkpt>
      <trkpt lat="44.45695" lon="0.84182">
        <ele>147</ele>
        <time>2012-09-09T07:49:18Z</time>
      </trkpt>
      <trkpt lat="44.45688" lon="0.84178">
        <ele>149</ele>
        <time>2012-09-09T07:49:23Z</time>
      </trkpt>
      <trkpt lat="44.45684" lon="0.8417">
        <ele>151</ele>
        <time>2012-09-09T07:49:28Z</time>
      </trkpt>
      <trkpt lat="44.45681" lon="0.8416">
        <ele>151</ele>
        <time>2012-09-09T07:49:33Z</time>
      </trkpt>
      <trkpt lat="44.45678" lon="0.84151">
        <ele>152</ele>
        <time>2012-09-09T07:49:38Z</time>
      </trkpt>
      <trkpt lat="44.45674" lon="0.84141">
        <ele>152</ele>
        <time>2012-09-09T07:49:43Z</time>
      </trkpt>
      <trkpt lat="44.4567" lon="0.84132">
        <ele>152</ele>
        <time>2012-09-09T07:49:48Z</time>
      </trkpt>
      <trkpt lat="44.45668" lon="0.84123">
        <ele>155</ele>
        <time>2012-09-09T07:49:53Z</time>
      </trkpt>
      <trkpt lat="44.45663" lon="0.84115">
        <ele>157</ele>
        <time>2012-09-09T07:49:58Z</time>
      </trkpt>
      <trkpt lat="44.45661" lon="0.84106">
        <ele>159</ele>
        <time>2012-09-09T07:50:03Z</time>
      </trkpt>
      <trkpt lat="44.45659" lon="0.84097">
        <ele>164</ele>
        <time>2012-09-09T07:50:09Z</time>
      </trkpt>
      <trkpt lat="44.45656" lon="0.84088">
        <ele>166</ele>
        <time>2012-09-09T07:50:15Z</time>
      </trkpt>
      <trkpt lat="44.45654" lon="0.8408">
        <ele>167</ele>
        <time>2012-09-09T07:50:20Z</time>
      </trkpt>
      <trkpt lat="44.45653" lon="0.84072">
        <ele>169</ele>
        <time>2012-09-09T07:50:25Z</time>
      </trkpt>
      <trkpt lat="44.45649" lon="0.84062">
        <ele>171</ele>
        <time>2012-09-09T07:50:30Z</time>
      </trkpt>
      <trkpt lat="44.45649" lon="0.84055">
        <ele>174</ele>
        <time>2012-09-09T07:50:38Z</time>
      </trkpt>
      <trkpt lat="44.45645" lon="0.84052">
        <ele>175</ele>
        <time>2012-09-09T07:50:44Z</time>
      </trkpt>
      <trkpt lat="44.45639" lon="0.84049">
        <ele>177</ele>
        <time>2012-09-09T07:50:51Z</time>
      </trkpt>
      <trkpt lat="44.45639" lon="0.84048">
        <ele>179</ele>
        <time>2012-09-09T07:50:59Z</time>
      </trkpt>
      <trkpt lat="44.45637" lon="0.84046">
        <ele>179</ele>
        <time>2012-09-09T07:51:04Z</time>
      </trkpt>
      <trkpt lat="44.45635" lon="0.84043">
        <ele>179</ele>
        <time>2012-09-09T07:51:10Z</time>
      </trkpt>
      <trkpt lat="44.45633" lon="0.84039">
        <ele>179</ele>
        <time>2012-09-09T07:51:16Z</time>
      </trkpt>
      <trkpt lat="44.45631" lon="0.84035">
        <ele>179</ele>
        <time>2012-09-09T07:51:21Z</time>
      </trkpt>
      <trkpt lat="44.45626" lon="0.8403">
        <ele>179</ele>
        <time>2012-09-09T07:51:27Z</time>
      </trkpt>
      <trkpt lat="44.45621" lon="0.84026">
        <ele>179</ele>
        <time>2012-09-09T07:51:34Z</time>
      </trkpt>
      <trkpt lat="44.4562" lon="0.84022">
        <ele>179</ele>
        <time>2012-09-09T07:51:39Z</time>
      </trkpt>
      <trkpt lat="44.45616" lon="0.84012">
        <ele>179</ele>
        <time>2012-09-09T07:51:44Z</time>
      </trkpt>
      <trkpt lat="44.45613" lon="0.84004">
        <ele>180</ele>
        <time>2012-09-09T07:51:49Z</time>
      </trkpt>
      <trkpt lat="44.45611" lon="0.83995">
        <ele>182</ele>
        <time>2012-09-09T07:51:54Z</time>
      </trkpt>
      <trkpt lat="44.45603" lon="0.83993">
        <ele>185</ele>
        <time>2012-09-09T07:52:00Z</time>
      </trkpt>
      <trkpt lat="44.45601" lon="0.83996">
        <ele>191</ele>
        <time>2012-09-09T07:52:08Z</time>
      </trkpt>
      <trkpt lat="44.456" lon="0.83999">
        <ele>193</ele>
        <time>2012-09-09T07:52:18Z</time>
      </trkpt>
      <trkpt lat="44.45601" lon="0.83999">
        <ele>195</ele>
        <time>2012-09-09T07:52:25Z</time>
      </trkpt>
      <trkpt lat="44.456" lon="0.83999">
        <ele>196</ele>
        <time>2012-09-09T07:52:38Z</time>
      </trkpt>
      <trkpt lat="44.45601" lon="0.83999">
        <ele>196</ele>
        <time>2012-09-09T07:52:52Z</time>
      </trkpt>
      <trkpt lat="44.45599" lon="0.83999">
        <ele>196</ele>
        <time>2012-09-09T07:53:05Z</time>
      </trkpt>
      <trkpt lat="44.45597" lon="0.84001">
        <ele>196</ele>
        <time>2012-09-09T07:53:13Z</time>
      </trkpt>
      <trkpt lat="44.45594" lon="0.84">
        <ele>198</ele>
        <time>2012-09-09T07:53:22Z</time>
      </trkpt>
      <trkpt lat="44.45592" lon="0.84">
        <ele>198</ele>
        <time>2012-09-09T07:53:28Z</time>
      </trkpt>
      <trkpt lat="44.45593" lon="0.84">
        <ele>198</ele>
        <time>2012-09-09T07:53:33Z</time>
      </trkpt>
      <trkpt lat="44.45595" lon="0.83995">
        <ele>198</ele>
        <time>2012-09-09T07:53:39Z</time>
      </trkpt>
      <trkpt lat="44.45594" lon="0.83991">
        <ele>198</ele>
        <time>2012-09-09T07:53:44Z</time>
      </trkpt>
      <trkpt lat="44.45595" lon="0.8399">
        <ele>198</ele>
        <time>2012-09-09T07:53:53Z</time>
      </trkpt>
      <trkpt lat="44.45595" lon="0.83991">
        <ele>198</ele>
        <time>2012-09-09T07:53:58Z</time>
      </trkpt>
      <trkpt lat="44.45594" lon="0.83997">
        <ele>197</ele>
        <time>2012-09-09T07:54:03Z</time>
      </trkpt>
      <trkpt lat="44.4559" lon="0.84006">
        <ele>195</ele>
        <time>2012-09-09T07:54:08Z</time>
      </trkpt>
      <trkpt lat="44.45587" lon="0.84015">
        <ele>194</ele>
        <time>2012-09-09T07:54:13Z</time>
      </trkpt>
      <trkpt lat="44.45582" lon="0.84028">
        <ele>194</ele>
        <time>2012-09-09T07:54:19Z</time>
      </trkpt>
      <trkpt lat="44.45581" lon="0.84039">
        <ele>194</ele>
        <time>2012-09-09T07:54:24Z</time>
      </trkpt>
      <trkpt lat="44.45578" lon="0.84056">
        <ele>194</ele>
        <time>2012-09-09T07:54:29Z</time>
      </trkpt>
      <trkpt lat="44.45575" lon="0.84073">
        <ele>194</ele>
        <time>2012-09-09T07:54:34Z</time>
      </trkpt>
      <trkpt lat="44.4557" lon="0.84093">
        <ele>194</ele>
        <time>2012-09-09T07:54:39Z</time>
      </trkpt>
      <trkpt lat="44.45565" lon="0.84114">
        <ele>195</ele>
        <time>2012-09-09T07:54:44Z</time>
      </trkpt>
      <trkpt lat="44.45557" lon="0.84139">
        <ele>198</ele>
        <time>2012-09-09T07:54:49Z</time>
      </trkpt>
      <trkpt lat="44.45552" lon="0.84163">
        <ele>201</ele>
        <time>2012-09-09T07:54:54Z</time>
      </trkpt>
      <trkpt lat="44.45548" lon="0.84187">
        <ele>204</ele>
        <time>2012-09-09T07:54:59Z</time>
      </trkpt>
      <trkpt lat="44.45541" lon="0.8421">
        <ele>206</ele>
        <time>2012-09-09T07:55:04Z</time>
      </trkpt>
      <trkpt lat="44.45533" lon="0.84236">
        <ele>211</ele>
        <time>2012-09-09T07:55:09Z</time>
      </trkpt>
      <trkpt lat="44.45526" lon="0.8426">
        <ele>215</ele>
        <time>2012-09-09T07:55:14Z</time>
      </trkpt>
      <trkpt lat="44.45516" lon="0.84284">
        <ele>216</ele>
        <time>2012-09-09T07:55:19Z</time>
      </trkpt>
      <trkpt lat="44.45505" lon="0.84305">
        <ele>216</ele>
        <time>2012-09-09T07:55:24Z</time>
      </trkpt>
      <trkpt lat="44.45495" lon="0.84332">
        <ele>216</ele>
        <time>2012-09-09T07:55:29Z</time>
      </trkpt>
      <trkpt lat="44.45486" lon="0.84358">
        <ele>216</ele>
        <time>2012-09-09T07:55:34Z</time>
      </trkpt>
      <trkpt lat="44.45473" lon="0.8438">
        <ele>212</ele>
        <time>2012-09-09T07:55:39Z</time>
      </trkpt>
      <trkpt lat="44.45467" lon="0.84405">
        <ele>210</ele>
        <time>2012-09-09T07:55:44Z</time>
      </trkpt>
      <trkpt lat="44.45459" lon="0.84434">
        <ele>208</ele>
        <time>2012-09-09T07:55:49Z</time>
      </trkpt>
      <trkpt lat="44.45452" lon="0.84463">
        <ele>207</ele>
        <time>2012-09-09T07:55:54Z</time>
      </trkpt>
      <trkpt lat="44.45441" lon="0.84494">
        <ele>207</ele>
        <time>2012-09-09T07:55:59Z</time>
      </trkpt>
      <trkpt lat="44.45433" lon="0.8453">
        <ele>210</ele>
        <time>2012-09-09T07:56:04Z</time>
      </trkpt>
      <trkpt lat="44.4543" lon="0.84566">
        <ele>210</ele>
        <time>2012-09-09T07:56:09Z</time>
      </trkpt>
      <trkpt lat="44.45427" lon="0.84604">
        <ele>210</ele>
        <time>2012-09-09T07:56:14Z</time>
      </trkpt>
      <trkpt lat="44.45425" lon="0.8464">
        <ele>210</ele>
        <time>2012-09-09T07:56:19Z</time>
      </trkpt>
      <trkpt lat="44.45426" lon="0.84673">
        <ele>210</ele>
        <time>2012-09-09T07:56:24Z</time>
      </trkpt>
      <trkpt lat="44.45428" lon="0.84709">
        <ele>210</ele>
        <time>2012-09-09T07:56:29Z</time>
      </trkpt>
      <trkpt lat="44.45429" lon="0.84742">
        <ele>210</ele>
        <time>2012-09-09T07:56:34Z</time>
      </trkpt>
      <trkpt lat="44.45426" lon="0.8477">
        <ele>210</ele>
        <time>2012-09-09T07:56:39Z</time>
      </trkpt>
      <trkpt lat="44.45435" lon="0.84798">
        <ele>210</ele>
        <time>2012-09-09T07:56:44Z</time>
      </trkpt>
      <trkpt lat="44.4544" lon="0.84832">
        <ele>210</ele>
        <time>2012-09-09T07:56:49Z</time>
      </trkpt>
      <trkpt lat="44.45441" lon="0.84868">
        <ele>212</ele>
        <time>2012-09-09T07:56:54Z</time>
      </trkpt>
      <trkpt lat="44.45442" lon="0.84904">
        <ele>216</ele>
        <time>2012-09-09T07:56:59Z</time>
      </trkpt>
      <trkpt lat="44.45431" lon="0.84937">
        <ele>217</ele>
        <time>2012-09-09T07:57:04Z</time>
      </trkpt>
      <trkpt lat="44.45405" lon="0.84949">
        <ele>216</ele>
        <time>2012-09-09T07:57:09Z</time>
      </trkpt>
      <trkpt lat="44.4538" lon="0.84963">
        <ele>211</ele>
        <time>2012-09-09T07:57:14Z</time>
      </trkpt>
      <trkpt lat="44.45359" lon="0.84977">
        <ele>207</ele>
        <time>2012-09-09T07:57:19Z</time>
      </trkpt>
      <trkpt lat="44.45342" lon="0.84997">
        <ele>205</ele>
        <time>2012-09-09T07:57:24Z</time>
      </trkpt>
      <trkpt lat="44.45322" lon="0.85016">
        <ele>204</ele>
        <time>2012-09-09T07:57:29Z</time>
      </trkpt>
      <trkpt lat="44.45301" lon="0.8503">
        <ele>203</ele>
        <time>2012-09-09T07:57:34Z</time>
      </trkpt>
      <trkpt lat="44.45279" lon="0.85041">
        <ele>203</ele>
        <time>2012-09-09T07:57:39Z</time>
      </trkpt>
      <trkpt lat="44.45258" lon="0.85057">
        <ele>203</ele>
        <time>2012-09-09T07:57:44Z</time>
      </trkpt>
      <trkpt lat="44.45236" lon="0.85081">
        <ele>203</ele>
        <time>2012-09-09T07:57:49Z</time>
      </trkpt>
      <trkpt lat="44.45206" lon="0.85101">
        <ele>202</ele>
        <time>2012-09-09T07:57:54Z</time>
      </trkpt>
      <trkpt lat="44.45175" lon="0.85117">
        <ele>202</ele>
        <time>2012-09-09T07:57:59Z</time>
      </trkpt>
      <trkpt lat="44.4515" lon="0.85134">
        <ele>202</ele>
        <time>2012-09-09T07:58:04Z</time>
      </trkpt>
      <trkpt lat="44.45139" lon="0.85155">
        <ele>201</ele>
        <time>2012-09-09T07:58:09Z</time>
      </trkpt>
      <trkpt lat="44.45121" lon="0.85185">
        <ele>198</ele>
        <time>2012-09-09T07:58:14Z</time>
      </trkpt>
      <trkpt lat="44.4511" lon="0.852">
        <ele>194</ele>
        <time>2012-09-09T07:58:19Z</time>
      </trkpt>
      <trkpt lat="44.4512" lon="0.85202">
        <ele>192</ele>
        <time>2012-09-09T07:58:24Z</time>
      </trkpt>
      <trkpt lat="44.45142" lon="0.8519">
        <ele>191</ele>
        <time>2012-09-09T07:58:29Z</time>
      </trkpt>
      <trkpt lat="44.45139" lon="0.8521">
        <ele>188</ele>
        <time>2012-09-09T07:58:34Z</time>
      </trkpt>
      <trkpt lat="44.4513" lon="0.85251">
        <ele>183</ele>
        <time>2012-09-09T07:58:39Z</time>
      </trkpt>
      <trkpt lat="44.45132" lon="0.85284">
        <ele>178</ele>
        <time>2012-09-09T07:58:44Z</time>
      </trkpt>
      <trkpt lat="44.45147" lon="0.85324">
        <ele>174</ele>
        <time>2012-09-09T07:58:49Z</time>
      </trkpt>
      <trkpt lat="44.4516" lon="0.85364">
        <ele>169</ele>
        <time>2012-09-09T07:58:54Z</time>
      </trkpt>
      <trkpt lat="44.45171" lon="0.85392">
        <ele>162</ele>
        <time>2012-09-09T07:58:59Z</time>
      </trkpt>
      <trkpt lat="44.45164" lon="0.85404">
        <ele>152</ele>
        <time>2012-09-09T07:59:04Z</time>
      </trkpt>
      <trkpt lat="44.45141" lon="0.85407">
        <ele>147</ele>
        <time>2012-09-09T07:59:09Z</time>
      </trkpt>
      <trkpt lat="44.45106" lon="0.85425">
        <ele>142</ele>
        <time>2012-09-09T07:59:14Z</time>
      </trkpt>
      <trkpt lat="44.45102" lon="0.85455">
        <ele>139</ele>
        <time>2012-09-09T07:59:19Z</time>
      </trkpt>
      <trkpt lat="44.45112" lon="0.85499">
        <ele>136</ele>
        <time>2012-09-09T07:59:24Z</time>
      </trkpt>
      <trkpt lat="44.4512" lon="0.85536">
        <ele>131</ele>
        <time>2012-09-09T07:59:29Z</time>
      </trkpt>
      <trkpt lat="44.45128" lon="0.85573">
        <ele>126</ele>
        <time>2012-09-09T07:59:34Z</time>
      </trkpt>
      <trkpt lat="44.45132" lon="0.85609">
        <ele>123</ele>
        <time>2012-09-09T07:59:39Z</time>
      </trkpt>
      <trkpt lat="44.45134" lon="0.85624">
        <ele>118</ele>
        <time>2012-09-09T07:59:48Z</time>
      </trkpt>
      <trkpt lat="44.4514" lon="0.85652">
        <ele>117</ele>
        <time>2012-09-09T07:59:53Z</time>
      </trkpt>
      <trkpt lat="44.45151" lon="0.85699">
        <ele>115</ele>
        <time>2012-09-09T07:59:58Z</time>
      </trkpt>
      <trkpt lat="44.4515" lon="0.85716">
        <ele>115</ele>
        <time>2012-09-09T08:00:03Z</time>
      </trkpt>
      <trkpt lat="44.45145" lon="0.85703">
        <ele>116</ele>
        <time>2012-09-09T08:00:08Z</time>
      </trkpt>
      <trkpt lat="44.45139" lon="0.85683">
        <ele>117</ele>
        <time>2012-09-09T08:00:13Z</time>
      </trkpt>
      <trkpt lat="44.45133" lon="0.85662">
        <ele>119</ele>
        <time>2012-09-09T08:00:18Z</time>
      </trkpt>
      <trkpt lat="44.45128" lon="0.8564">
        <ele>120</ele>
        <time>2012-09-09T08:00:23Z</time>
      </trkpt>
      <trkpt lat="44.45123" lon="0.85618">
        <ele>123</ele>
        <time>2012-09-09T08:00:28Z</time>
      </trkpt>
      <trkpt lat="44.45118" lon="0.85598">
        <ele>125</ele>
        <time>2012-09-09T08:00:33Z</time>
      </trkpt>
      <trkpt lat="44.45112" lon="0.85578">
        <ele>126</ele>
        <time>2012-09-09T08:00:38Z</time>
      </trkpt>
      <trkpt lat="44.45097" lon="0.85584">
        <ele>126</ele>
        <time>2012-09-09T08:00:43Z</time>
      </trkpt>
      <trkpt lat="44.4508" lon="0.85596">
        <ele>126</ele>
        <time>2012-09-09T08:00:48Z</time>
      </trkpt>
      <trkpt lat="44.45066" lon="0.85615">
        <ele>126</ele>
        <time>2012-09-09T08:00:53Z</time>
      </trkpt>
      <trkpt lat="44.45052" lon="0.85637">
        <ele>126</ele>
        <time>2012-09-09T08:00:58Z</time>
      </trkpt>
      <trkpt lat="44.45044" lon="0.85637">
        <ele>126</ele>
        <time>2012-09-09T08:01:03Z</time>
      </trkpt>
      <trkpt lat="44.45041" lon="0.85622">
        <ele>126</ele>
        <time>2012-09-09T08:01:08Z</time>
      </trkpt>
      <trkpt lat="44.45028" lon="0.85619">
        <ele>126</ele>
        <time>2012-09-09T08:01:13Z</time>
      </trkpt>
      <trkpt lat="44.45016" lon="0.85625">
        <ele>126</ele>
        <time>2012-09-09T08:01:18Z</time>
      </trkpt>
      <trkpt lat="44.45005" lon="0.85627">
        <ele>126</ele>
        <time>2012-09-09T08:01:23Z</time>
      </trkpt>
      <trkpt lat="44.44992" lon="0.85629">
        <ele>127</ele>
        <time>2012-09-09T08:01:28Z</time>
      </trkpt>
      <trkpt lat="44.44977" lon="0.85632">
        <ele>127</ele>
        <time>2012-09-09T08:01:33Z</time>
      </trkpt>
      <trkpt lat="44.4496" lon="0.85637">
        <ele>128</ele>
        <time>2012-09-09T08:01:38Z</time>
      </trkpt>
      <trkpt lat="44.44946" lon="0.85639">
        <ele>128</ele>
        <time>2012-09-09T08:01:43Z</time>
      </trkpt>
      <trkpt lat="44.44941" lon="0.85629">
        <ele>129</ele>
        <time>2012-09-09T08:01:48Z</time>
      </trkpt>
      <trkpt lat="44.44932" lon="0.85621">
        <ele>129</ele>
        <time>2012-09-09T08:01:53Z</time>
      </trkpt>
      <trkpt lat="44.44922" lon="0.85611">
        <ele>130</ele>
        <time>2012-09-09T08:01:58Z</time>
      </trkpt>
      <trkpt lat="44.44913" lon="0.85601">
        <ele>132</ele>
        <time>2012-09-09T08:02:03Z</time>
      </trkpt>
      <trkpt lat="44.449" lon="0.85598">
        <ele>133</ele>
        <time>2012-09-09T08:02:08Z</time>
      </trkpt>
      <trkpt lat="44.44886" lon="0.85598">
        <ele>133</ele>
        <time>2012-09-09T08:02:13Z</time>
      </trkpt>
      <trkpt lat="44.4487" lon="0.85596">
        <ele>134</ele>
        <time>2012-09-09T08:02:18Z</time>
      </trkpt>
      <trkpt lat="44.44855" lon="0.85592">
        <ele>135</ele>
        <time>2012-09-09T08:02:23Z</time>
      </trkpt>
      <trkpt lat="44.44846" lon="0.85582">
        <ele>135</ele>
        <time>2012-09-09T08:02:28Z</time>
      </trkpt>
      <trkpt lat="44.44826" lon="0.85585">
        <ele>135</ele>
        <time>2012-09-09T08:02:33Z</time>
      </trkpt>
      <trkpt lat="44.44795" lon="0.85591">
        <ele>135</ele>
        <time>2012-09-09T08:02:38Z</time>
      </trkpt>
      <trkpt lat="44.44764" lon="0.85598">
        <ele>130</ele>
        <time>2012-09-09T08:02:43Z</time>
      </trkpt>
      <trkpt lat="44.44736" lon="0.85607">
        <ele>125</ele>
        <time>2012-09-09T08:02:48Z</time>
      </trkpt>
      <trkpt lat="44.44725" lon="0.85612">
        <ele>122</ele>
        <time>2012-09-09T08:02:53Z</time>
      </trkpt>
      <trkpt lat="44.44723" lon="0.85588">
        <ele>121</ele>
        <time>2012-09-09T08:02:58Z</time>
      </trkpt>
      <trkpt lat="44.44713" lon="0.85577">
        <ele>121</ele>
        <time>2012-09-09T08:03:03Z</time>
      </trkpt>
      <trkpt lat="44.447" lon="0.8558">
        <ele>121</ele>
        <time>2012-09-09T08:03:08Z</time>
      </trkpt>
      <trkpt lat="44.44689" lon="0.85584">
        <ele>121</ele>
        <time>2012-09-09T08:03:13Z</time>
      </trkpt>
      <trkpt lat="44.44679" lon="0.85586">
        <ele>121</ele>
        <time>2012-09-09T08:03:18Z</time>
      </trkpt>
      <trkpt lat="44.44669" lon="0.85587">
        <ele>121</ele>
        <time>2012-09-09T08:03:23Z</time>
      </trkpt>
      <trkpt lat="44.44659" lon="0.85587">
        <ele>123</ele>
        <time>2012-09-09T08:03:28Z</time>
      </trkpt>
      <trkpt lat="44.4465" lon="0.85586">
        <ele>125</ele>
        <time>2012-09-09T08:03:33Z</time>
      </trkpt>
      <trkpt lat="44.44639" lon="0.85586">
        <ele>127</ele>
        <time>2012-09-09T08:03:38Z</time>
      </trkpt>
      <trkpt lat="44.44629" lon="0.85586">
        <ele>128</ele>
        <time>2012-09-09T08:03:43Z</time>
      </trkpt>
      <trkpt lat="44.44619" lon="0.85585">
        <ele>130</ele>
        <time>2012-09-09T08:03:48Z</time>
      </trkpt>
      <trkpt lat="44.44609" lon="0.85585">
        <ele>132</ele>
        <time>2012-09-09T08:03:53Z</time>
      </trkpt>
      <trkpt lat="44.44599" lon="0.85586">
        <ele>133</ele>
        <time>2012-09-09T08:03:58Z</time>
      </trkpt>
      <trkpt lat="44.44589" lon="0.85586">
        <ele>135</ele>
        <time>2012-09-09T08:04:03Z</time>
      </trkpt>
      <trkpt lat="44.44579" lon="0.85587">
        <ele>136</ele>
        <time>2012-09-09T08:04:08Z</time>
      </trkpt>
      <trkpt lat="44.44574" lon="0.856">
        <ele>137</ele>
        <time>2012-09-09T08:04:13Z</time>
      </trkpt>
      <trkpt lat="44.44574" lon="0.85624">
        <ele>137</ele>
        <time>2012-09-09T08:04:18Z</time>
      </trkpt>
      <trkpt lat="44.44578" lon="0.85653">
        <ele>138</ele>
        <time>2012-09-09T08:04:23Z</time>
      </trkpt>
      <trkpt lat="44.44575" lon="0.85678">
        <ele>139</ele>
        <time>2012-09-09T08:04:28Z</time>
      </trkpt>
      <trkpt lat="44.44563" lon="0.8568">
        <ele>140</ele>
        <time>2012-09-09T08:04:33Z</time>
      </trkpt>
      <trkpt lat="44.44551" lon="0.8568">
        <ele>140</ele>
        <time>2012-09-09T08:04:38Z</time>
      </trkpt>
      <trkpt lat="44.4454" lon="0.85678">
        <ele>140</ele>
        <time>2012-09-09T08:04:43Z</time>
      </trkpt>
      <trkpt lat="44.4453" lon="0.85679">
        <ele>140</ele>
        <time>2012-09-09T08:04:48Z</time>
      </trkpt>
      <trkpt lat="44.44521" lon="0.8568">
        <ele>141</ele>
        <time>2012-09-09T08:04:53Z</time>
      </trkpt>
      <trkpt lat="44.44512" lon="0.8568">
        <ele>143</ele>
        <time>2012-09-09T08:04:58Z</time>
      </trkpt>
      <trkpt lat="44.44503" lon="0.85681">
        <ele>145</ele>
        <time>2012-09-09T08:05:03Z</time>
      </trkpt>
      <trkpt lat="44.44495" lon="0.85684">
        <ele>147</ele>
        <time>2012-09-09T08:05:08Z</time>
      </trkpt>
      <trkpt lat="44.44487" lon="0.85685">
        <ele>148</ele>
        <time>2012-09-09T08:05:13Z</time>
      </trkpt>
      <trkpt lat="44.44479" lon="0.85688">
        <ele>149</ele>
        <time>2012-09-09T08:05:18Z</time>
      </trkpt>
      <trkpt lat="44.44472" lon="0.85689">
        <ele>150</ele>
        <time>2012-09-09T08:05:23Z</time>
      </trkpt>
      <trkpt lat="44.44464" lon="0.85689">
        <ele>151</ele>
        <time>2012-09-09T08:05:28Z</time>
      </trkpt>
      <trkpt lat="44.44457" lon="0.8569">
        <ele>153</ele>
        <time>2012-09-09T08:05:33Z</time>
      </trkpt>
      <trkpt lat="44.4445" lon="0.85691">
        <ele>154</ele>
        <time>2012-09-09T08:05:38Z</time>
      </trkpt>
      <trkpt lat="44.44442" lon="0.85691">
        <ele>156</ele>
        <time>2012-09-09T08:05:43Z</time>
      </trkpt>
      <trkpt lat="44.44435" lon="0.85692">
        <ele>157</ele>
        <time>2012-09-09T08:05:48Z</time>
      </trkpt>
      <trkpt lat="44.44428" lon="0.85695">
        <ele>160</ele>
        <time>2012-09-09T08:05:54Z</time>
      </trkpt>
      <trkpt lat="44.44424" lon="0.85702">
        <ele>161</ele>
        <time>2012-09-09T08:06:00Z</time>
      </trkpt>
      <trkpt lat="44.44421" lon="0.85705">
        <ele>162</ele>
        <time>2012-09-09T08:06:05Z</time>
      </trkpt>
      <trkpt lat="44.44415" lon="0.85704">
        <ele>164</ele>
        <time>2012-09-09T08:06:11Z</time>
      </trkpt>
      <trkpt lat="44.44412" lon="0.85705">
        <ele>168</ele>
        <time>2012-09-09T08:06:19Z</time>
      </trkpt>
      <trkpt lat="44.44413" lon="0.85707">
        <ele>174</ele>
        <time>2012-09-09T08:06:29Z</time>
      </trkpt>
      <trkpt lat="44.4441" lon="0.8571">
        <ele>179</ele>
        <time>2012-09-09T08:06:36Z</time>
      </trkpt>
      <trkpt lat="44.44408" lon="0.85712">
        <ele>179</ele>
        <time>2012-09-09T08:06:42Z</time>
      </trkpt>
      <trkpt lat="44.44405" lon="0.85714">
        <ele>179</ele>
        <time>2012-09-09T08:06:47Z</time>
      </trkpt>
      <trkpt lat="44.44403" lon="0.85715">
        <ele>179</ele>
        <time>2012-09-09T08:06:52Z</time>
      </trkpt>
      <trkpt lat="44.44402" lon="0.8572">
        <ele>179</ele>
        <time>2012-09-09T08:06:58Z</time>
      </trkpt>
      <trkpt lat="44.444" lon="0.85725">
        <ele>179</ele>
        <time>2012-09-09T08:07:03Z</time>
      </trkpt>
      <trkpt lat="44.44396" lon="0.85729">
        <ele>179</ele>
        <time>2012-09-09T08:07:09Z</time>
      </trkpt>
      <trkpt lat="44.44395" lon="0.85734">
        <ele>179</ele>
        <time>2012-09-09T08:07:15Z</time>
      </trkpt>
      <trkpt lat="44.44395" lon="0.8574">
        <ele>179</ele>
        <time>2012-09-09T08:07:21Z</time>
      </trkpt>
      <trkpt lat="44.44393" lon="0.85748">
        <ele>184</ele>
        <time>2012-09-09T08:07:28Z</time>
      </trkpt>
      <trkpt lat="44.44393" lon="0.85752">
        <ele>184</ele>
        <time>2012-09-09T08:07:33Z</time>
      </trkpt>
      <trkpt lat="44.44392" lon="0.85756">
        <ele>184</ele>
        <time>2012-09-09T08:07:39Z</time>
      </trkpt>
      <trkpt lat="44.4439" lon="0.85764">
        <ele>186</ele>
        <time>2012-09-09T08:07:44Z</time>
      </trkpt>
      <trkpt lat="44.44388" lon="0.85767">
        <ele>188</ele>
        <time>2012-09-09T08:07:49Z</time>
      </trkpt>
      <trkpt lat="44.44387" lon="0.85769">
        <ele>188</ele>
        <time>2012-09-09T08:07:54Z</time>
      </trkpt>
      <trkpt lat="44.44386" lon="0.85773">
        <ele>188</ele>
        <time>2012-09-09T08:07:59Z</time>
      </trkpt>
      <trkpt lat="44.44383" lon="0.8578">
        <ele>188</ele>
        <time>2012-09-09T08:08:05Z</time>
      </trkpt>
      <trkpt lat="44.44381" lon="0.85787">
        <ele>191</ele>
        <time>2012-09-09T08:08:11Z</time>
      </trkpt>
      <trkpt lat="44.44381" lon="0.85794">
        <ele>194</ele>
        <time>2012-09-09T08:08:17Z</time>
      </trkpt>
      <trkpt lat="44.44378" lon="0.85799">
        <ele>194</ele>
        <time>2012-09-09T08:08:23Z</time>
      </trkpt>
      <trkpt lat="44.44375" lon="0.85805">
        <ele>196</ele>
        <time>2012-09-09T08:08:29Z</time>
      </trkpt>
      <trkpt lat="44.44371" lon="0.85812">
        <ele>197</ele>
        <time>2012-09-09T08:08:34Z</time>
      </trkpt>
      <trkpt lat="44.4437" lon="0.85819">
        <ele>200</ele>
        <time>2012-09-09T08:08:40Z</time>
      </trkpt>
      <trkpt lat="44.4437" lon="0.85826">
        <ele>202</ele>
        <time>2012-09-09T08:08:45Z</time>
      </trkpt>
      <trkpt lat="44.44369" lon="0.85831">
        <ele>204</ele>
        <time>2012-09-09T08:08:51Z</time>
      </trkpt>
      <trkpt lat="44.44366" lon="0.85833">
        <ele>204</ele>
        <time>2012-09-09T08:08:56Z</time>
      </trkpt>
      <trkpt lat="44.44364" lon="0.85833">
        <ele>204</ele>
        <time>2012-09-09T08:09:01Z</time>
      </trkpt>
      <trkpt lat="44.44361" lon="0.85831">
        <ele>204</ele>
        <time>2012-09-09T08:09:06Z</time>
      </trkpt>
      <trkpt lat="44.44358" lon="0.85828">
        <ele>204</ele>
        <time>2012-09-09T08:09:11Z</time>
      </trkpt>
      <trkpt lat="44.44353" lon="0.85824">
        <ele>204</ele>
        <time>2012-09-09T08:09:16Z</time>
      </trkpt>
      <trkpt lat="44.44349" lon="0.85822">
        <ele>204</ele>
        <time>2012-09-09T08:09:22Z</time>
      </trkpt>
      <trkpt lat="44.44346" lon="0.85817">
        <ele>204</ele>
        <time>2012-09-09T08:09:28Z</time>
      </trkpt>
      <trkpt lat="44.44342" lon="0.85811">
        <ele>204</ele>
        <time>2012-09-09T08:09:34Z</time>
      </trkpt>
      <trkpt lat="44.44339" lon="0.85809">
        <ele>205</ele>
        <time>2012-09-09T08:09:45Z</time>
      </trkpt>
      <trkpt lat="44.4434" lon="0.85807">
        <ele>207</ele>
        <time>2012-09-09T08:09:50Z</time>
      </trkpt>
      <trkpt lat="44.44339" lon="0.85805">
        <ele>210</ele>
        <time>2012-09-09T08:09:57Z</time>
      </trkpt>
      <trkpt lat="44.44336" lon="0.85798">
        <ele>211</ele>
        <time>2012-09-09T08:10:02Z</time>
      </trkpt>
      <trkpt lat="44.44331" lon="0.85789">
        <ele>213</ele>
        <time>2012-09-09T08:10:07Z</time>
      </trkpt>
      <trkpt lat="44.44326" lon="0.85783">
        <ele>213</ele>
        <time>2012-09-09T08:10:12Z</time>
      </trkpt>
      <trkpt lat="44.44321" lon="0.85782">
        <ele>213</ele>
        <time>2012-09-09T08:10:17Z</time>
      </trkpt>
      <trkpt lat="44.44311" lon="0.85784">
        <ele>211</ele>
        <time>2012-09-09T08:10:22Z</time>
      </trkpt>
      <trkpt lat="44.44302" lon="0.85787">
        <ele>210</ele>
        <time>2012-09-09T08:10:27Z</time>
      </trkpt>
      <trkpt lat="44.44291" lon="0.85785">
        <ele>206</ele>
        <time>2012-09-09T08:10:32Z</time>
      </trkpt>
      <trkpt lat="44.44278" lon="0.8577">
        <ele>204</ele>
        <time>2012-09-09T08:10:37Z</time>
      </trkpt>
      <trkpt lat="44.44269" lon="0.85755">
        <ele>204</ele>
        <time>2012-09-09T08:10:42Z</time>
      </trkpt>
      <trkpt lat="44.44259" lon="0.85746">
        <ele>204</ele>
        <time>2012-09-09T08:10:47Z</time>
      </trkpt>
      <trkpt lat="44.44251" lon="0.85732">
        <ele>204</ele>
        <time>2012-09-09T08:10:52Z</time>
      </trkpt>
      <trkpt lat="44.44243" lon="0.85718">
        <ele>205</ele>
        <time>2012-09-09T08:10:57Z</time>
      </trkpt>
      <trkpt lat="44.44234" lon="0.857">
        <ele>207</ele>
        <time>2012-09-09T08:11:02Z</time>
      </trkpt>
      <trkpt lat="44.44226" lon="0.85685">
        <ele>208</ele>
        <time>2012-09-09T08:11:07Z</time>
      </trkpt>
      <trkpt lat="44.4422" lon="0.8567">
        <ele>211</ele>
        <time>2012-09-09T08:11:12Z</time>
      </trkpt>
      <trkpt lat="44.44212" lon="0.85654">
        <ele>215</ele>
        <time>2012-09-09T08:11:17Z</time>
      </trkpt>
      <trkpt lat="44.44202" lon="0.85641">
        <ele>216</ele>
        <time>2012-09-09T08:11:22Z</time>
      </trkpt>
      <trkpt lat="44.44191" lon="0.85626">
        <ele>216</ele>
        <time>2012-09-09T08:11:27Z</time>
      </trkpt>
      <trkpt lat="44.44201" lon="0.85609">
        <ele>216</ele>
        <time>2012-09-09T08:11:32Z</time>
      </trkpt>
      <trkpt lat="44.44212" lon="0.85584">
        <ele>218</ele>
        <time>2012-09-09T08:11:38Z</time>
      </trkpt>
      <trkpt lat="44.44221" lon="0.85559">
        <ele>223</ele>
        <time>2012-09-09T08:11:43Z</time>
      </trkpt>
      <trkpt lat="44.44233" lon="0.85539">
        <ele>228</ele>
        <time>2012-09-09T08:11:48Z</time>
      </trkpt>
      <trkpt lat="44.44241" lon="0.85518">
        <ele>230</ele>
        <time>2012-09-09T08:11:53Z</time>
      </trkpt>
      <trkpt lat="44.44244" lon="0.85487">
        <ele>232</ele>
        <time>2012-09-09T08:11:58Z</time>
      </trkpt>
      <trkpt lat="44.44254" lon="0.85459">
        <ele>232</ele>
        <time>2012-09-09T08:12:03Z</time>
      </trkpt>
      <trkpt lat="44.44275" lon="0.85436">
        <ele>232</ele>
        <time>2012-09-09T08:12:08Z</time>
      </trkpt>
      <trkpt lat="44.443" lon="0.85418">
        <ele>227</ele>
        <time>2012-09-09T08:12:14Z</time>
      </trkpt>
      <trkpt lat="44.44301" lon="0.85392">
        <ele>226</ele>
        <time>2012-09-09T08:12:19Z</time>
      </trkpt>
      <trkpt lat="44.44296" lon="0.85361">
        <ele>226</ele>
        <time>2012-09-09T08:12:24Z</time>
      </trkpt>
      <trkpt lat="44.44284" lon="0.85318">
        <ele>225</ele>
        <time>2012-09-09T08:12:30Z</time>
      </trkpt>
      <trkpt lat="44.44272" lon="0.85283">
        <ele>225</ele>
        <time>2012-09-09T08:12:35Z</time>
      </trkpt>
      <trkpt lat="44.44262" lon="0.85249">
        <ele>226</ele>
        <time>2012-09-09T08:12:40Z</time>
      </trkpt>
      <trkpt lat="44.4426" lon="0.85213">
        <ele>228</ele>
        <time>2012-09-09T08:12:45Z</time>
      </trkpt>
      <trkpt lat="44.44254" lon="0.85175">
        <ele>228</ele>
        <time>2012-09-09T08:12:50Z</time>
      </trkpt>
      <trkpt lat="44.4424" lon="0.85148">
        <ele>228</ele>
        <time>2012-09-09T08:12:55Z</time>
      </trkpt>
      <trkpt lat="44.44226" lon="0.85128">
        <ele>228</ele>
        <time>2012-09-09T08:13:00Z</time>
      </trkpt>
      <trkpt lat="44.44212" lon="0.85091">
        <ele>228</ele>
        <time>2012-09-09T08:13:06Z</time>
      </trkpt>
      <trkpt lat="44.44202" lon="0.85057">
        <ele>228</ele>
        <time>2012-09-09T08:13:11Z</time>
      </trkpt>
      <trkpt lat="44.44194" lon="0.85023">
        <ele>226</ele>
        <time>2012-09-09T08:13:16Z</time>
      </trkpt>
      <trkpt lat="44.44181" lon="0.84986">
        <ele>226</ele>
        <time>2012-09-09T08:13:22Z</time>
      </trkpt>
      <trkpt lat="44.44178" lon="0.84961">
        <ele>226</ele>
        <time>2012-09-09T08:13:27Z</time>
      </trkpt>
      <trkpt lat="44.44163" lon="0.84945">
        <ele>226</ele>
        <time>2012-09-09T08:13:32Z</time>
      </trkpt>
      <trkpt lat="44.44144" lon="0.84911">
        <ele>223</ele>
        <time>2012-09-09T08:13:38Z</time>
      </trkpt>
      <trkpt lat="44.44126" lon="0.84885">
        <ele>219</ele>
        <time>2012-09-09T08:13:43Z</time>
      </trkpt>
      <trkpt lat="44.44105" lon="0.84855">
        <ele>214</ele>
        <time>2012-09-09T08:13:48Z</time>
      </trkpt>
      <trkpt lat="44.44076" lon="0.8483">
        <ele>210</ele>
        <time>2012-09-09T08:13:54Z</time>
      </trkpt>
      <trkpt lat="44.44059" lon="0.84805">
        <ele>210</ele>
        <time>2012-09-09T08:13:59Z</time>
      </trkpt>
      <trkpt lat="44.44067" lon="0.84785">
        <ele>210</ele>
        <time>2012-09-09T08:14:04Z</time>
      </trkpt>
      <trkpt lat="44.44079" lon="0.84754">
        <ele>210</ele>
        <time>2012-09-09T08:14:09Z</time>
      </trkpt>
      <trkpt lat="44.44099" lon="0.84737">
        <ele>206</ele>
        <time>2012-09-09T08:14:14Z</time>
      </trkpt>
      <trkpt lat="44.44122" lon="0.84731">
        <ele>205</ele>
        <time>2012-09-09T08:14:19Z</time>
      </trkpt>
      <trkpt lat="44.44137" lon="0.84738">
        <ele>203</ele>
        <time>2012-09-09T08:14:24Z</time>
      </trkpt>
      <trkpt lat="44.44149" lon="0.84741">
        <ele>201</ele>
        <time>2012-09-09T08:14:29Z</time>
      </trkpt>
      <trkpt lat="44.44154" lon="0.84728">
        <ele>199</ele>
        <time>2012-09-09T08:14:34Z</time>
      </trkpt>
      <trkpt lat="44.44138" lon="0.84703">
        <ele>193</ele>
        <time>2012-09-09T08:14:40Z</time>
      </trkpt>
      <trkpt lat="44.44117" lon="0.8467">
        <ele>184</ele>
        <time>2012-09-09T08:14:45Z</time>
      </trkpt>
      <trkpt lat="44.44088" lon="0.84654">
        <ele>176</ele>
        <time>2012-09-09T08:14:50Z</time>
      </trkpt>
      <trkpt lat="44.4406" lon="0.84635">
        <ele>171</ele>
        <time>2012-09-09T08:14:55Z</time>
      </trkpt>
      <trkpt lat="44.44029" lon="0.84614">
        <ele>166</ele>
        <time>2012-09-09T08:15:00Z</time>
      </trkpt>
      <trkpt lat="44.43997" lon="0.84598">
        <ele>161</ele>
        <time>2012-09-09T08:15:05Z</time>
      </trkpt>
      <trkpt lat="44.43954" lon="0.8458">
        <ele>161</ele>
        <time>2012-09-09T08:15:11Z</time>
      </trkpt>
      <trkpt lat="44.43923" lon="0.8458">
        <ele>161</ele>
        <time>2012-09-09T08:15:16Z</time>
      </trkpt>
      <trkpt lat="44.43893" lon="0.846">
        <ele>161</ele>
        <time>2012-09-09T08:15:21Z</time>
      </trkpt>
      <trkpt lat="44.43867" lon="0.84633">
        <ele>161</ele>
        <time>2012-09-09T08:15:26Z</time>
      </trkpt>
      <trkpt lat="44.43855" lon="0.84661">
        <ele>163</ele>
        <time>2012-09-09T08:15:31Z</time>
      </trkpt>
      <trkpt lat="44.43845" lon="0.84663">
        <ele>166</ele>
        <time>2012-09-09T08:15:36Z</time>
      </trkpt>
      <trkpt lat="44.43844" lon="0.84629">
        <ele>169</ele>
        <time>2012-09-09T08:15:41Z</time>
      </trkpt>
      <trkpt lat="44.43844" lon="0.846">
        <ele>169</ele>
        <time>2012-09-09T08:15:46Z</time>
      </trkpt>
      <trkpt lat="44.43841" lon="0.8457">
        <ele>169</ele>
        <time>2012-09-09T08:15:51Z</time>
      </trkpt>
      <trkpt lat="44.43831" lon="0.84533">
        <ele>169</ele>
        <time>2012-09-09T08:15:56Z</time>
      </trkpt>
      <trkpt lat="44.43821" lon="0.84493">
        <ele>164</ele>
        <time>2012-09-09T08:16:01Z</time>
      </trkpt>
      <trkpt lat="44.43799" lon="0.84496">
        <ele>158</ele>
        <time>2012-09-09T08:16:06Z</time>
      </trkpt>
      <trkpt lat="44.43771" lon="0.84516">
        <ele>149</ele>
        <time>2012-09-09T08:16:11Z</time>
      </trkpt>
      <trkpt lat="44.43749" lon="0.84528">
        <ele>143</ele>
        <time>2012-09-09T08:16:16Z</time>
      </trkpt>
      <trkpt lat="44.4375" lon="0.84513">
        <ele>138</ele>
        <time>2012-09-09T08:16:21Z</time>
      </trkpt>
      <trkpt lat="44.43762" lon="0.84489">
        <ele>134</ele>
        <time>2012-09-09T08:16:26Z</time>
      </trkpt>
      <trkpt lat="44.43774" lon="0.84461">
        <ele>134</ele>
        <time>2012-09-09T08:16:31Z</time>
      </trkpt>
      <trkpt lat="44.43786" lon="0.84433">
        <ele>134</ele>
        <time>2012-09-09T08:16:36Z</time>
      </trkpt>
      <trkpt lat="44.43797" lon="0.84411">
        <ele>134</ele>
        <time>2012-09-09T08:16:41Z</time>
      </trkpt>
      <trkpt lat="44.43807" lon="0.84396">
        <ele>129</ele>
        <time>2012-09-09T08:16:46Z</time>
      </trkpt>
      <trkpt lat="44.4381" lon="0.84394">
        <ele>128</ele>
        <time>2012-09-09T08:16:59Z</time>
      </trkpt>
      <trkpt lat="44.43812" lon="0.84395">
        <ele>131</ele>
        <time>2012-09-09T08:17:09Z</time>
      </trkpt>
      <trkpt lat="44.43813" lon="0.84395">
        <ele>135</ele>
        <time>2012-09-09T08:17:17Z</time>
      </trkpt>
      <trkpt lat="44.43814" lon="0.84395">
        <ele>140</ele>
        <time>2012-09-09T08:17:30Z</time>
      </trkpt>
      <trkpt lat="44.43815" lon="0.84394">
        <ele>144</ele>
        <time>2012-09-09T08:17:45Z</time>
      </trkpt>
      <trkpt lat="44.43816" lon="0.84393">
        <ele>147</ele>
        <time>2012-09-09T08:17:58Z</time>
      </trkpt>
      <trkpt lat="44.43818" lon="0.84391">
        <ele>151</ele>
        <time>2012-09-09T08:18:17Z</time>
      </trkpt>
      <trkpt lat="44.43818" lon="0.84393">
        <ele>156</ele>
        <time>2012-09-09T08:20:41Z</time>
      </trkpt>
      <trkpt lat="44.43819" lon="0.84395">
        <ele>156</ele>
        <time>2012-09-09T08:21:14Z</time>
      </trkpt>
      <trkpt lat="44.4382" lon="0.84395">
        <ele>156</ele>
        <time>2012-09-09T08:21:35Z</time>
      </trkpt>
      <trkpt lat="44.43821" lon="0.84395">
        <ele>156</ele>
        <time>2012-09-09T08:21:49Z</time>
      </trkpt>
      <trkpt lat="44.43822" lon="0.84396">
        <ele>156</ele>
        <time>2012-09-09T08:22:14Z</time>
      </trkpt>
      <trkpt lat="44.43822" lon="0.84398">
        <ele>156</ele>
        <time>2012-09-09T08:22:28Z</time>
      </trkpt>
      <trkpt lat="44.43822" lon="0.84396">
        <ele>156</ele>
        <time>2012-09-09T08:22:34Z</time>
      </trkpt>
      <trkpt lat="44.43821" lon="0.84395">
        <ele>156</ele>
        <time>2012-09-09T08:22:41Z</time>
      </trkpt>
      <trkpt lat="44.4382" lon="0.84395">
        <ele>155</ele>
        <time>2012-09-09T08:22:46Z</time>
      </trkpt>
      <trkpt lat="44.43818" lon="0.84397">
        <ele>151</ele>
        <time>2012-09-09T08:23:05Z</time>
      </trkpt>
      <trkpt lat="44.43815" lon="0.84396">
        <ele>150</ele>
        <time>2012-09-09T08:23:12Z</time>
      </trkpt>
      <trkpt lat="44.43814" lon="0.84398">
        <ele>148</ele>
        <time>2012-09-09T08:23:19Z</time>
      </trkpt>
      <trkpt lat="44.43813" lon="0.84401">
        <ele>144</ele>
        <time>2012-09-09T08:23:26Z</time>
      </trkpt>
      <trkpt lat="44.43809" lon="0.84399">
        <ele>138</ele>
        <time>2012-09-09T08:23:36Z</time>
      </trkpt>
      <trkpt lat="44.43808" lon="0.84396">
        <ele>136</ele>
        <time>2012-09-09T08:23:45Z</time>
      </trkpt>
      <trkpt lat="44.43806" lon="0.84396">
        <ele>134</ele>
        <time>2012-09-09T08:23:51Z</time>
      </trkpt>
      <trkpt lat="44.43805" lon="0.84394">
        <ele>133</ele>
        <time>2012-09-09T08:23:56Z</time>
      </trkpt>
      <trkpt lat="44.43804" lon="0.84394">
        <ele>127</ele>
        <time>2012-09-09T08:24:05Z</time>
      </trkpt>
      <trkpt lat="44.43804" lon="0.84396">
        <ele>125</ele>
        <time>2012-09-09T08:24:10Z</time>
      </trkpt>
      <trkpt lat="44.43805" lon="0.84397">
        <ele>125</ele>
        <time>2012-09-09T08:24:18Z</time>
      </trkpt>
      <trkpt lat="44.43804" lon="0.84395">
        <ele>124</ele>
        <time>2012-09-09T08:24:24Z</time>
      </trkpt>
      <trkpt lat="44.43798" lon="0.84383">
        <ele>124</ele>
        <time>2012-09-09T08:24:29Z</time>
      </trkpt>
      <trkpt lat="44.43793" lon="0.84362">
        <ele>124</ele>
        <time>2012-09-09T08:24:34Z</time>
      </trkpt>
      <trkpt lat="44.43789" lon="0.84336">
        <ele>124</ele>
        <time>2012-09-09T08:24:39Z</time>
      </trkpt>
      <trkpt lat="44.43786" lon="0.84306">
        <ele>124</ele>
        <time>2012-09-09T08:24:44Z</time>
      </trkpt>
      <trkpt lat="44.43781" lon="0.84266">
        <ele>124</ele>
        <time>2012-09-09T08:24:49Z</time>
      </trkpt>
      <trkpt lat="44.43773" lon="0.842">
        <ele>119</ele>
        <time>2012-09-09T08:24:55Z</time>
      </trkpt>
      <trkpt lat="44.43763" lon="0.84146">
        <ele>114</ele>
        <time>2012-09-09T08:25:00Z</time>
      </trkpt>
      <trkpt lat="44.43767" lon="0.84114">
        <ele>111</ele>
        <time>2012-09-09T08:25:05Z</time>
      </trkpt>
      <trkpt lat="44.43787" lon="0.8409">
        <ele>108</ele>
        <time>2012-09-09T08:25:10Z</time>
      </trkpt>
      <trkpt lat="44.43799" lon="0.84057">
        <ele>103</ele>
        <time>2012-09-09T08:25:15Z</time>
      </trkpt>
      <trkpt lat="44.43795" lon="0.84007">
        <ele>99</ele>
        <time>2012-09-09T08:25:20Z</time>
      </trkpt>
      <trkpt lat="44.43792" lon="0.83966">
        <ele>96</ele>
        <time>2012-09-09T08:25:25Z</time>
      </trkpt>
      <trkpt lat="44.43778" lon="0.83962">
        <ele>95</ele>
        <time>2012-09-09T08:25:30Z</time>
      </trkpt>
      <trkpt lat="44.43756" lon="0.83971">
        <ele>95</ele>
        <time>2012-09-09T08:25:35Z</time>
      </trkpt>
      <trkpt lat="44.43724" lon="0.83981">
        <ele>95</ele>
        <time>2012-09-09T08:25:40Z</time>
      </trkpt>
      <trkpt lat="44.43692" lon="0.83988">
        <ele>95</ele>
        <time>2012-09-09T08:25:45Z</time>
      </trkpt>
      <trkpt lat="44.43666" lon="0.83992">
        <ele>95</ele>
        <time>2012-09-09T08:25:50Z</time>
      </trkpt>
      <trkpt lat="44.43648" lon="0.83982">
        <ele>95</ele>
        <time>2012-09-09T08:25:55Z</time>
      </trkpt>
      <trkpt lat="44.43635" lon="0.8396">
        <ele>95</ele>
        <time>2012-09-09T08:26:00Z</time>
      </trkpt>
      <trkpt lat="44.43627" lon="0.8393">
        <ele>96</ele>
        <time>2012-09-09T08:26:05Z</time>
      </trkpt>
      <trkpt lat="44.43614" lon="0.83881">
        <ele>96</ele>
        <time>2012-09-09T08:26:10Z</time>
      </trkpt>
      <trkpt lat="44.436" lon="0.83827">
        <ele>95</ele>
        <time>2012-09-09T08:26:15Z</time>
      </trkpt>
      <trkpt lat="44.43584" lon="0.83768">
        <ele>91</ele>
        <time>2012-09-09T08:26:20Z</time>
      </trkpt>
      <trkpt lat="44.4357" lon="0.83711">
        <ele>87</ele>
        <time>2012-09-09T08:26:25Z</time>
      </trkpt>
      <trkpt lat="44.43561" lon="0.83666">
        <ele>85</ele>
        <time>2012-09-09T08:26:30Z</time>
      </trkpt>
      <trkpt lat="44.43553" lon="0.83616">
        <ele>83</ele>
        <time>2012-09-09T08:26:35Z</time>
      </trkpt>
      <trkpt lat="44.43536" lon="0.83573">
        <ele>83</ele>
        <time>2012-09-09T08:26:40Z</time>
      </trkpt>
      <trkpt lat="44.43517" lon="0.83536">
        <ele>83</ele>
        <time>2012-09-09T08:26:45Z</time>
      </trkpt>
      <trkpt lat="44.435" lon="0.83507">
        <ele>83</ele>
        <time>2012-09-09T08:26:50Z</time>
      </trkpt>
      <trkpt lat="44.43485" lon="0.8348">
        <ele>83</ele>
        <time>2012-09-09T08:26:55Z</time>
      </trkpt>
      <trkpt lat="44.435" lon="0.83462">
        <ele>83</ele>
        <time>2012-09-09T08:27:00Z</time>
      </trkpt>
      <trkpt lat="44.43523" lon="0.83443">
        <ele>81</ele>
        <time>2012-09-09T08:27:05Z</time>
      </trkpt>
      <trkpt lat="44.43552" lon="0.83417">
        <ele>78</ele>
        <time>2012-09-09T08:27:10Z</time>
      </trkpt>
      <trkpt lat="44.43564" lon="0.83394">
        <ele>74</ele>
        <time>2012-09-09T08:27:15Z</time>
      </trkpt>
      <trkpt lat="44.43552" lon="0.83355">
        <ele>70</ele>
        <time>2012-09-09T08:27:20Z</time>
      </trkpt>
      <trkpt lat="44.43544" lon="0.83319">
        <ele>70</ele>
        <time>2012-09-09T08:27:25Z</time>
      </trkpt>
      <trkpt lat="44.43533" lon="0.8331">
        <ele>70</ele>
        <time>2012-09-09T08:27:30Z</time>
      </trkpt>
      <trkpt lat="44.43517" lon="0.83333">
        <ele>70</ele>
        <time>2012-09-09T08:27:35Z</time>
      </trkpt>
      <trkpt lat="44.43499" lon="0.83354">
        <ele>70</ele>
        <time>2012-09-09T08:27:40Z</time>
      </trkpt>
      <trkpt lat="44.43474" lon="0.83355">
        <ele>68</ele>
        <time>2012-09-09T08:27:45Z</time>
      </trkpt>
      <trkpt lat="44.4345" lon="0.83342">
        <ele>68</ele>
        <time>2012-09-09T08:27:50Z</time>
      </trkpt>
      <trkpt lat="44.43428" lon="0.83326">
        <ele>68</ele>
        <time>2012-09-09T08:27:55Z</time>
      </trkpt>
      <trkpt lat="44.43409" lon="0.83327">
        <ele>68</ele>
        <time>2012-09-09T08:28:00Z</time>
      </trkpt>
      <trkpt lat="44.43396" lon="0.83353">
        <ele>68</ele>
        <time>2012-09-09T08:28:05Z</time>
      </trkpt>
      <trkpt lat="44.43378" lon="0.83373">
        <ele>68</ele>
        <time>2012-09-09T08:28:10Z</time>
      </trkpt>
      <trkpt lat="44.43354" lon="0.83383">
        <ele>68</ele>
        <time>2012-09-09T08:28:15Z</time>
      </trkpt>
      <trkpt lat="44.43331" lon="0.83393">
        <ele>68</ele>
        <time>2012-09-09T08:28:20Z</time>
      </trkpt>
      <trkpt lat="44.43305" lon="0.834">
        <ele>68</ele>
        <time>2012-09-09T08:28:25Z</time>
      </trkpt>
      <trkpt lat="44.43286" lon="0.8342">
        <ele>68</ele>
        <time>2012-09-09T08:28:30Z</time>
      </trkpt>
      <trkpt lat="44.43269" lon="0.83437">
        <ele>68</ele>
        <time>2012-09-09T08:28:35Z</time>
      </trkpt>
      <trkpt lat="44.43249" lon="0.83447">
        <ele>68</ele>
        <time>2012-09-09T08:28:40Z</time>
      </trkpt>
      <trkpt lat="44.43229" lon="0.83467">
        <ele>68</ele>
        <time>2012-09-09T08:28:45Z</time>
      </trkpt>
      <trkpt lat="44.43206" lon="0.83482">
        <ele>67</ele>
        <time>2012-09-09T08:28:50Z</time>
      </trkpt>
      <trkpt lat="44.4318" lon="0.83491">
        <ele>67</ele>
        <time>2012-09-09T08:28:55Z</time>
      </trkpt>
      <trkpt lat="44.43156" lon="0.83501">
        <ele>67</ele>
        <time>2012-09-09T08:29:00Z</time>
      </trkpt>
      <trkpt lat="44.43136" lon="0.83521">
        <ele>67</ele>
        <time>2012-09-09T08:29:05Z</time>
      </trkpt>
      <trkpt lat="44.43126" lon="0.83556">
        <ele>67</ele>
        <time>2012-09-09T08:29:10Z</time>
      </trkpt>
      <trkpt lat="44.43108" lon="0.83584">
        <ele>67</ele>
        <time>2012-09-09T08:29:15Z</time>
      </trkpt>
      <trkpt lat="44.43081" lon="0.83597">
        <ele>67</ele>
        <time>2012-09-09T08:29:20Z</time>
      </trkpt>
      <trkpt lat="44.43053" lon="0.83599">
        <ele>67</ele>
        <time>2012-09-09T08:29:25Z</time>
      </trkpt>
      <trkpt lat="44.43029" lon="0.83597">
        <ele>67</ele>
        <time>2012-09-09T08:29:30Z</time>
      </trkpt>
      <trkpt lat="44.4301" lon="0.83605">
        <ele>67</ele>
        <time>2012-09-09T08:29:35Z</time>
      </trkpt>
      <trkpt lat="44.42991" lon="0.83608">
        <ele>68</ele>
        <time>2012-09-09T08:29:40Z</time>
      </trkpt>
      <trkpt lat="44.42976" lon="0.836">
        <ele>69</ele>
        <time>2012-09-09T08:29:45Z</time>
      </trkpt>
      <trkpt lat="44.42969" lon="0.83591">
        <ele>70</ele>
        <time>2012-09-09T08:29:50Z</time>
      </trkpt>
      <trkpt lat="44.42961" lon="0.83581">
        <ele>72</ele>
        <time>2012-09-09T08:29:55Z</time>
      </trkpt>
      <trkpt lat="44.42954" lon="0.83567">
        <ele>76</ele>
        <time>2012-09-09T08:30:00Z</time>
      </trkpt>
      <trkpt lat="44.42949" lon="0.83551">
        <ele>78</ele>
        <time>2012-09-09T08:30:05Z</time>
      </trkpt>
      <trkpt lat="44.42943" lon="0.83534">
        <ele>79</ele>
        <time>2012-09-09T08:30:10Z</time>
      </trkpt>
      <trkpt lat="44.42941" lon="0.83516">
        <ele>79</ele>
        <time>2012-09-09T08:30:15Z</time>
      </trkpt>
      <trkpt lat="44.42934" lon="0.83502">
        <ele>81</ele>
        <time>2012-09-09T08:30:20Z</time>
      </trkpt>
      <trkpt lat="44.42924" lon="0.83493">
        <ele>81</ele>
        <time>2012-09-09T08:30:25Z</time>
      </trkpt>
      <trkpt lat="44.42907" lon="0.83499">
        <ele>81</ele>
        <time>2012-09-09T08:30:30Z</time>
      </trkpt>
      <trkpt lat="44.42889" lon="0.83505">
        <ele>81</ele>
        <time>2012-09-09T08:30:35Z</time>
      </trkpt>
      <trkpt lat="44.42867" lon="0.83512">
        <ele>81</ele>
        <time>2012-09-09T08:30:40Z</time>
      </trkpt>
      <trkpt lat="44.42839" lon="0.83497">
        <ele>79</ele>
        <time>2012-09-09T08:30:45Z</time>
      </trkpt>
      <trkpt lat="44.42821" lon="0.8348">
        <ele>75</ele>
        <time>2012-09-09T08:30:50Z</time>
      </trkpt>
      <trkpt lat="44.42823" lon="0.83455">
        <ele>71</ele>
        <time>2012-09-09T08:30:55Z</time>
      </trkpt>
      <trkpt lat="44.42833" lon="0.83433">
        <ele>70</ele>
        <time>2012-09-09T08:31:00Z</time>
      </trkpt>
      <trkpt lat="44.42844" lon="0.83408">
        <ele>70</ele>
        <time>2012-09-09T08:31:05Z</time>
      </trkpt>
      <trkpt lat="44.42854" lon="0.83381">
        <ele>70</ele>
        <time>2012-09-09T08:31:10Z</time>
      </trkpt>
      <trkpt lat="44.42862" lon="0.83353">
        <ele>69</ele>
        <time>2012-09-09T08:31:15Z</time>
      </trkpt>
      <trkpt lat="44.4287" lon="0.83325">
        <ele>65</ele>
        <time>2012-09-09T08:31:20Z</time>
      </trkpt>
      <trkpt lat="44.42876" lon="0.83294">
        <ele>62</ele>
        <time>2012-09-09T08:31:25Z</time>
      </trkpt>
      <trkpt lat="44.42881" lon="0.83275">
        <ele>61</ele>
        <time>2012-09-09T08:31:30Z</time>
      </trkpt>
      <trkpt lat="44.42871" lon="0.8328">
        <ele>61</ele>
        <time>2012-09-09T08:31:35Z</time>
      </trkpt>
      <trkpt lat="44.42865" lon="0.83309">
        <ele>62</ele>
        <time>2012-09-09T08:31:40Z</time>
      </trkpt>
      <trkpt lat="44.42856" lon="0.83341">
        <ele>64</ele>
        <time>2012-09-09T08:31:45Z</time>
      </trkpt>
      <trkpt lat="44.42841" lon="0.83359">
        <ele>65</ele>
        <time>2012-09-09T08:31:50Z</time>
      </trkpt>
      <trkpt lat="44.42825" lon="0.83354">
        <ele>68</ele>
        <time>2012-09-09T08:31:55Z</time>
      </trkpt>
      <trkpt lat="44.42809" lon="0.83345">
        <ele>70</ele>
        <time>2012-09-09T08:32:00Z</time>
      </trkpt>
      <trkpt lat="44.42796" lon="0.83335">
        <ele>72</ele>
        <time>2012-09-09T08:32:05Z</time>
      </trkpt>
      <trkpt lat="44.42779" lon="0.83338">
        <ele>73</ele>
        <time>2012-09-09T08:32:10Z</time>
      </trkpt>
      <trkpt lat="44.42764" lon="0.8333">
        <ele>75</ele>
        <time>2012-09-09T08:32:15Z</time>
      </trkpt>
      <trkpt lat="44.4275" lon="0.83317">
        <ele>76</ele>
        <time>2012-09-09T08:32:20Z</time>
      </trkpt>
      <trkpt lat="44.42736" lon="0.83303">
        <ele>78</ele>
        <time>2012-09-09T08:32:25Z</time>
      </trkpt>
      <trkpt lat="44.42722" lon="0.83289">
        <ele>79</ele>
        <time>2012-09-09T08:32:30Z</time>
      </trkpt>
      <trkpt lat="44.42708" lon="0.83275">
        <ele>79</ele>
        <time>2012-09-09T08:32:35Z</time>
      </trkpt>
      <trkpt lat="44.42692" lon="0.83261">
        <ele>79</ele>
        <time>2012-09-09T08:32:40Z</time>
      </trkpt>
      <trkpt lat="44.42677" lon="0.83246">
        <ele>80</ele>
        <time>2012-09-09T08:32:45Z</time>
      </trkpt>
      <trkpt lat="44.4266" lon="0.83231">
        <ele>80</ele>
        <time>2012-09-09T08:32:50Z</time>
      </trkpt>
      <trkpt lat="44.42662" lon="0.83207">
        <ele>80</ele>
        <time>2012-09-09T08:32:55Z</time>
      </trkpt>
      <trkpt lat="44.42671" lon="0.83179">
        <ele>80</ele>
        <time>2012-09-09T08:33:00Z</time>
      </trkpt>
      <trkpt lat="44.42679" lon="0.83151">
        <ele>81</ele>
        <time>2012-09-09T08:33:05Z</time>
      </trkpt>
      <trkpt lat="44.42687" lon="0.83117">
        <ele>81</ele>
        <time>2012-09-09T08:33:10Z</time>
      </trkpt>
      <trkpt lat="44.42696" lon="0.83086">
        <ele>80</ele>
        <time>2012-09-09T08:33:15Z</time>
      </trkpt>
      <trkpt lat="44.42704" lon="0.83057">
        <ele>79</ele>
        <time>2012-09-09T08:33:20Z</time>
      </trkpt>
      <trkpt lat="44.42712" lon="0.83029">
        <ele>79</ele>
        <time>2012-09-09T08:33:25Z</time>
      </trkpt>
      <trkpt lat="44.4272" lon="0.83002">
        <ele>79</ele>
        <time>2012-09-09T08:33:30Z</time>
      </trkpt>
      <trkpt lat="44.42728" lon="0.82975">
        <ele>80</ele>
        <time>2012-09-09T08:33:35Z</time>
      </trkpt>
      <trkpt lat="44.42735" lon="0.82949">
        <ele>82</ele>
        <time>2012-09-09T08:33:40Z</time>
      </trkpt>
      <trkpt lat="44.4273" lon="0.82924">
        <ele>83</ele>
        <time>2012-09-09T08:33:45Z</time>
      </trkpt>
      <trkpt lat="44.42711" lon="0.82914">
        <ele>83</ele>
        <time>2012-09-09T08:33:50Z</time>
      </trkpt>
      <trkpt lat="44.42715" lon="0.82891">
        <ele>83</ele>
        <time>2012-09-09T08:33:55Z</time>
      </trkpt>
      <trkpt lat="44.42723" lon="0.82864">
        <ele>83</ele>
        <time>2012-09-09T08:34:00Z</time>
      </trkpt>
      <trkpt lat="44.42733" lon="0.8283">
        <ele>83</ele>
        <time>2012-09-09T08:34:06Z</time>
      </trkpt>
      <trkpt lat="44.42739" lon="0.82802">
        <ele>83</ele>
        <time>2012-09-09T08:34:11Z</time>
      </trkpt>
      <trkpt lat="44.42744" lon="0.8277">
        <ele>83</ele>
        <time>2012-09-09T08:34:16Z</time>
      </trkpt>
      <trkpt lat="44.42746" lon="0.8274">
        <ele>83</ele>
        <time>2012-09-09T08:34:21Z</time>
      </trkpt>
      <trkpt lat="44.42744" lon="0.82707">
        <ele>83</ele>
        <time>2012-09-09T08:34:26Z</time>
      </trkpt>
      <trkpt lat="44.42748" lon="0.82683">
        <ele>83</ele>
        <time>2012-09-09T08:34:31Z</time>
      </trkpt>
      <trkpt lat="44.42735" lon="0.82674">
        <ele>83</ele>
        <time>2012-09-09T08:34:36Z</time>
      </trkpt>
      <trkpt lat="44.42703" lon="0.82663">
        <ele>83</ele>
        <time>2012-09-09T08:34:42Z</time>
      </trkpt>
      <trkpt lat="44.42676" lon="0.8265">
        <ele>82</ele>
        <time>2012-09-09T08:34:47Z</time>
      </trkpt>
      <trkpt lat="44.42667" lon="0.82631">
        <ele>82</ele>
        <time>2012-09-09T08:34:52Z</time>
      </trkpt>
      <trkpt lat="44.42679" lon="0.82611">
        <ele>82</ele>
        <time>2012-09-09T08:34:57Z</time>
      </trkpt>
      <trkpt lat="44.42692" lon="0.82591">
        <ele>82</ele>
        <time>2012-09-09T08:35:02Z</time>
      </trkpt>
      <trkpt lat="44.42705" lon="0.8257">
        <ele>82</ele>
        <time>2012-09-09T08:35:07Z</time>
      </trkpt>
      <trkpt lat="44.42716" lon="0.82552">
        <ele>82</ele>
        <time>2012-09-09T08:35:12Z</time>
      </trkpt>
      <trkpt lat="44.42715" lon="0.82536">
        <ele>82</ele>
        <time>2012-09-09T08:35:18Z</time>
      </trkpt>
      <trkpt lat="44.42701" lon="0.82522">
        <ele>82</ele>
        <time>2012-09-09T08:35:23Z</time>
      </trkpt>
      <trkpt lat="44.42683" lon="0.82507">
        <ele>82</ele>
        <time>2012-09-09T08:35:28Z</time>
      </trkpt>
      <trkpt lat="44.42663" lon="0.82489">
        <ele>82</ele>
        <time>2012-09-09T08:35:33Z</time>
      </trkpt>
      <trkpt lat="44.42641" lon="0.82468">
        <ele>80</ele>
        <time>2012-09-09T08:35:38Z</time>
      </trkpt>
      <trkpt lat="44.42617" lon="0.82446">
        <ele>77</ele>
        <time>2012-09-09T08:35:43Z</time>
      </trkpt>
      <trkpt lat="44.4262" lon="0.82424">
        <ele>76</ele>
        <time>2012-09-09T08:35:48Z</time>
      </trkpt>
      <trkpt lat="44.42632" lon="0.82407">
        <ele>76</ele>
        <time>2012-09-09T08:35:53Z</time>
      </trkpt>
      <trkpt lat="44.42645" lon="0.82391">
        <ele>76</ele>
        <time>2012-09-09T08:35:58Z</time>
      </trkpt>
      <trkpt lat="44.42656" lon="0.82374">
        <ele>76</ele>
        <time>2012-09-09T08:36:03Z</time>
      </trkpt>
      <trkpt lat="44.42668" lon="0.82354">
        <ele>76</ele>
        <time>2012-09-09T08:36:08Z</time>
      </trkpt>
      <trkpt lat="44.42679" lon="0.82335">
        <ele>76</ele>
        <time>2012-09-09T08:36:13Z</time>
      </trkpt>
      <trkpt lat="44.42689" lon="0.82314">
        <ele>75</ele>
        <time>2012-09-09T08:36:18Z</time>
      </trkpt>
      <trkpt lat="44.42697" lon="0.82296">
        <ele>75</ele>
        <time>2012-09-09T08:36:23Z</time>
      </trkpt>
      <trkpt lat="44.42706" lon="0.82276">
        <ele>75</ele>
        <time>2012-09-09T08:36:28Z</time>
      </trkpt>
      <trkpt lat="44.42716" lon="0.82257">
        <ele>76</ele>
        <time>2012-09-09T08:36:33Z</time>
      </trkpt>
      <trkpt lat="44.42728" lon="0.82241">
        <ele>77</ele>
        <time>2012-09-09T08:36:38Z</time>
      </trkpt>
      <trkpt lat="44.42743" lon="0.82228">
        <ele>77</ele>
        <time>2012-09-09T08:36:43Z</time>
      </trkpt>
      <trkpt lat="44.42759" lon="0.82219">
        <ele>77</ele>
        <time>2012-09-09T08:36:48Z</time>
      </trkpt>
      <trkpt lat="44.42775" lon="0.82213">
        <ele>77</ele>
        <time>2012-09-09T08:36:53Z</time>
      </trkpt>
      <trkpt lat="44.42792" lon="0.82208">
        <ele>77</ele>
        <time>2012-09-09T08:36:58Z</time>
      </trkpt>
      <trkpt lat="44.42806" lon="0.82203">
        <ele>77</ele>
        <time>2012-09-09T08:37:03Z</time>
      </trkpt>
      <trkpt lat="44.42819" lon="0.82193">
        <ele>77</ele>
        <time>2012-09-09T08:37:08Z</time>
      </trkpt>
      <trkpt lat="44.42832" lon="0.82183">
        <ele>77</ele>
        <time>2012-09-09T08:37:13Z</time>
      </trkpt>
      <trkpt lat="44.42845" lon="0.82177">
        <ele>77</ele>
        <time>2012-09-09T08:37:18Z</time>
      </trkpt>
      <trkpt lat="44.4285" lon="0.82171">
        <ele>76</ele>
        <time>2012-09-09T08:37:23Z</time>
      </trkpt>
      <trkpt lat="44.42854" lon="0.82154">
        <ele>76</ele>
        <time>2012-09-09T08:37:28Z</time>
      </trkpt>
      <trkpt lat="44.42864" lon="0.82137">
        <ele>75</ele>
        <time>2012-09-09T08:37:33Z</time>
      </trkpt>
      <trkpt lat="44.42875" lon="0.82119">
        <ele>74</ele>
        <time>2012-09-09T08:37:38Z</time>
      </trkpt>
      <trkpt lat="44.42886" lon="0.821">
        <ele>72</ele>
        <time>2012-09-09T08:37:43Z</time>
      </trkpt>
      <trkpt lat="44.42897" lon="0.82082">
        <ele>72</ele>
        <time>2012-09-09T08:37:48Z</time>
      </trkpt>
      <trkpt lat="44.42909" lon="0.82065">
        <ele>71</ele>
        <time>2012-09-09T08:37:53Z</time>
      </trkpt>
      <trkpt lat="44.42921" lon="0.82048">
        <ele>71</ele>
        <time>2012-09-09T08:37:58Z</time>
      </trkpt>
      <trkpt lat="44.42933" lon="0.8203">
        <ele>71</ele>
        <time>2012-09-09T08:38:03Z</time>
      </trkpt>
      <trkpt lat="44.42944" lon="0.82013">
        <ele>71</ele>
        <time>2012-09-09T08:38:08Z</time>
      </trkpt>
      <trkpt lat="44.42956" lon="0.81997">
        <ele>71</ele>
        <time>2012-09-09T08:38:13Z</time>
      </trkpt>
      <trkpt lat="44.42968" lon="0.8198">
        <ele>71</ele>
        <time>2012-09-09T08:38:18Z</time>
      </trkpt>
      <trkpt lat="44.42979" lon="0.81963">
        <ele>71</ele>
        <time>2012-09-09T08:38:23Z</time>
      </trkpt>
      <trkpt lat="44.42991" lon="0.81947">
        <ele>71</ele>
        <time>2012-09-09T08:38:28Z</time>
      </trkpt>
      <trkpt lat="44.43002" lon="0.81932">
        <ele>71</ele>
        <time>2012-09-09T08:38:33Z</time>
      </trkpt>
      <trkpt lat="44.43013" lon="0.81926">
        <ele>71</ele>
        <time>2012-09-09T08:38:38Z</time>
      </trkpt>
      <trkpt lat="44.43025" lon="0.81936">
        <ele>71</ele>
        <time>2012-09-09T08:38:43Z</time>
      </trkpt>
      <trkpt lat="44.43037" lon="0.81947">
        <ele>71</ele>
        <time>2012-09-09T08:38:48Z</time>
      </trkpt>
      <trkpt lat="44.43049" lon="0.81958">
        <ele>71</ele>
        <time>2012-09-09T08:38:53Z</time>
      </trkpt>
      <trkpt lat="44.43058" lon="0.81967">
        <ele>72</ele>
        <time>2012-09-09T08:38:58Z</time>
      </trkpt>
      <trkpt lat="44.43066" lon="0.81979">
        <ele>77</ele>
        <time>2012-09-09T08:39:03Z</time>
      </trkpt>
      <trkpt lat="44.43072" lon="0.81988">
        <ele>81</ele>
        <time>2012-09-09T08:39:08Z</time>
      </trkpt>
      <trkpt lat="44.43078" lon="0.81996">
        <ele>82</ele>
        <time>2012-09-09T08:39:13Z</time>
      </trkpt>
      <trkpt lat="44.43084" lon="0.82006">
        <ele>84</ele>
        <time>2012-09-09T08:39:18Z</time>
      </trkpt>
      <trkpt lat="44.4309" lon="0.82016">
        <ele>87</ele>
        <time>2012-09-09T08:39:23Z</time>
      </trkpt>
      <trkpt lat="44.43095" lon="0.82026">
        <ele>90</ele>
        <time>2012-09-09T08:39:28Z</time>
      </trkpt>
      <trkpt lat="44.431" lon="0.82033">
        <ele>93</ele>
        <time>2012-09-09T08:39:33Z</time>
      </trkpt>
      <trkpt lat="44.43105" lon="0.82038">
        <ele>93</ele>
        <time>2012-09-09T08:39:38Z</time>
      </trkpt>
      <trkpt lat="44.4311" lon="0.82043">
        <ele>93</ele>
        <time>2012-09-09T08:39:43Z</time>
      </trkpt>
      <trkpt lat="44.43115" lon="0.82049">
        <ele>93</ele>
        <time>2012-09-09T08:39:48Z</time>
      </trkpt>
      <trkpt lat="44.43118" lon="0.82066">
        <ele>93</ele>
        <time>2012-09-09T08:39:53Z</time>
      </trkpt>
      <trkpt lat="44.43115" lon="0.82083">
        <ele>93</ele>
        <time>2012-09-09T08:39:58Z</time>
      </trkpt>
      <trkpt lat="44.4311" lon="0.82099">
        <ele>94</ele>
        <time>2012-09-09T08:40:03Z</time>
      </trkpt>
      <trkpt lat="44.43105" lon="0.82115">
        <ele>94</ele>
        <time>2012-09-09T08:40:08Z</time>
      </trkpt>
      <trkpt lat="44.43102" lon="0.82131">
        <ele>94</ele>
        <time>2012-09-09T08:40:13Z</time>
      </trkpt>
      <trkpt lat="44.43108" lon="0.82138">
        <ele>96</ele>
        <time>2012-09-09T08:40:18Z</time>
      </trkpt>
      <trkpt lat="44.43115" lon="0.82144">
        <ele>96</ele>
        <time>2012-09-09T08:40:23Z</time>
      </trkpt>
      <trkpt lat="44.43121" lon="0.82152">
        <ele>98</ele>
        <time>2012-09-09T08:40:28Z</time>
      </trkpt>
      <trkpt lat="44.43128" lon="0.82161">
        <ele>100</ele>
        <time>2012-09-09T08:40:33Z</time>
      </trkpt>
      <trkpt lat="44.43134" lon="0.82167">
        <ele>100</ele>
        <time>2012-09-09T08:40:38Z</time>
      </trkpt>
      <trkpt lat="44.4314" lon="0.82174">
        <ele>101</ele>
        <time>2012-09-09T08:40:43Z</time>
      </trkpt>
      <trkpt lat="44.43148" lon="0.82183">
        <ele>101</ele>
        <time>2012-09-09T08:40:48Z</time>
      </trkpt>
      <trkpt lat="44.43155" lon="0.82192">
        <ele>101</ele>
        <time>2012-09-09T08:40:53Z</time>
      </trkpt>
      <trkpt lat="44.43162" lon="0.82201">
        <ele>101</ele>
        <time>2012-09-09T08:40:58Z</time>
      </trkpt>
      <trkpt lat="44.43169" lon="0.8221">
        <ele>102</ele>
        <time>2012-09-09T08:41:03Z</time>
      </trkpt>
      <trkpt lat="44.43176" lon="0.82219">
        <ele>102</ele>
        <time>2012-09-09T08:41:08Z</time>
      </trkpt>
      <trkpt lat="44.43184" lon="0.82229">
        <ele>103</ele>
        <time>2012-09-09T08:41:13Z</time>
      </trkpt>
      <trkpt lat="44.43193" lon="0.82242">
        <ele>104</ele>
        <time>2012-09-09T08:41:18Z</time>
      </trkpt>
      <trkpt lat="44.43201" lon="0.82239">
        <ele>105</ele>
        <time>2012-09-09T08:41:23Z</time>
      </trkpt>
      <trkpt lat="44.43206" lon="0.82223">
        <ele>105</ele>
        <time>2012-09-09T08:41:28Z</time>
      </trkpt>
      <trkpt lat="44.43209" lon="0.82208">
        <ele>105</ele>
        <time>2012-09-09T08:41:33Z</time>
      </trkpt>
      <trkpt lat="44.43214" lon="0.82192">
        <ele>105</ele>
        <time>2012-09-09T08:41:38Z</time>
      </trkpt>
      <trkpt lat="44.43219" lon="0.82177">
        <ele>105</ele>
        <time>2012-09-09T08:41:43Z</time>
      </trkpt>
      <trkpt lat="44.43224" lon="0.82163">
        <ele>105</ele>
        <time>2012-09-09T08:41:48Z</time>
      </trkpt>
      <trkpt lat="44.43228" lon="0.82147">
        <ele>105</ele>
        <time>2012-09-09T08:41:53Z</time>
      </trkpt>
      <trkpt lat="44.43232" lon="0.82135">
        <ele>105</ele>
        <time>2012-09-09T08:41:58Z</time>
      </trkpt>
      <trkpt lat="44.43236" lon="0.82122">
        <ele>105</ele>
        <time>2012-09-09T08:42:03Z</time>
      </trkpt>
      <trkpt lat="44.4324" lon="0.8211">
        <ele>105</ele>
        <time>2012-09-09T08:42:08Z</time>
      </trkpt>
      <trkpt lat="44.43243" lon="0.821">
        <ele>105</ele>
        <time>2012-09-09T08:42:13Z</time>
      </trkpt>
      <trkpt lat="44.43246" lon="0.82092">
        <ele>109</ele>
        <time>2012-09-09T08:42:18Z</time>
      </trkpt>
      <trkpt lat="44.43248" lon="0.82085">
        <ele>110</ele>
        <time>2012-09-09T08:42:23Z</time>
      </trkpt>
      <trkpt lat="44.43251" lon="0.82075">
        <ele>110</ele>
        <time>2012-09-09T08:42:28Z</time>
      </trkpt>
      <trkpt lat="44.43255" lon="0.82069">
        <ele>111</ele>
        <time>2012-09-09T08:42:33Z</time>
      </trkpt>
      <trkpt lat="44.43262" lon="0.82059">
        <ele>112</ele>
        <time>2012-09-09T08:42:38Z</time>
      </trkpt>
      <trkpt lat="44.43268" lon="0.82051">
        <ele>112</ele>
        <time>2012-09-09T08:42:43Z</time>
      </trkpt>
      <trkpt lat="44.43274" lon="0.82039">
        <ele>112</ele>
        <time>2012-09-09T08:42:48Z</time>
      </trkpt>
      <trkpt lat="44.4328" lon="0.82029">
        <ele>112</ele>
        <time>2012-09-09T08:42:53Z</time>
      </trkpt>
      <trkpt lat="44.43291" lon="0.8202">
        <ele>112</ele>
        <time>2012-09-09T08:42:58Z</time>
      </trkpt>
      <trkpt lat="44.433" lon="0.82012">
        <ele>112</ele>
        <time>2012-09-09T08:43:03Z</time>
      </trkpt>
      <trkpt lat="44.43304" lon="0.81998">
        <ele>112</ele>
        <time>2012-09-09T08:43:08Z</time>
      </trkpt>
      <trkpt lat="44.43303" lon="0.81981">
        <ele>112</ele>
        <time>2012-09-09T08:43:13Z</time>
      </trkpt>
      <trkpt lat="44.433" lon="0.81971">
        <ele>114</ele>
        <time>2012-09-09T08:43:18Z</time>
      </trkpt>
      <trkpt lat="44.43294" lon="0.8197">
        <ele>116</ele>
        <time>2012-09-09T08:43:24Z</time>
      </trkpt>
      <trkpt lat="44.43302" lon="0.81985">
        <ele>116</ele>
        <time>2012-09-09T08:43:29Z</time>
      </trkpt>
      <trkpt lat="44.43305" lon="0.82007">
        <ele>116</ele>
        <time>2012-09-09T08:43:34Z</time>
      </trkpt>
      <trkpt lat="44.43302" lon="0.82028">
        <ele>116</ele>
        <time>2012-09-09T08:43:39Z</time>
      </trkpt>
      <trkpt lat="44.43307" lon="0.82043">
        <ele>116</ele>
        <time>2012-09-09T08:43:44Z</time>
      </trkpt>
      <trkpt lat="44.43325" lon="0.82051">
        <ele>116</ele>
        <time>2012-09-09T08:43:49Z</time>
      </trkpt>
      <trkpt lat="44.4334" lon="0.82059">
        <ele>116</ele>
        <time>2012-09-09T08:43:54Z</time>
      </trkpt>
      <trkpt lat="44.43358" lon="0.8206">
        <ele>116</ele>
        <time>2012-09-09T08:43:59Z</time>
      </trkpt>
      <trkpt lat="44.43378" lon="0.82054">
        <ele>113</ele>
        <time>2012-09-09T08:44:04Z</time>
      </trkpt>
      <trkpt lat="44.43397" lon="0.8205">
        <ele>112</ele>
        <time>2012-09-09T08:44:09Z</time>
      </trkpt>
      <trkpt lat="44.43417" lon="0.82044">
        <ele>110</ele>
        <time>2012-09-09T08:44:14Z</time>
      </trkpt>
      <trkpt lat="44.43433" lon="0.82036">
        <ele>110</ele>
        <time>2012-09-09T08:44:19Z</time>
      </trkpt>
      <trkpt lat="44.43427" lon="0.82013">
        <ele>110</ele>
        <time>2012-09-09T08:44:24Z</time>
      </trkpt>
      <trkpt lat="44.43415" lon="0.81972">
        <ele>110</ele>
        <time>2012-09-09T08:44:29Z</time>
      </trkpt>
      <trkpt lat="44.434" lon="0.81912">
        <ele>108</ele>
        <time>2012-09-09T08:44:34Z</time>
      </trkpt>
      <trkpt lat="44.43384" lon="0.81852">
        <ele>104</ele>
        <time>2012-09-09T08:44:39Z</time>
      </trkpt>
      <trkpt lat="44.43362" lon="0.81803">
        <ele>100</ele>
        <time>2012-09-09T08:44:44Z</time>
      </trkpt>
      <trkpt lat="44.4334" lon="0.81777">
        <ele>95</ele>
        <time>2012-09-09T08:44:49Z</time>
      </trkpt>
      <trkpt lat="44.43328" lon="0.81767">
        <ele>93</ele>
        <time>2012-09-09T08:44:54Z</time>
      </trkpt>
      <trkpt lat="44.43318" lon="0.81745">
        <ele>91</ele>
        <time>2012-09-09T08:44:59Z</time>
      </trkpt>
      <trkpt lat="44.43308" lon="0.81717">
        <ele>90</ele>
        <time>2012-09-09T08:45:04Z</time>
      </trkpt>
      <trkpt lat="44.43299" lon="0.81694">
        <ele>88</ele>
        <time>2012-09-09T08:45:09Z</time>
      </trkpt>
      <trkpt lat="44.43286" lon="0.81659">
        <ele>87</ele>
        <time>2012-09-09T08:45:14Z</time>
      </trkpt>
      <trkpt lat="44.43282" lon="0.81639">
        <ele>87</ele>
        <time>2012-09-09T08:45:19Z</time>
      </trkpt>
      <trkpt lat="44.43296" lon="0.81636">
        <ele>86</ele>
        <time>2012-09-09T08:45:24Z</time>
      </trkpt>
      <trkpt lat="44.43314" lon="0.81633">
        <ele>84</ele>
        <time>2012-09-09T08:45:29Z</time>
      </trkpt>
      <trkpt lat="44.4333" lon="0.81622">
        <ele>83</ele>
        <time>2012-09-09T08:45:34Z</time>
      </trkpt>
      <trkpt lat="44.43346" lon="0.81608">
        <ele>82</ele>
        <time>2012-09-09T08:45:39Z</time>
      </trkpt>
      <trkpt lat="44.43362" lon="0.81596">
        <ele>82</ele>
        <time>2012-09-09T08:45:44Z</time>
      </trkpt>
      <trkpt lat="44.43362" lon="0.81575">
        <ele>80</ele>
        <time>2012-09-09T08:45:49Z</time>
      </trkpt>
      <trkpt lat="44.43351" lon="0.81555">
        <ele>80</ele>
        <time>2012-09-09T08:45:54Z</time>
      </trkpt>
      <trkpt lat="44.43338" lon="0.81533">
        <ele>80</ele>
        <time>2012-09-09T08:45:59Z</time>
      </trkpt>
      <trkpt lat="44.43326" lon="0.81512">
        <ele>80</ele>
        <time>2012-09-09T08:46:04Z</time>
      </trkpt>
      <trkpt lat="44.43314" lon="0.81492">
        <ele>80</ele>
        <time>2012-09-09T08:46:09Z</time>
      </trkpt>
      <trkpt lat="44.43302" lon="0.81473">
        <ele>80</ele>
        <time>2012-09-09T08:46:14Z</time>
      </trkpt>
      <trkpt lat="44.43293" lon="0.81454">
        <ele>80</ele>
        <time>2012-09-09T08:46:19Z</time>
      </trkpt>
      <trkpt lat="44.43301" lon="0.81436">
        <ele>80</ele>
        <time>2012-09-09T08:46:24Z</time>
      </trkpt>
      <trkpt lat="44.43297" lon="0.81418">
        <ele>80</ele>
        <time>2012-09-09T08:46:29Z</time>
      </trkpt>
      <trkpt lat="44.43287" lon="0.81403">
        <ele>80</ele>
        <time>2012-09-09T08:46:34Z</time>
      </trkpt>
      <trkpt lat="44.43279" lon="0.81391">
        <ele>81</ele>
        <time>2012-09-09T08:46:39Z</time>
      </trkpt>
      <trkpt lat="44.43271" lon="0.81379">
        <ele>82</ele>
        <time>2012-09-09T08:46:44Z</time>
      </trkpt>
      <trkpt lat="44.43264" lon="0.81368">
        <ele>84</ele>
        <time>2012-09-09T08:46:49Z</time>
      </trkpt>
      <trkpt lat="44.43255" lon="0.81358">
        <ele>85</ele>
        <time>2012-09-09T08:46:54Z</time>
      </trkpt>
      <trkpt lat="44.43243" lon="0.81362">
        <ele>87</ele>
        <time>2012-09-09T08:46:59Z</time>
      </trkpt>
      <trkpt lat="44.43231" lon="0.81367">
        <ele>89</ele>
        <time>2012-09-09T08:47:04Z</time>
      </trkpt>
      <trkpt lat="44.4322" lon="0.8136">
        <ele>90</ele>
        <time>2012-09-09T08:47:09Z</time>
      </trkpt>
      <trkpt lat="44.43212" lon="0.81348">
        <ele>91</ele>
        <time>2012-09-09T08:47:14Z</time>
      </trkpt>
      <trkpt lat="44.43204" lon="0.81336">
        <ele>93</ele>
        <time>2012-09-09T08:47:19Z</time>
      </trkpt>
      <trkpt lat="44.43195" lon="0.81325">
        <ele>94</ele>
        <time>2012-09-09T08:47:24Z</time>
      </trkpt>
      <trkpt lat="44.43186" lon="0.81314">
        <ele>96</ele>
        <time>2012-09-09T08:47:29Z</time>
      </trkpt>
      <trkpt lat="44.43177" lon="0.81303">
        <ele>96</ele>
        <time>2012-09-09T08:47:34Z</time>
      </trkpt>
      <trkpt lat="44.43166" lon="0.81297">
        <ele>97</ele>
        <time>2012-09-09T08:47:39Z</time>
      </trkpt>
      <trkpt lat="44.43155" lon="0.81309">
        <ele>97</ele>
        <time>2012-09-09T08:47:44Z</time>
      </trkpt>
      <trkpt lat="44.4314" lon="0.81325">
        <ele>98</ele>
        <time>2012-09-09T08:47:49Z</time>
      </trkpt>
      <trkpt lat="44.43122" lon="0.81343">
        <ele>98</ele>
        <time>2012-09-09T08:47:54Z</time>
      </trkpt>
      <trkpt lat="44.43102" lon="0.81359">
        <ele>99</ele>
        <time>2012-09-09T08:47:59Z</time>
      </trkpt>
      <trkpt lat="44.43079" lon="0.81375">
        <ele>99</ele>
        <time>2012-09-09T08:48:04Z</time>
      </trkpt>
      <trkpt lat="44.43053" lon="0.81389">
        <ele>99</ele>
        <time>2012-09-09T08:48:09Z</time>
      </trkpt>
      <trkpt lat="44.43026" lon="0.81408">
        <ele>99</ele>
        <time>2012-09-09T08:48:14Z</time>
      </trkpt>
      <trkpt lat="44.42999" lon="0.81435">
        <ele>99</ele>
        <time>2012-09-09T08:48:19Z</time>
      </trkpt>
      <trkpt lat="44.42981" lon="0.81474">
        <ele>99</ele>
        <time>2012-09-09T08:48:24Z</time>
      </trkpt>
      <trkpt lat="44.42961" lon="0.81512">
        <ele>99</ele>
        <time>2012-09-09T08:48:29Z</time>
      </trkpt>
      <trkpt lat="44.42936" lon="0.81541">
        <ele>99</ele>
        <time>2012-09-09T08:48:34Z</time>
      </trkpt>
      <trkpt lat="44.42909" lon="0.81545">
        <ele>99</ele>
        <time>2012-09-09T08:48:39Z</time>
      </trkpt>
      <trkpt lat="44.4289" lon="0.81514">
        <ele>99</ele>
        <time>2012-09-09T08:48:44Z</time>
      </trkpt>
      <trkpt lat="44.42876" lon="0.81485">
        <ele>99</ele>
        <time>2012-09-09T08:48:49Z</time>
      </trkpt>
      <trkpt lat="44.42864" lon="0.81461">
        <ele>99</ele>
        <time>2012-09-09T08:48:54Z</time>
      </trkpt>
      <trkpt lat="44.42852" lon="0.81437">
        <ele>97</ele>
        <time>2012-09-09T08:48:59Z</time>
      </trkpt>
      <trkpt lat="44.42837" lon="0.81416">
        <ele>97</ele>
        <time>2012-09-09T08:49:04Z</time>
      </trkpt>
      <trkpt lat="44.42822" lon="0.81398">
        <ele>97</ele>
        <time>2012-09-09T08:49:09Z</time>
      </trkpt>
      <trkpt lat="44.42823" lon="0.81374">
        <ele>97</ele>
        <time>2012-09-09T08:49:14Z</time>
      </trkpt>
      <trkpt lat="44.42832" lon="0.81349">
        <ele>97</ele>
        <time>2012-09-09T08:49:19Z</time>
      </trkpt>
      <trkpt lat="44.42842" lon="0.81324">
        <ele>96</ele>
        <time>2012-09-09T08:49:24Z</time>
      </trkpt>
      <trkpt lat="44.42851" lon="0.81301">
        <ele>95</ele>
        <time>2012-09-09T08:49:29Z</time>
      </trkpt>
      <trkpt lat="44.4286" lon="0.8128">
        <ele>94</ele>
        <time>2012-09-09T08:49:34Z</time>
      </trkpt>
      <trkpt lat="44.42868" lon="0.8126">
        <ele>94</ele>
        <time>2012-09-09T08:49:39Z</time>
      </trkpt>
      <trkpt lat="44.42877" lon="0.8124">
        <ele>94</ele>
        <time>2012-09-09T08:49:44Z</time>
      </trkpt>
      <trkpt lat="44.42885" lon="0.81221">
        <ele>94</ele>
        <time>2012-09-09T08:49:49Z</time>
      </trkpt>
      <trkpt lat="44.4288" lon="0.81205">
        <ele>94</ele>
        <time>2012-09-09T08:49:54Z</time>
      </trkpt>
      <trkpt lat="44.4287" lon="0.81193">
        <ele>94</ele>
        <time>2012-09-09T08:49:59Z</time>
      </trkpt>
      <trkpt lat="44.42857" lon="0.812">
        <ele>94</ele>
        <time>2012-09-09T08:50:04Z</time>
      </trkpt>
      <trkpt lat="44.42847" lon="0.81221">
        <ele>94</ele>
        <time>2012-09-09T08:50:09Z</time>
      </trkpt>
      <trkpt lat="44.42836" lon="0.81248">
        <ele>96</ele>
        <time>2012-09-09T08:50:14Z</time>
      </trkpt>
      <trkpt lat="44.42823" lon="0.81275">
        <ele>97</ele>
        <time>2012-09-09T08:50:19Z</time>
      </trkpt>
      <trkpt lat="44.4281" lon="0.81304">
        <ele>97</ele>
        <time>2012-09-09T08:50:24Z</time>
      </trkpt>
      <trkpt lat="44.42796" lon="0.81331">
        <ele>97</ele>
        <time>2012-09-09T08:50:29Z</time>
      </trkpt>
      <trkpt lat="44.42782" lon="0.81359">
        <ele>97</ele>
        <time>2012-09-09T08:50:34Z</time>
      </trkpt>
      <trkpt lat="44.42765" lon="0.81384">
        <ele>97</ele>
        <time>2012-09-09T08:50:39Z</time>
      </trkpt>
      <trkpt lat="44.42744" lon="0.81403">
        <ele>97</ele>
        <time>2012-09-09T08:50:44Z</time>
      </trkpt>
      <trkpt lat="44.42723" lon="0.81419">
        <ele>97</ele>
        <time>2012-09-09T08:50:49Z</time>
      </trkpt>
      <trkpt lat="44.42709" lon="0.81446">
        <ele>97</ele>
        <time>2012-09-09T08:50:54Z</time>
      </trkpt>
      <trkpt lat="44.42701" lon="0.81483">
        <ele>97</ele>
        <time>2012-09-09T08:50:59Z</time>
      </trkpt>
      <trkpt lat="44.42693" lon="0.81521">
        <ele>95</ele>
        <time>2012-09-09T08:51:04Z</time>
      </trkpt>
      <trkpt lat="44.42685" lon="0.81558">
        <ele>93</ele>
        <time>2012-09-09T08:51:09Z</time>
      </trkpt>
      <trkpt lat="44.42695" lon="0.81573">
        <ele>93</ele>
        <time>2012-09-09T08:51:14Z</time>
      </trkpt>
      <trkpt lat="44.42706" lon="0.81577">
        <ele>92</ele>
        <time>2012-09-09T08:51:19Z</time>
      </trkpt>
      <trkpt lat="44.42697" lon="0.81588">
        <ele>92</ele>
        <time>2012-09-09T08:51:24Z</time>
      </trkpt>
      <trkpt lat="44.42714" lon="0.81593">
        <ele>91</ele>
        <time>2012-09-09T08:51:29Z</time>
      </trkpt>
      <trkpt lat="44.42736" lon="0.81602">
        <ele>90</ele>
        <time>2012-09-09T08:51:34Z</time>
      </trkpt>
      <trkpt lat="44.42736" lon="0.8163">
        <ele>90</ele>
        <time>2012-09-09T08:51:39Z</time>
      </trkpt>
      <trkpt lat="44.42732" lon="0.81669">
        <ele>89</ele>
        <time>2012-09-09T08:51:44Z</time>
      </trkpt>
      <trkpt lat="44.42728" lon="0.81711">
        <ele>86</ele>
        <time>2012-09-09T08:51:49Z</time>
      </trkpt>
      <trkpt lat="44.42724" lon="0.81753">
        <ele>82</ele>
        <time>2012-09-09T08:51:54Z</time>
      </trkpt>
      <trkpt lat="44.42712" lon="0.81792">
        <ele>79</ele>
        <time>2012-09-09T08:51:59Z</time>
      </trkpt>
      <trkpt lat="44.42695" lon="0.81823">
        <ele>79</ele>
        <time>2012-09-09T08:52:04Z</time>
      </trkpt>
      <trkpt lat="44.42684" lon="0.81864">
        <ele>78</ele>
        <time>2012-09-09T08:52:09Z</time>
      </trkpt>
      <trkpt lat="44.42675" lon="0.81905">
        <ele>78</ele>
        <time>2012-09-09T08:52:14Z</time>
      </trkpt>
      <trkpt lat="44.42666" lon="0.81945">
        <ele>77</ele>
        <time>2012-09-09T08:52:19Z</time>
      </trkpt>
      <trkpt lat="44.42659" lon="0.81979">
        <ele>77</ele>
        <time>2012-09-09T08:52:24Z</time>
      </trkpt>
      <trkpt lat="44.4265" lon="0.82012">
        <ele>76</ele>
        <time>2012-09-09T08:52:29Z</time>
      </trkpt>
      <trkpt lat="44.42659" lon="0.82026">
        <ele>76</ele>
        <time>2012-09-09T08:52:34Z</time>
      </trkpt>
      <trkpt lat="44.42678" lon="0.82029">
        <ele>74</ele>
        <time>2012-09-09T08:52:39Z</time>
      </trkpt>
      <trkpt lat="44.42684" lon="0.82045">
        <ele>74</ele>
        <time>2012-09-09T08:52:44Z</time>
      </trkpt>
      <trkpt lat="44.42668" lon="0.82074">
        <ele>74</ele>
        <time>2012-09-09T08:52:49Z</time>
      </trkpt>
      <trkpt lat="44.42662" lon="0.82098">
        <ele>74</ele>
        <time>2012-09-09T08:52:54Z</time>
      </trkpt>
      <trkpt lat="44.42672" lon="0.82124">
        <ele>74</ele>
        <time>2012-09-09T08:52:59Z</time>
      </trkpt>
      <trkpt lat="44.42683" lon="0.82156">
        <ele>74</ele>
        <time>2012-09-09T08:53:04Z</time>
      </trkpt>
      <trkpt lat="44.42694" lon="0.82189">
        <ele>74</ele>
        <time>2012-09-09T08:53:09Z</time>
      </trkpt>
      <trkpt lat="44.42705" lon="0.82216">
        <ele>74</ele>
        <time>2012-09-09T08:53:14Z</time>
      </trkpt>
      <trkpt lat="44.42711" lon="0.82232">
        <ele>74</ele>
        <time>2012-09-09T08:53:30Z</time>
      </trkpt>
      <trkpt lat="44.42709" lon="0.82235">
        <ele>74</ele>
        <time>2012-09-09T08:53:58Z</time>
      </trkpt>
      <trkpt lat="44.42706" lon="0.8225">
        <ele>75</ele>
        <time>2012-09-09T08:54:03Z</time>
      </trkpt>
      <trkpt lat="44.42699" lon="0.8227">
        <ele>77</ele>
        <time>2012-09-09T08:54:08Z</time>
      </trkpt>
      <trkpt lat="44.42689" lon="0.82292">
        <ele>80</ele>
        <time>2012-09-09T08:54:13Z</time>
      </trkpt>
      <trkpt lat="44.42677" lon="0.82315">
        <ele>82</ele>
        <time>2012-09-09T08:54:18Z</time>
      </trkpt>
      <trkpt lat="44.42664" lon="0.82342">
        <ele>83</ele>
        <time>2012-09-09T08:54:23Z</time>
      </trkpt>
      <trkpt lat="44.42649" lon="0.82366">
        <ele>83</ele>
        <time>2012-09-09T08:54:28Z</time>
      </trkpt>
      <trkpt lat="44.42632" lon="0.82384">
        <ele>83</ele>
        <time>2012-09-09T08:54:33Z</time>
      </trkpt>
      <trkpt lat="44.42615" lon="0.82405">
        <ele>83</ele>
        <time>2012-09-09T08:54:38Z</time>
      </trkpt>
      <trkpt lat="44.42598" lon="0.82426">
        <ele>83</ele>
        <time>2012-09-09T08:54:43Z</time>
      </trkpt>
      <trkpt lat="44.42582" lon="0.82452">
        <ele>82</ele>
        <time>2012-09-09T08:54:48Z</time>
      </trkpt>
      <trkpt lat="44.42568" lon="0.82472">
        <ele>81</ele>
        <time>2012-09-09T08:54:53Z</time>
      </trkpt>
      <trkpt lat="44.42562" lon="0.82483">
        <ele>80</ele>
        <time>2012-09-09T08:54:58Z</time>
      </trkpt>
      <trkpt lat="44.42552" lon="0.82494">
        <ele>78</ele>
        <time>2012-09-09T08:55:03Z</time>
      </trkpt>
      <trkpt lat="44.42538" lon="0.82501">
        <ele>77</ele>
        <time>2012-09-09T08:55:08Z</time>
      </trkpt>
      <trkpt lat="44.42533" lon="0.82503">
        <ele>75</ele>
        <time>2012-09-09T08:55:14Z</time>
      </trkpt>
      <trkpt lat="44.42535" lon="0.82501">
        <ele>73</ele>
        <time>2012-09-09T08:55:19Z</time>
      </trkpt>
      <trkpt lat="44.42535" lon="0.82499">
        <ele>73</ele>
        <time>2012-09-09T08:55:31Z</time>
      </trkpt>
      <trkpt lat="44.42535" lon="0.82498">
        <ele>73</ele>
        <time>2012-09-09T08:55:42Z</time>
      </trkpt>
      <trkpt lat="44.42534" lon="0.825">
        <ele>73</ele>
        <time>2012-09-09T08:55:48Z</time>
      </trkpt>
      <trkpt lat="44.42529" lon="0.82502">
        <ele>72</ele>
        <time>2012-09-09T08:55:59Z</time>
      </trkpt>
      <trkpt lat="44.42517" lon="0.82506">
        <ele>72</ele>
        <time>2012-09-09T08:56:04Z</time>
      </trkpt>
      <trkpt lat="44.42498" lon="0.8251">
        <ele>72</ele>
        <time>2012-09-09T08:56:09Z</time>
      </trkpt>
      <trkpt lat="44.42476" lon="0.8252">
        <ele>72</ele>
        <time>2012-09-09T08:56:14Z</time>
      </trkpt>
      <trkpt lat="44.42453" lon="0.82524">
        <ele>72</ele>
        <time>2012-09-09T08:56:19Z</time>
      </trkpt>
      <trkpt lat="44.42429" lon="0.82532">
        <ele>71</ele>
        <time>2012-09-09T08:56:24Z</time>
      </trkpt>
      <trkpt lat="44.42405" lon="0.82541">
        <ele>69</ele>
        <time>2012-09-09T08:56:29Z</time>
      </trkpt>
      <trkpt lat="44.42381" lon="0.82548">
        <ele>69</ele>
        <time>2012-09-09T08:56:34Z</time>
      </trkpt>
      <trkpt lat="44.42356" lon="0.82557">
        <ele>67</ele>
        <time>2012-09-09T08:56:39Z</time>
      </trkpt>
      <trkpt lat="44.42334" lon="0.82563">
        <ele>66</ele>
        <time>2012-09-09T08:56:44Z</time>
      </trkpt>
      <trkpt lat="44.42316" lon="0.82569">
        <ele>65</ele>
        <time>2012-09-09T08:56:49Z</time>
      </trkpt>
      <trkpt lat="44.42305" lon="0.82549">
        <ele>65</ele>
        <time>2012-09-09T08:56:54Z</time>
      </trkpt>
      <trkpt lat="44.42291" lon="0.82522">
        <ele>65</ele>
        <time>2012-09-09T08:56:59Z</time>
      </trkpt>
      <trkpt lat="44.42275" lon="0.82497">
        <ele>65</ele>
        <time>2012-09-09T08:57:04Z</time>
      </trkpt>
      <trkpt lat="44.42265" lon="0.82476">
        <ele>65</ele>
        <time>2012-09-09T08:57:09Z</time>
      </trkpt>
      <trkpt lat="44.42255" lon="0.82462">
        <ele>65</ele>
        <time>2012-09-09T08:57:14Z</time>
      </trkpt>
      <trkpt lat="44.42246" lon="0.82442">
        <ele>65</ele>
        <time>2012-09-09T08:57:19Z</time>
      </trkpt>
      <trkpt lat="44.42232" lon="0.82418">
        <ele>65</ele>
        <time>2012-09-09T08:57:24Z</time>
      </trkpt>
      <trkpt lat="44.42218" lon="0.82396">
        <ele>65</ele>
        <time>2012-09-09T08:57:29Z</time>
      </trkpt>
      <trkpt lat="44.42222" lon="0.82376">
        <ele>65</ele>
        <time>2012-09-09T08:57:34Z</time>
      </trkpt>
      <trkpt lat="44.42222" lon="0.82356">
        <ele>66</ele>
        <time>2012-09-09T08:57:39Z</time>
      </trkpt>
      <trkpt lat="44.42209" lon="0.82335">
        <ele>67</ele>
        <time>2012-09-09T08:57:44Z</time>
      </trkpt>
      <trkpt lat="44.42197" lon="0.82313">
        <ele>68</ele>
        <time>2012-09-09T08:57:49Z</time>
      </trkpt>
      <trkpt lat="44.42186" lon="0.82292">
        <ele>69</ele>
        <time>2012-09-09T08:57:54Z</time>
      </trkpt>
      <trkpt lat="44.42175" lon="0.82269">
        <ele>69</ele>
        <time>2012-09-09T08:57:59Z</time>
      </trkpt>
      <trkpt lat="44.42169" lon="0.82245">
        <ele>70</ele>
        <time>2012-09-09T08:58:04Z</time>
      </trkpt>
      <trkpt lat="44.42159" lon="0.82224">
        <ele>70</ele>
        <time>2012-09-09T08:58:09Z</time>
      </trkpt>
      <trkpt lat="44.42144" lon="0.82204">
        <ele>70</ele>
        <time>2012-09-09T08:58:14Z</time>
      </trkpt>
      <trkpt lat="44.4213" lon="0.82185">
        <ele>70</ele>
        <time>2012-09-09T08:58:19Z</time>
      </trkpt>
      <trkpt lat="44.42113" lon="0.82174">
        <ele>70</ele>
        <time>2012-09-09T08:58:24Z</time>
      </trkpt>
      <trkpt lat="44.42095" lon="0.82163">
        <ele>70</ele>
        <time>2012-09-09T08:58:29Z</time>
      </trkpt>
      <trkpt lat="44.42076" lon="0.82139">
        <ele>71</ele>
        <time>2012-09-09T08:58:34Z</time>
      </trkpt>
      <trkpt lat="44.42058" lon="0.82112">
        <ele>71</ele>
        <time>2012-09-09T08:58:39Z</time>
      </trkpt>
      <trkpt lat="44.42042" lon="0.82088">
        <ele>71</ele>
        <time>2012-09-09T08:58:44Z</time>
      </trkpt>
      <trkpt lat="44.42026" lon="0.82065">
        <ele>71</ele>
        <time>2012-09-09T08:58:49Z</time>
      </trkpt>
      <trkpt lat="44.42011" lon="0.82041">
        <ele>71</ele>
        <time>2012-09-09T08:58:54Z</time>
      </trkpt>
      <trkpt lat="44.41998" lon="0.82024">
        <ele>71</ele>
        <time>2012-09-09T08:58:59Z</time>
      </trkpt>
      <trkpt lat="44.41984" lon="0.82045">
        <ele>71</ele>
        <time>2012-09-09T08:59:04Z</time>
      </trkpt>
      <trkpt lat="44.41967" lon="0.82074">
        <ele>71</ele>
        <time>2012-09-09T08:59:09Z</time>
      </trkpt>
      <trkpt lat="44.41949" lon="0.82105">
        <ele>71</ele>
        <time>2012-09-09T08:59:14Z</time>
      </trkpt>
      <trkpt lat="44.4193" lon="0.82138">
        <ele>72</ele>
        <time>2012-09-09T08:59:19Z</time>
      </trkpt>
      <trkpt lat="44.4191" lon="0.82172">
        <ele>72</ele>
        <time>2012-09-09T08:59:24Z</time>
      </trkpt>
      <trkpt lat="44.41889" lon="0.82206">
        <ele>72</ele>
        <time>2012-09-09T08:59:29Z</time>
      </trkpt>
      <trkpt lat="44.41864" lon="0.82239">
        <ele>72</ele>
        <time>2012-09-09T08:59:34Z</time>
      </trkpt>
      <trkpt lat="44.41839" lon="0.82269">
        <ele>72</ele>
        <time>2012-09-09T08:59:39Z</time>
      </trkpt>
      <trkpt lat="44.41816" lon="0.823">
        <ele>72</ele>
        <time>2012-09-09T08:59:44Z</time>
      </trkpt>
      <trkpt lat="44.41792" lon="0.82332">
        <ele>71</ele>
        <time>2012-09-09T08:59:49Z</time>
      </trkpt>
      <trkpt lat="44.41768" lon="0.82364">
        <ele>70</ele>
        <time>2012-09-09T08:59:54Z</time>
      </trkpt>
      <trkpt lat="44.41749" lon="0.82389">
        <ele>69</ele>
        <time>2012-09-09T08:59:59Z</time>
      </trkpt>
      <trkpt lat="44.41734" lon="0.82372">
        <ele>68</ele>
        <time>2012-09-09T09:00:04Z</time>
      </trkpt>
      <trkpt lat="44.41724" lon="0.82346">
        <ele>68</ele>
        <time>2012-09-09T09:00:09Z</time>
      </trkpt>
      <trkpt lat="44.41713" lon="0.8232">
        <ele>68</ele>
        <time>2012-09-09T09:00:14Z</time>
      </trkpt>
      <trkpt lat="44.41701" lon="0.82294">
        <ele>68</ele>
        <time>2012-09-09T09:00:19Z</time>
      </trkpt>
      <trkpt lat="44.4169" lon="0.82269">
        <ele>68</ele>
        <time>2012-09-09T09:00:24Z</time>
      </trkpt>
      <trkpt lat="44.41679" lon="0.82247">
        <ele>68</ele>
        <time>2012-09-09T09:00:29Z</time>
      </trkpt>
      <trkpt lat="44.41666" lon="0.82254">
        <ele>68</ele>
        <time>2012-09-09T09:00:34Z</time>
      </trkpt>
      <trkpt lat="44.41653" lon="0.82274">
        <ele>68</ele>
        <time>2012-09-09T09:00:39Z</time>
      </trkpt>
      <trkpt lat="44.4164" lon="0.82278">
        <ele>68</ele>
        <time>2012-09-09T09:00:44Z</time>
      </trkpt>
      <trkpt lat="44.41632" lon="0.82254">
        <ele>70</ele>
        <time>2012-09-09T09:00:49Z</time>
      </trkpt>
      <trkpt lat="44.41622" lon="0.82226">
        <ele>71</ele>
        <time>2012-09-09T09:00:54Z</time>
      </trkpt>
      <trkpt lat="44.41612" lon="0.82196">
        <ele>71</ele>
        <time>2012-09-09T09:00:59Z</time>
      </trkpt>
      <trkpt lat="44.41598" lon="0.82161">
        <ele>71</ele>
        <time>2012-09-09T09:01:05Z</time>
      </trkpt>
      <trkpt lat="44.41583" lon="0.82135">
        <ele>71</ele>
        <time>2012-09-09T09:01:10Z</time>
      </trkpt>
      <trkpt lat="44.41572" lon="0.82101">
        <ele>71</ele>
        <time>2012-09-09T09:01:15Z</time>
      </trkpt>
      <trkpt lat="44.41547" lon="0.82102">
        <ele>71</ele>
        <time>2012-09-09T09:01:20Z</time>
      </trkpt>
      <trkpt lat="44.41528" lon="0.82104">
        <ele>71</ele>
        <time>2012-09-09T09:01:25Z</time>
      </trkpt>
      <trkpt lat="44.41521" lon="0.8208">
        <ele>71</ele>
        <time>2012-09-09T09:01:30Z</time>
      </trkpt>
      <trkpt lat="44.41518" lon="0.82047">
        <ele>71</ele>
        <time>2012-09-09T09:01:35Z</time>
      </trkpt>
      <trkpt lat="44.41523" lon="0.82013">
        <ele>71</ele>
        <time>2012-09-09T09:01:40Z</time>
      </trkpt>
      <trkpt lat="44.4153" lon="0.81984">
        <ele>71</ele>
        <time>2012-09-09T09:01:45Z</time>
      </trkpt>
      <trkpt lat="44.41537" lon="0.81954">
        <ele>71</ele>
        <time>2012-09-09T09:01:50Z</time>
      </trkpt>
      <trkpt lat="44.41534" lon="0.81933">
        <ele>71</ele>
        <time>2012-09-09T09:01:55Z</time>
      </trkpt>
      <trkpt lat="44.41507" lon="0.81939">
        <ele>71</ele>
        <time>2012-09-09T09:02:00Z</time>
      </trkpt>
      <trkpt lat="44.4147" lon="0.81946">
        <ele>71</ele>
        <time>2012-09-09T09:02:06Z</time>
      </trkpt>
      <trkpt lat="44.41437" lon="0.81946">
        <ele>70</ele>
        <time>2012-09-09T09:02:11Z</time>
      </trkpt>
      <trkpt lat="44.41405" lon="0.8195">
        <ele>69</ele>
        <time>2012-09-09T09:02:16Z</time>
      </trkpt>
      <trkpt lat="44.41374" lon="0.81953">
        <ele>68</ele>
        <time>2012-09-09T09:02:21Z</time>
      </trkpt>
      <trkpt lat="44.41344" lon="0.81957">
        <ele>67</ele>
        <time>2012-09-09T09:02:26Z</time>
      </trkpt>
      <trkpt lat="44.41314" lon="0.81961">
        <ele>67</ele>
        <time>2012-09-09T09:02:31Z</time>
      </trkpt>
      <trkpt lat="44.41284" lon="0.81963">
        <ele>67</ele>
        <time>2012-09-09T09:02:36Z</time>
      </trkpt>
      <trkpt lat="44.41254" lon="0.81962">
        <ele>66</ele>
        <time>2012-09-09T09:02:41Z</time>
      </trkpt>
      <trkpt lat="44.41226" lon="0.81954">
        <ele>65</ele>
        <time>2012-09-09T09:02:46Z</time>
      </trkpt>
      <trkpt lat="44.41203" lon="0.81946">
        <ele>65</ele>
        <time>2012-09-09T09:02:51Z</time>
      </trkpt>
      <trkpt lat="44.41185" lon="0.81954">
        <ele>65</ele>
        <time>2012-09-09T09:02:57Z</time>
      </trkpt>
      <trkpt lat="44.41172" lon="0.81972">
        <ele>65</ele>
        <time>2012-09-09T09:03:02Z</time>
      </trkpt>
      <trkpt lat="44.41163" lon="0.81947">
        <ele>65</ele>
        <time>2012-09-09T09:03:07Z</time>
      </trkpt>
      <trkpt lat="44.41152" lon="0.81918">
        <ele>65</ele>
        <time>2012-09-09T09:03:12Z</time>
      </trkpt>
      <trkpt lat="44.4114" lon="0.81889">
        <ele>64</ele>
        <time>2012-09-09T09:03:17Z</time>
      </trkpt>
      <trkpt lat="44.41124" lon="0.81858">
        <ele>63</ele>
        <time>2012-09-09T09:03:22Z</time>
      </trkpt>
      <trkpt lat="44.41114" lon="0.81829">
        <ele>63</ele>
        <time>2012-09-09T09:03:27Z</time>
      </trkpt>
      <trkpt lat="44.41101" lon="0.81801">
        <ele>63</ele>
        <time>2012-09-09T09:03:32Z</time>
      </trkpt>
      <trkpt lat="44.41089" lon="0.81792">
        <ele>63</ele>
        <time>2012-09-09T09:03:37Z</time>
      </trkpt>
      <trkpt lat="44.41072" lon="0.81811">
        <ele>62</ele>
        <time>2012-09-09T09:03:42Z</time>
      </trkpt>
      <trkpt lat="44.4105" lon="0.81833">
        <ele>61</ele>
        <time>2012-09-09T09:03:48Z</time>
      </trkpt>
      <trkpt lat="44.41031" lon="0.8185">
        <ele>61</ele>
        <time>2012-09-09T09:03:53Z</time>
      </trkpt>
      <trkpt lat="44.41013" lon="0.81862">
        <ele>61</ele>
        <time>2012-09-09T09:03:58Z</time>
      </trkpt>
      <trkpt lat="44.41003" lon="0.8184">
        <ele>61</ele>
        <time>2012-09-09T09:04:03Z</time>
      </trkpt>
      <trkpt lat="44.40991" lon="0.81811">
        <ele>61</ele>
        <time>2012-09-09T09:04:08Z</time>
      </trkpt>
      <trkpt lat="44.40978" lon="0.8178">
        <ele>60</ele>
        <time>2012-09-09T09:04:14Z</time>
      </trkpt>
      <trkpt lat="44.40967" lon="0.81755">
        <ele>59</ele>
        <time>2012-09-09T09:04:19Z</time>
      </trkpt>
      <trkpt lat="44.40973" lon="0.81732">
        <ele>59</ele>
        <time>2012-09-09T09:04:25Z</time>
      </trkpt>
      <trkpt lat="44.40993" lon="0.81717">
        <ele>59</ele>
        <time>2012-09-09T09:04:30Z</time>
      </trkpt>
      <trkpt lat="44.41015" lon="0.81703">
        <ele>59</ele>
        <time>2012-09-09T09:04:35Z</time>
      </trkpt>
      <trkpt lat="44.41037" lon="0.81689">
        <ele>59</ele>
        <time>2012-09-09T09:04:40Z</time>
      </trkpt>
      <trkpt lat="44.41048" lon="0.8167">
        <ele>59</ele>
        <time>2012-09-09T09:04:45Z</time>
      </trkpt>
      <trkpt lat="44.41036" lon="0.81642">
        <ele>59</ele>
        <time>2012-09-09T09:04:50Z</time>
      </trkpt>
      <trkpt lat="44.41023" lon="0.81614">
        <ele>59</ele>
        <time>2012-09-09T09:04:55Z</time>
      </trkpt>
      <trkpt lat="44.4101" lon="0.81584">
        <ele>58</ele>
        <time>2012-09-09T09:05:00Z</time>
      </trkpt>
      <trkpt lat="44.40997" lon="0.81553">
        <ele>58</ele>
        <time>2012-09-09T09:05:05Z</time>
      </trkpt>
      <trkpt lat="44.40981" lon="0.81542">
        <ele>57</ele>
        <time>2012-09-09T09:05:10Z</time>
      </trkpt>
      <trkpt lat="44.40956" lon="0.81557">
        <ele>57</ele>
        <time>2012-09-09T09:05:15Z</time>
      </trkpt>
      <trkpt lat="44.40926" lon="0.81574">
        <ele>57</ele>
        <time>2012-09-09T09:05:21Z</time>
      </trkpt>
      <trkpt lat="44.40909" lon="0.81583">
        <ele>57</ele>
        <time>2012-09-09T09:05:26Z</time>
      </trkpt>
      <trkpt lat="44.40883" lon="0.81599">
        <ele>57</ele>
        <time>2012-09-09T09:05:31Z</time>
      </trkpt>
      <trkpt lat="44.40858" lon="0.81613">
        <ele>57</ele>
        <time>2012-09-09T09:05:36Z</time>
      </trkpt>
      <trkpt lat="44.40834" lon="0.81626">
        <ele>57</ele>
        <time>2012-09-09T09:05:41Z</time>
      </trkpt>
      <trkpt lat="44.40812" lon="0.8163">
        <ele>57</ele>
        <time>2012-09-09T09:05:46Z</time>
      </trkpt>
      <trkpt lat="44.40789" lon="0.81642">
        <ele>57</ele>
        <time>2012-09-09T09:05:51Z</time>
      </trkpt>
      <trkpt lat="44.40769" lon="0.81634">
        <ele>57</ele>
        <time>2012-09-09T09:05:56Z</time>
      </trkpt>
      <trkpt lat="44.40759" lon="0.81597">
        <ele>56</ele>
        <time>2012-09-09T09:06:01Z</time>
      </trkpt>
      <trkpt lat="44.40748" lon="0.81559">
        <ele>56</ele>
        <time>2012-09-09T09:06:06Z</time>
      </trkpt>
      <trkpt lat="44.40738" lon="0.81528">
        <ele>56</ele>
        <time>2012-09-09T09:06:11Z</time>
      </trkpt>
      <trkpt lat="44.40732" lon="0.8151">
        <ele>56</ele>
        <time>2012-09-09T09:06:16Z</time>
      </trkpt>
      <trkpt lat="44.4072" lon="0.81513">
        <ele>56</ele>
        <time>2012-09-09T09:06:21Z</time>
      </trkpt>
      <trkpt lat="44.40697" lon="0.8153">
        <ele>56</ele>
        <time>2012-09-09T09:06:26Z</time>
      </trkpt>
      <trkpt lat="44.40673" lon="0.8155">
        <ele>56</ele>
        <time>2012-09-09T09:06:31Z</time>
      </trkpt>
      <trkpt lat="44.40646" lon="0.81572">
        <ele>56</ele>
        <time>2012-09-09T09:06:36Z</time>
      </trkpt>
      <trkpt lat="44.40611" lon="0.81598">
        <ele>56</ele>
        <time>2012-09-09T09:06:42Z</time>
      </trkpt>
      <trkpt lat="44.40581" lon="0.81619">
        <ele>56</ele>
        <time>2012-09-09T09:06:47Z</time>
      </trkpt>
      <trkpt lat="44.40551" lon="0.81643">
        <ele>56</ele>
        <time>2012-09-09T09:06:52Z</time>
      </trkpt>
      <trkpt lat="44.4052" lon="0.8166">
        <ele>55</ele>
        <time>2012-09-09T09:06:57Z</time>
      </trkpt>
      <trkpt lat="44.40496" lon="0.81669">
        <ele>55</ele>
        <time>2012-09-09T09:07:02Z</time>
      </trkpt>
      <trkpt lat="44.4049" lon="0.81683">
        <ele>54</ele>
        <time>2012-09-09T09:07:07Z</time>
      </trkpt>
      <trkpt lat="44.40476" lon="0.81694">
        <ele>54</ele>
        <time>2012-09-09T09:07:12Z</time>
      </trkpt>
      <trkpt lat="44.40456" lon="0.81707">
        <ele>54</ele>
        <time>2012-09-09T09:07:17Z</time>
      </trkpt>
      <trkpt lat="44.40432" lon="0.81723">
        <ele>54</ele>
        <time>2012-09-09T09:07:22Z</time>
      </trkpt>
      <trkpt lat="44.40409" lon="0.81739">
        <ele>53</ele>
        <time>2012-09-09T09:07:27Z</time>
      </trkpt>
      <trkpt lat="44.40386" lon="0.81752">
        <ele>53</ele>
        <time>2012-09-09T09:07:32Z</time>
      </trkpt>
      <trkpt lat="44.40364" lon="0.81765">
        <ele>53</ele>
        <time>2012-09-09T09:07:37Z</time>
      </trkpt>
      <trkpt lat="44.40342" lon="0.81777">
        <ele>52</ele>
        <time>2012-09-09T09:07:42Z</time>
      </trkpt>
      <trkpt lat="44.40323" lon="0.81786">
        <ele>52</ele>
        <time>2012-09-09T09:07:47Z</time>
      </trkpt>
      <trkpt lat="44.40311" lon="0.81775">
        <ele>52</ele>
        <time>2012-09-09T09:07:52Z</time>
      </trkpt>
      <trkpt lat="44.40303" lon="0.81755">
        <ele>52</ele>
        <time>2012-09-09T09:07:57Z</time>
      </trkpt>
      <trkpt lat="44.40294" lon="0.81734">
        <ele>52</ele>
        <time>2012-09-09T09:08:02Z</time>
      </trkpt>
      <trkpt lat="44.40283" lon="0.81712">
        <ele>52</ele>
        <time>2012-09-09T09:08:07Z</time>
      </trkpt>
      <trkpt lat="44.40272" lon="0.8169">
        <ele>52</ele>
        <time>2012-09-09T09:08:12Z</time>
      </trkpt>
      <trkpt lat="44.40273" lon="0.81668">
        <ele>52</ele>
        <time>2012-09-09T09:08:17Z</time>
      </trkpt>
      <trkpt lat="44.40271" lon="0.81645">
        <ele>52</ele>
        <time>2012-09-09T09:08:22Z</time>
      </trkpt>
      <trkpt lat="44.40263" lon="0.81625">
        <ele>52</ele>
        <time>2012-09-09T09:08:27Z</time>
      </trkpt>
      <trkpt lat="44.40255" lon="0.816">
        <ele>52</ele>
        <time>2012-09-09T09:08:32Z</time>
      </trkpt>
      <trkpt lat="44.40246" lon="0.81576">
        <ele>52</ele>
        <time>2012-09-09T09:08:37Z</time>
      </trkpt>
      <trkpt lat="44.40251" lon="0.81559">
        <ele>52</ele>
        <time>2012-09-09T09:08:42Z</time>
      </trkpt>
      <trkpt lat="44.40266" lon="0.81552">
        <ele>52</ele>
        <time>2012-09-09T09:08:47Z</time>
      </trkpt>
      <trkpt lat="44.40279" lon="0.81544">
        <ele>52</ele>
        <time>2012-09-09T09:08:52Z</time>
      </trkpt>
      <trkpt lat="44.40296" lon="0.81533">
        <ele>52</ele>
        <time>2012-09-09T09:08:57Z</time>
      </trkpt>
      <trkpt lat="44.40312" lon="0.81522">
        <ele>52</ele>
        <time>2012-09-09T09:09:02Z</time>
      </trkpt>
      <trkpt lat="44.40327" lon="0.81512">
        <ele>52</ele>
        <time>2012-09-09T09:09:07Z</time>
      </trkpt>
      <trkpt lat="44.40337" lon="0.815">
        <ele>52</ele>
        <time>2012-09-09T09:09:12Z</time>
      </trkpt>
      <trkpt lat="44.4035" lon="0.81496">
        <ele>52</ele>
        <time>2012-09-09T09:09:18Z</time>
      </trkpt>
      <trkpt lat="44.40351" lon="0.81497">
        <ele>52</ele>
        <time>2012-09-09T09:09:28Z</time>
      </trkpt>
      <trkpt lat="44.40349" lon="0.81499">
        <ele>52</ele>
        <time>2012-09-09T09:09:34Z</time>
      </trkpt>
    </trkseg>
  </trk>
</gpx>